<?xml version="1.0" encoding="UTF-8" standalone="no" ?>
<gpx xmlns="http://www.topografix.com/GPX/1/1" xmlns:xsi="http://www.w3.org/2001/XMLSchema-instance" xsi:schemaLocation="http://www.topografix.com/GPX/1/1 http://www.topografix.com/GPX/1/1/gpx.xsd" version="1.1" creator="VisuGPX - https://www.visugpx.com">
  <metadata>
    <name>2013-01-12 - Ski rando Chartreuse - Aup du Seuil   Croix de Lans</name>
    <desc><![CDATA[Ski rando chartreuse]]></desc>
  </metadata>
  <trk>
    <name><![CDATA[Ski Rando -> Chartreuse - Aup du Seuil + Croix de Lans]]></name>
    <trkseg>
      <trkpt lat="45.3584" lon="5.89726">
        <ele>2210.2082519531</ele>
        <time>2013-01-12T09:18:01Z</time>
      </trkpt>
      <trkpt lat="45.3584" lon="5.89726">
        <ele>2210.2082519531</ele>
        <time>2013-01-12T09:18:02Z</time>
      </trkpt>
      <trkpt lat="45.3584" lon="5.89726">
        <ele>2210.2082519531</ele>
        <time>2013-01-12T09:18:03Z</time>
      </trkpt>
      <trkpt lat="45.3584" lon="5.89726">
        <ele>1834.3327636719</ele>
        <time>2013-01-12T09:18:16Z</time>
      </trkpt>
      <trkpt lat="45.3584" lon="5.89726">
        <ele>1834.3327636719</ele>
        <time>2013-01-12T09:18:17Z</time>
      </trkpt>
      <trkpt lat="45.3584" lon="5.89726">
        <ele>1830.4875488281</ele>
        <time>2013-01-12T09:18:25Z</time>
      </trkpt>
      <trkpt lat="45.3584" lon="5.89726">
        <ele>1833.8520507812</ele>
        <time>2013-01-12T09:18:31Z</time>
      </trkpt>
      <trkpt lat="45.35839" lon="5.89725">
        <ele>1834.3327636719</ele>
        <time>2013-01-12T09:18:44Z</time>
      </trkpt>
      <trkpt lat="45.35838" lon="5.89724">
        <ele>1832.41015625</ele>
        <time>2013-01-12T09:18:50Z</time>
      </trkpt>
      <trkpt lat="45.35838" lon="5.89724">
        <ele>1836.2556152344</ele>
        <time>2013-01-12T09:18:51Z</time>
      </trkpt>
      <trkpt lat="45.35838" lon="5.89724">
        <ele>1833.8520507812</ele>
        <time>2013-01-12T09:18:52Z</time>
      </trkpt>
      <trkpt lat="45.35837" lon="5.89724">
        <ele>1830.0068359375</ele>
        <time>2013-01-12T09:20:32Z</time>
      </trkpt>
      <trkpt lat="45.35837" lon="5.89724">
        <ele>1835.2939453125</ele>
        <time>2013-01-12T09:20:33Z</time>
      </trkpt>
      <trkpt lat="45.35837" lon="5.89724">
        <ele>1830.4875488281</ele>
        <time>2013-01-12T09:20:41Z</time>
      </trkpt>
      <trkpt lat="45.35837" lon="5.89724">
        <ele>1834.3327636719</ele>
        <time>2013-01-12T09:20:42Z</time>
      </trkpt>
      <trkpt lat="45.35837" lon="5.89724">
        <ele>1829.5261230469</ele>
        <time>2013-01-12T09:20:49Z</time>
      </trkpt>
      <trkpt lat="45.35837" lon="5.89724">
        <ele>1834.3327636719</ele>
        <time>2013-01-12T09:20:50Z</time>
      </trkpt>
      <trkpt lat="45.35836" lon="5.89722">
        <ele>1833.3713378906</ele>
        <time>2013-01-12T09:20:54Z</time>
      </trkpt>
      <trkpt lat="45.35834" lon="5.89715">
        <ele>1830.0068359375</ele>
        <time>2013-01-12T09:21:00Z</time>
      </trkpt>
      <trkpt lat="45.35834" lon="5.89714">
        <ele>1833.3713378906</ele>
        <time>2013-01-12T09:21:17Z</time>
      </trkpt>
      <trkpt lat="45.35834" lon="5.89714">
        <ele>1829.5261230469</ele>
        <time>2013-01-12T09:21:27Z</time>
      </trkpt>
      <trkpt lat="45.35829" lon="5.89708">
        <ele>1830.0068359375</ele>
        <time>2013-01-12T09:22:17Z</time>
      </trkpt>
      <trkpt lat="45.35827" lon="5.89705">
        <ele>1830.4875488281</ele>
        <time>2013-01-12T09:22:19Z</time>
      </trkpt>
      <trkpt lat="45.35817" lon="5.89694">
        <ele>1829.5261230469</ele>
        <time>2013-01-12T09:22:25Z</time>
      </trkpt>
      <trkpt lat="45.35815" lon="5.89694">
        <ele>1827.123046875</ele>
        <time>2013-01-12T09:22:38Z</time>
      </trkpt>
      <trkpt lat="45.35815" lon="5.89704">
        <ele>1824.2390136719</ele>
        <time>2013-01-12T09:22:42Z</time>
      </trkpt>
      <trkpt lat="45.35814" lon="5.8971">
        <ele>1821.8356933594</ele>
        <time>2013-01-12T09:22:45Z</time>
      </trkpt>
      <trkpt lat="45.35818" lon="5.89719">
        <ele>1820.3937988281</ele>
        <time>2013-01-12T09:22:58Z</time>
      </trkpt>
      <trkpt lat="45.35819" lon="5.89719">
        <ele>1820.3937988281</ele>
        <time>2013-01-12T09:23:12Z</time>
      </trkpt>
      <trkpt lat="45.35819" lon="5.89722">
        <ele>1817.990234375</ele>
        <time>2013-01-12T09:23:14Z</time>
      </trkpt>
      <trkpt lat="45.35819" lon="5.89723">
        <ele>1817.990234375</ele>
        <time>2013-01-12T09:23:15Z</time>
      </trkpt>
      <trkpt lat="45.35819" lon="5.89726">
        <ele>1814.1450195312</ele>
        <time>2013-01-12T09:24:05Z</time>
      </trkpt>
      <trkpt lat="45.35819" lon="5.89726">
        <ele>1817.5095214844</ele>
        <time>2013-01-12T09:24:07Z</time>
      </trkpt>
      <trkpt lat="45.35819" lon="5.89727">
        <ele>1814.6257324219</ele>
        <time>2013-01-12T09:24:46Z</time>
      </trkpt>
      <trkpt lat="45.35822" lon="5.89729">
        <ele>1812.703125</ele>
        <time>2013-01-12T09:24:49Z</time>
      </trkpt>
      <trkpt lat="45.35825" lon="5.89735">
        <ele>1808.8579101562</ele>
        <time>2013-01-12T09:25:02Z</time>
      </trkpt>
      <trkpt lat="45.35822" lon="5.89747">
        <ele>1805.0126953125</ele>
        <time>2013-01-12T09:25:17Z</time>
      </trkpt>
      <trkpt lat="45.3582" lon="5.89749">
        <ele>1805.0126953125</ele>
        <time>2013-01-12T09:25:18Z</time>
      </trkpt>
      <trkpt lat="45.35817" lon="5.89753">
        <ele>1803.5705566406</ele>
        <time>2013-01-12T09:25:21Z</time>
      </trkpt>
      <trkpt lat="45.35815" lon="5.89756">
        <ele>1803.5705566406</ele>
        <time>2013-01-12T09:25:25Z</time>
      </trkpt>
      <trkpt lat="45.35811" lon="5.89765">
        <ele>1800.6865234375</ele>
        <time>2013-01-12T09:25:28Z</time>
      </trkpt>
      <trkpt lat="45.35811" lon="5.89764">
        <ele>1796.3608398438</ele>
        <time>2013-01-12T09:25:38Z</time>
      </trkpt>
      <trkpt lat="45.35813" lon="5.89775">
        <ele>1794.9187011719</ele>
        <time>2013-01-12T09:25:41Z</time>
      </trkpt>
      <trkpt lat="45.35816" lon="5.89777">
        <ele>1791.5541992188</ele>
        <time>2013-01-12T09:25:43Z</time>
      </trkpt>
      <trkpt lat="45.3582" lon="5.89777">
        <ele>1789.1508789062</ele>
        <time>2013-01-12T09:25:55Z</time>
      </trkpt>
      <trkpt lat="45.35824" lon="5.89783">
        <ele>1783.3828125</ele>
        <time>2013-01-12T09:25:58Z</time>
      </trkpt>
      <trkpt lat="45.35825" lon="5.89784">
        <ele>1783.3828125</ele>
        <time>2013-01-12T09:25:59Z</time>
      </trkpt>
      <trkpt lat="45.35827" lon="5.89786">
        <ele>1780.0183105469</ele>
        <time>2013-01-12T09:26:03Z</time>
      </trkpt>
      <trkpt lat="45.35828" lon="5.89788">
        <ele>1780.4990234375</ele>
        <time>2013-01-12T09:26:04Z</time>
      </trkpt>
      <trkpt lat="45.35828" lon="5.89792">
        <ele>1779.5375976562</ele>
        <time>2013-01-12T09:26:37Z</time>
      </trkpt>
      <trkpt lat="45.3583" lon="5.89795">
        <ele>1775.2116699219</ele>
        <time>2013-01-12T09:26:45Z</time>
      </trkpt>
      <trkpt lat="45.35829" lon="5.89796">
        <ele>1776.1730957031</ele>
        <time>2013-01-12T09:26:46Z</time>
      </trkpt>
      <trkpt lat="45.3583" lon="5.89803">
        <ele>1772.80859375</ele>
        <time>2013-01-12T09:26:51Z</time>
      </trkpt>
      <trkpt lat="45.3583" lon="5.89805">
        <ele>1771.8469238281</ele>
        <time>2013-01-12T09:26:53Z</time>
      </trkpt>
      <trkpt lat="45.35832" lon="5.89809">
        <ele>1768.0017089844</ele>
        <time>2013-01-12T09:26:57Z</time>
      </trkpt>
      <trkpt lat="45.35832" lon="5.89815">
        <ele>1763.67578125</ele>
        <time>2013-01-12T09:27:00Z</time>
      </trkpt>
      <trkpt lat="45.35834" lon="5.8982">
        <ele>1763.67578125</ele>
        <time>2013-01-12T09:27:01Z</time>
      </trkpt>
      <trkpt lat="45.35837" lon="5.89824">
        <ele>1759.8305664062</ele>
        <time>2013-01-12T09:27:07Z</time>
      </trkpt>
      <trkpt lat="45.35837" lon="5.89825">
        <ele>1760.3112792969</ele>
        <time>2013-01-12T09:27:08Z</time>
      </trkpt>
      <trkpt lat="45.35837" lon="5.8983">
        <ele>1755.5046386719</ele>
        <time>2013-01-12T09:27:10Z</time>
      </trkpt>
      <trkpt lat="45.35828" lon="5.89846">
        <ele>1754.5432128906</ele>
        <time>2013-01-12T09:27:21Z</time>
      </trkpt>
      <trkpt lat="45.35824" lon="5.89845">
        <ele>1753.1013183594</ele>
        <time>2013-01-12T09:27:30Z</time>
      </trkpt>
      <trkpt lat="45.35823" lon="5.89855">
        <ele>1750.2175292969</ele>
        <time>2013-01-12T09:27:33Z</time>
      </trkpt>
      <trkpt lat="45.35827" lon="5.89854">
        <ele>1746.8527832031</ele>
        <time>2013-01-12T09:27:35Z</time>
      </trkpt>
      <trkpt lat="45.35828" lon="5.89856">
        <ele>1746.3723144531</ele>
        <time>2013-01-12T09:27:37Z</time>
      </trkpt>
      <trkpt lat="45.35824" lon="5.8985">
        <ele>1745.8916015625</ele>
        <time>2013-01-12T09:28:10Z</time>
      </trkpt>
      <trkpt lat="45.35824" lon="5.8985">
        <ele>1744.9301757812</ele>
        <time>2013-01-12T09:28:13Z</time>
      </trkpt>
      <trkpt lat="45.35822" lon="5.89859">
        <ele>1736.7587890625</ele>
        <time>2013-01-12T09:28:17Z</time>
      </trkpt>
      <trkpt lat="45.3582" lon="5.89864">
        <ele>1735.3168945312</ele>
        <time>2013-01-12T09:28:18Z</time>
      </trkpt>
      <trkpt lat="45.35826" lon="5.89871">
        <ele>1728.587890625</ele>
        <time>2013-01-12T09:28:20Z</time>
      </trkpt>
      <trkpt lat="45.35829" lon="5.89877">
        <ele>1724.2619628906</ele>
        <time>2013-01-12T09:28:22Z</time>
      </trkpt>
      <trkpt lat="45.35828" lon="5.89879">
        <ele>1720.8972167969</ele>
        <time>2013-01-12T09:28:23Z</time>
      </trkpt>
      <trkpt lat="45.35831" lon="5.89883">
        <ele>1717.5324707031</ele>
        <time>2013-01-12T09:28:24Z</time>
      </trkpt>
      <trkpt lat="45.35836" lon="5.89899">
        <ele>1710.8034667969</ele>
        <time>2013-01-12T09:28:27Z</time>
      </trkpt>
      <trkpt lat="45.35839" lon="5.89919">
        <ele>1701.1901855469</ele>
        <time>2013-01-12T09:28:31Z</time>
      </trkpt>
      <trkpt lat="45.35835" lon="5.89935">
        <ele>1697.3449707031</ele>
        <time>2013-01-12T09:28:34Z</time>
      </trkpt>
      <trkpt lat="45.35834" lon="5.89933">
        <ele>1697.8256835938</ele>
        <time>2013-01-12T09:28:48Z</time>
      </trkpt>
      <trkpt lat="45.35831" lon="5.89937">
        <ele>1696.8642578125</ele>
        <time>2013-01-12T09:29:15Z</time>
      </trkpt>
      <trkpt lat="45.35829" lon="5.89953">
        <ele>1689.1735839844</ele>
        <time>2013-01-12T09:29:18Z</time>
      </trkpt>
      <trkpt lat="45.35832" lon="5.89958">
        <ele>1682.9250488281</ele>
        <time>2013-01-12T09:29:20Z</time>
      </trkpt>
      <trkpt lat="45.35834" lon="5.89964">
        <ele>1679.560546875</ele>
        <time>2013-01-12T09:29:22Z</time>
      </trkpt>
      <trkpt lat="45.35835" lon="5.89973">
        <ele>1675.234375</ele>
        <time>2013-01-12T09:29:24Z</time>
      </trkpt>
      <trkpt lat="45.35835" lon="5.89981">
        <ele>1671.8698730469</ele>
        <time>2013-01-12T09:29:26Z</time>
      </trkpt>
      <trkpt lat="45.35835" lon="5.89985">
        <ele>1668.9860839844</ele>
        <time>2013-01-12T09:29:28Z</time>
      </trkpt>
      <trkpt lat="45.35836" lon="5.89982">
        <ele>1668.9860839844</ele>
        <time>2013-01-12T09:29:42Z</time>
      </trkpt>
      <trkpt lat="45.35837" lon="5.8998">
        <ele>1670.9086914062</ele>
        <time>2013-01-12T09:30:40Z</time>
      </trkpt>
      <trkpt lat="45.35838" lon="5.89985">
        <ele>1666.5827636719</ele>
        <time>2013-01-12T09:30:42Z</time>
      </trkpt>
      <trkpt lat="45.35837" lon="5.89992">
        <ele>1667.5439453125</ele>
        <time>2013-01-12T09:30:43Z</time>
      </trkpt>
      <trkpt lat="45.35836" lon="5.89998">
        <ele>1664.1794433594</ele>
        <time>2013-01-12T09:30:44Z</time>
      </trkpt>
      <trkpt lat="45.35837" lon="5.90005">
        <ele>1659.8532714844</ele>
        <time>2013-01-12T09:30:45Z</time>
      </trkpt>
      <trkpt lat="45.35832" lon="5.90016">
        <ele>1656.0080566406</ele>
        <time>2013-01-12T09:30:47Z</time>
      </trkpt>
      <trkpt lat="45.35833" lon="5.90029">
        <ele>1648.3176269531</ele>
        <time>2013-01-12T09:30:50Z</time>
      </trkpt>
      <trkpt lat="45.35834" lon="5.90033">
        <ele>1647.8371582031</ele>
        <time>2013-01-12T09:30:51Z</time>
      </trkpt>
      <trkpt lat="45.35828" lon="5.90038">
        <ele>1646.3952636719</ele>
        <time>2013-01-12T09:30:55Z</time>
      </trkpt>
      <trkpt lat="45.35828" lon="5.90037">
        <ele>1644.953125</ele>
        <time>2013-01-12T09:31:05Z</time>
      </trkpt>
      <trkpt lat="45.35831" lon="5.90045">
        <ele>1640.146484375</ele>
        <time>2013-01-12T09:31:08Z</time>
      </trkpt>
      <trkpt lat="45.3583" lon="5.90049">
        <ele>1639.1850585938</ele>
        <time>2013-01-12T09:31:09Z</time>
      </trkpt>
      <trkpt lat="45.35835" lon="5.90058">
        <ele>1634.3786621094</ele>
        <time>2013-01-12T09:31:13Z</time>
      </trkpt>
      <trkpt lat="45.35841" lon="5.9007">
        <ele>1630.052734375</ele>
        <time>2013-01-12T09:31:17Z</time>
      </trkpt>
      <trkpt lat="45.35844" lon="5.90075">
        <ele>1626.2072753906</ele>
        <time>2013-01-12T09:31:18Z</time>
      </trkpt>
      <trkpt lat="45.35839" lon="5.90089">
        <ele>1618.9975585938</ele>
        <time>2013-01-12T09:31:21Z</time>
      </trkpt>
      <trkpt lat="45.35838" lon="5.90092">
        <ele>1619.9587402344</ele>
        <time>2013-01-12T09:31:22Z</time>
      </trkpt>
      <trkpt lat="45.35837" lon="5.90098">
        <ele>1617.0749511719</ele>
        <time>2013-01-12T09:31:34Z</time>
      </trkpt>
      <trkpt lat="45.35837" lon="5.901">
        <ele>1615.15234375</ele>
        <time>2013-01-12T09:31:36Z</time>
      </trkpt>
      <trkpt lat="45.35829" lon="5.90103">
        <ele>1612.2683105469</ele>
        <time>2013-01-12T09:31:40Z</time>
      </trkpt>
      <trkpt lat="45.35824" lon="5.901">
        <ele>1611.7875976562</ele>
        <time>2013-01-12T09:31:52Z</time>
      </trkpt>
      <trkpt lat="45.35823" lon="5.901">
        <ele>1611.7875976562</ele>
        <time>2013-01-12T09:32:32Z</time>
      </trkpt>
      <trkpt lat="45.35819" lon="5.90107">
        <ele>1607.9423828125</ele>
        <time>2013-01-12T09:32:35Z</time>
      </trkpt>
      <trkpt lat="45.35817" lon="5.90111">
        <ele>1604.5776367188</ele>
        <time>2013-01-12T09:32:36Z</time>
      </trkpt>
      <trkpt lat="45.35813" lon="5.90121">
        <ele>1600.732421875</ele>
        <time>2013-01-12T09:32:38Z</time>
      </trkpt>
      <trkpt lat="45.35808" lon="5.9013">
        <ele>1595.4450683594</ele>
        <time>2013-01-12T09:32:40Z</time>
      </trkpt>
      <trkpt lat="45.35804" lon="5.90138">
        <ele>1587.7546386719</ele>
        <time>2013-01-12T09:32:42Z</time>
      </trkpt>
      <trkpt lat="45.35803" lon="5.90143">
        <ele>1586.3127441406</ele>
        <time>2013-01-12T09:32:43Z</time>
      </trkpt>
      <trkpt lat="45.35799" lon="5.90155">
        <ele>1579.1025390625</ele>
        <time>2013-01-12T09:32:46Z</time>
      </trkpt>
      <trkpt lat="45.35795" lon="5.9016">
        <ele>1575.7380371094</ele>
        <time>2013-01-12T09:32:47Z</time>
      </trkpt>
      <trkpt lat="45.35794" lon="5.90168">
        <ele>1571.8928222656</ele>
        <time>2013-01-12T09:32:49Z</time>
      </trkpt>
      <trkpt lat="45.3579" lon="5.90172">
        <ele>1567.0864257812</ele>
        <time>2013-01-12T09:32:51Z</time>
      </trkpt>
      <trkpt lat="45.35787" lon="5.90182">
        <ele>1561.318359375</ele>
        <time>2013-01-12T09:32:54Z</time>
      </trkpt>
      <trkpt lat="45.35787" lon="5.90182">
        <ele>1561.318359375</ele>
        <time>2013-01-12T09:32:55Z</time>
      </trkpt>
      <trkpt lat="45.35787" lon="5.90183">
        <ele>1560.8376464844</ele>
        <time>2013-01-12T09:33:45Z</time>
      </trkpt>
      <trkpt lat="45.35778" lon="5.9018">
        <ele>1559.8762207031</ele>
        <time>2013-01-12T09:33:58Z</time>
      </trkpt>
      <trkpt lat="45.35778" lon="5.90179">
        <ele>1559.3957519531</ele>
        <time>2013-01-12T09:34:10Z</time>
      </trkpt>
      <trkpt lat="45.35764" lon="5.90182">
        <ele>1555.5505371094</ele>
        <time>2013-01-12T09:34:19Z</time>
      </trkpt>
      <trkpt lat="45.35759" lon="5.90188">
        <ele>1549.7827148438</ele>
        <time>2013-01-12T09:34:23Z</time>
      </trkpt>
      <trkpt lat="45.35747" lon="5.90191">
        <ele>1543.0532226562</ele>
        <time>2013-01-12T09:34:29Z</time>
      </trkpt>
      <trkpt lat="45.35739" lon="5.90196">
        <ele>1539.6887207031</ele>
        <time>2013-01-12T09:34:32Z</time>
      </trkpt>
      <trkpt lat="45.35734" lon="5.902">
        <ele>1535.8435058594</ele>
        <time>2013-01-12T09:34:34Z</time>
      </trkpt>
      <trkpt lat="45.35728" lon="5.90209">
        <ele>1531.5173339844</ele>
        <time>2013-01-12T09:34:37Z</time>
      </trkpt>
      <trkpt lat="45.35725" lon="5.90215">
        <ele>1526.7109375</ele>
        <time>2013-01-12T09:34:39Z</time>
      </trkpt>
      <trkpt lat="45.35722" lon="5.90219">
        <ele>1525.2687988281</ele>
        <time>2013-01-12T09:34:40Z</time>
      </trkpt>
      <trkpt lat="45.35717" lon="5.90225">
        <ele>1518.0590820312</ele>
        <time>2013-01-12T09:34:43Z</time>
      </trkpt>
      <trkpt lat="45.35714" lon="5.90228">
        <ele>1514.2136230469</ele>
        <time>2013-01-12T09:34:46Z</time>
      </trkpt>
      <trkpt lat="45.35706" lon="5.90239">
        <ele>1512.7717285156</ele>
        <time>2013-01-12T09:35:03Z</time>
      </trkpt>
      <trkpt lat="45.35703" lon="5.90244">
        <ele>1507.00390625</ele>
        <time>2013-01-12T09:35:19Z</time>
      </trkpt>
      <trkpt lat="45.35702" lon="5.9025">
        <ele>1505.5620117188</ele>
        <time>2013-01-12T09:35:27Z</time>
      </trkpt>
      <trkpt lat="45.35701" lon="5.90254">
        <ele>1503.1586914062</ele>
        <time>2013-01-12T09:35:31Z</time>
      </trkpt>
      <trkpt lat="45.35702" lon="5.90264">
        <ele>1495.9487304688</ele>
        <time>2013-01-12T09:35:34Z</time>
      </trkpt>
      <trkpt lat="45.35697" lon="5.90275">
        <ele>1490.6613769531</ele>
        <time>2013-01-12T09:35:37Z</time>
      </trkpt>
      <trkpt lat="45.35699" lon="5.90279">
        <ele>1485.8549804688</ele>
        <time>2013-01-12T09:35:39Z</time>
      </trkpt>
      <trkpt lat="45.35698" lon="5.90282">
        <ele>1487.7775878906</ele>
        <time>2013-01-12T09:35:40Z</time>
      </trkpt>
      <trkpt lat="45.35697" lon="5.90284">
        <ele>1483.4514160156</ele>
        <time>2013-01-12T09:35:41Z</time>
      </trkpt>
      <trkpt lat="45.35694" lon="5.90291">
        <ele>1484.4130859375</ele>
        <time>2013-01-12T09:35:42Z</time>
      </trkpt>
      <trkpt lat="45.3569" lon="5.90294">
        <ele>1480.0869140625</ele>
        <time>2013-01-12T09:35:44Z</time>
      </trkpt>
      <trkpt lat="45.3569" lon="5.90296">
        <ele>1479.6062011719</ele>
        <time>2013-01-12T09:35:45Z</time>
      </trkpt>
      <trkpt lat="45.35691" lon="5.90298">
        <ele>1478.6450195312</ele>
        <time>2013-01-12T09:35:46Z</time>
      </trkpt>
      <trkpt lat="45.35694" lon="5.90303">
        <ele>1477.203125</ele>
        <time>2013-01-12T09:35:49Z</time>
      </trkpt>
      <trkpt lat="45.35697" lon="5.90292">
        <ele>1475.2802734375</ele>
        <time>2013-01-12T09:36:00Z</time>
      </trkpt>
      <trkpt lat="45.35701" lon="5.90281">
        <ele>1476.2416992188</ele>
        <time>2013-01-12T09:36:52Z</time>
      </trkpt>
      <trkpt lat="45.35705" lon="5.90291">
        <ele>1472.396484375</ele>
        <time>2013-01-12T09:37:24Z</time>
      </trkpt>
      <trkpt lat="45.35702" lon="5.90303">
        <ele>1469.0319824219</ele>
        <time>2013-01-12T09:37:27Z</time>
      </trkpt>
      <trkpt lat="45.35704" lon="5.90314">
        <ele>1465.6672363281</ele>
        <time>2013-01-12T09:37:29Z</time>
      </trkpt>
      <trkpt lat="45.35704" lon="5.90321">
        <ele>1461.8220214844</ele>
        <time>2013-01-12T09:37:30Z</time>
      </trkpt>
      <trkpt lat="45.35698" lon="5.90336">
        <ele>1461.8220214844</ele>
        <time>2013-01-12T09:37:31Z</time>
      </trkpt>
      <trkpt lat="45.35696" lon="5.90347">
        <ele>1456.0539550781</ele>
        <time>2013-01-12T09:37:32Z</time>
      </trkpt>
      <trkpt lat="45.35694" lon="5.9035">
        <ele>1456.5346679688</ele>
        <time>2013-01-12T09:37:33Z</time>
      </trkpt>
      <trkpt lat="45.35689" lon="5.90366">
        <ele>1451.7280273438</ele>
        <time>2013-01-12T09:37:40Z</time>
      </trkpt>
      <trkpt lat="45.35684" lon="5.90368">
        <ele>1445.4794921875</ele>
        <time>2013-01-12T09:37:43Z</time>
      </trkpt>
      <trkpt lat="45.35683" lon="5.90369">
        <ele>1446.4409179688</ele>
        <time>2013-01-12T09:37:44Z</time>
      </trkpt>
      <trkpt lat="45.35683" lon="5.90378">
        <ele>1443.076171875</ele>
        <time>2013-01-12T09:37:54Z</time>
      </trkpt>
      <trkpt lat="45.35681" lon="5.90383">
        <ele>1444.9987792969</ele>
        <time>2013-01-12T09:37:55Z</time>
      </trkpt>
      <trkpt lat="45.35675" lon="5.90393">
        <ele>1436.8276367188</ele>
        <time>2013-01-12T09:37:58Z</time>
      </trkpt>
      <trkpt lat="45.35671" lon="5.90401">
        <ele>1434.4243164062</ele>
        <time>2013-01-12T09:38:00Z</time>
      </trkpt>
      <trkpt lat="45.35665" lon="5.90409">
        <ele>1431.0598144531</ele>
        <time>2013-01-12T09:38:03Z</time>
      </trkpt>
      <trkpt lat="45.35665" lon="5.90408">
        <ele>1427.2145996094</ele>
        <time>2013-01-12T09:38:13Z</time>
      </trkpt>
      <trkpt lat="45.35661" lon="5.90416">
        <ele>1421.4465332031</ele>
        <time>2013-01-12T09:38:16Z</time>
      </trkpt>
      <trkpt lat="45.35658" lon="5.90417">
        <ele>1425.2917480469</ele>
        <time>2013-01-12T09:38:36Z</time>
      </trkpt>
      <trkpt lat="45.35658" lon="5.90417">
        <ele>1425.2917480469</ele>
        <time>2013-01-12T09:38:37Z</time>
      </trkpt>
      <trkpt lat="45.35657" lon="5.90417">
        <ele>1423.8498535156</ele>
        <time>2013-01-12T09:38:39Z</time>
      </trkpt>
      <trkpt lat="45.35655" lon="5.90423">
        <ele>1421.9272460938</ele>
        <time>2013-01-12T09:39:43Z</time>
      </trkpt>
      <trkpt lat="45.35644" lon="5.90427">
        <ele>1416.1591796875</ele>
        <time>2013-01-12T09:39:47Z</time>
      </trkpt>
      <trkpt lat="45.35643" lon="5.90429">
        <ele>1416.1591796875</ele>
        <time>2013-01-12T09:39:48Z</time>
      </trkpt>
      <trkpt lat="45.35636" lon="5.90432">
        <ele>1416.6398925781</ele>
        <time>2013-01-12T09:40:18Z</time>
      </trkpt>
      <trkpt lat="45.35641" lon="5.90438">
        <ele>1415.6787109375</ele>
        <time>2013-01-12T09:40:41Z</time>
      </trkpt>
      <trkpt lat="45.3564" lon="5.90437">
        <ele>1416.1591796875</ele>
        <time>2013-01-12T09:40:42Z</time>
      </trkpt>
      <trkpt lat="45.35634" lon="5.90439">
        <ele>1413.275390625</ele>
        <time>2013-01-12T09:40:45Z</time>
      </trkpt>
      <trkpt lat="45.35629" lon="5.90435">
        <ele>1412.3139648438</ele>
        <time>2013-01-12T09:40:47Z</time>
      </trkpt>
      <trkpt lat="45.35628" lon="5.90435">
        <ele>1408.9494628906</ele>
        <time>2013-01-12T09:40:58Z</time>
      </trkpt>
      <trkpt lat="45.35628" lon="5.90436">
        <ele>1409.4301757812</ele>
        <time>2013-01-12T09:40:59Z</time>
      </trkpt>
      <trkpt lat="45.35625" lon="5.90438">
        <ele>1407.5075683594</ele>
        <time>2013-01-12T09:41:13Z</time>
      </trkpt>
      <trkpt lat="45.35623" lon="5.90439">
        <ele>1409.4301757812</ele>
        <time>2013-01-12T09:41:37Z</time>
      </trkpt>
      <trkpt lat="45.35623" lon="5.9044">
        <ele>1406.0654296875</ele>
        <time>2013-01-12T09:41:40Z</time>
      </trkpt>
      <trkpt lat="45.35623" lon="5.9044">
        <ele>1405.5849609375</ele>
        <time>2013-01-12T09:41:41Z</time>
      </trkpt>
      <trkpt lat="45.35624" lon="5.9044">
        <ele>1409.4301757812</ele>
        <time>2013-01-12T09:41:42Z</time>
      </trkpt>
      <trkpt lat="45.35624" lon="5.9044">
        <ele>1407.98828125</ele>
        <time>2013-01-12T09:41:43Z</time>
      </trkpt>
      <trkpt lat="45.3562" lon="5.90438">
        <ele>1411.3527832031</ele>
        <time>2013-01-12T09:43:30Z</time>
      </trkpt>
      <trkpt lat="45.35619" lon="5.90435">
        <ele>1414.7172851562</ele>
        <time>2013-01-12T09:47:15Z</time>
      </trkpt>
      <trkpt lat="45.35619" lon="5.90435">
        <ele>1415.1979980469</ele>
        <time>2013-01-12T09:47:43Z</time>
      </trkpt>
      <trkpt lat="45.35621" lon="5.90434">
        <ele>1416.6398925781</ele>
        <time>2013-01-12T09:49:58Z</time>
      </trkpt>
      <trkpt lat="45.35621" lon="5.90434">
        <ele>1416.6398925781</ele>
        <time>2013-01-12T09:50:23Z</time>
      </trkpt>
      <trkpt lat="45.3562" lon="5.90434">
        <ele>1416.6398925781</ele>
        <time>2013-01-12T09:50:30Z</time>
      </trkpt>
      <trkpt lat="45.3562" lon="5.90431">
        <ele>1419.5239257812</ele>
        <time>2013-01-12T09:50:59Z</time>
      </trkpt>
      <trkpt lat="45.3562" lon="5.90431">
        <ele>1416.6398925781</ele>
        <time>2013-01-12T09:51:00Z</time>
      </trkpt>
      <trkpt lat="45.35619" lon="5.90427">
        <ele>1420.0046386719</ele>
        <time>2013-01-12T09:51:04Z</time>
      </trkpt>
      <trkpt lat="45.35616" lon="5.90424">
        <ele>1417.1206054688</ele>
        <time>2013-01-12T09:51:09Z</time>
      </trkpt>
      <trkpt lat="45.35615" lon="5.90422">
        <ele>1421.4465332031</ele>
        <time>2013-01-12T09:51:11Z</time>
      </trkpt>
      <trkpt lat="45.3561" lon="5.90416">
        <ele>1417.6010742188</ele>
        <time>2013-01-12T09:51:20Z</time>
      </trkpt>
      <trkpt lat="45.35609" lon="5.90416">
        <ele>1422.4079589844</ele>
        <time>2013-01-12T09:51:21Z</time>
      </trkpt>
      <trkpt lat="45.35609" lon="5.90415">
        <ele>1417.6010742188</ele>
        <time>2013-01-12T09:51:22Z</time>
      </trkpt>
      <trkpt lat="45.35608" lon="5.90416">
        <ele>1420.9660644531</ele>
        <time>2013-01-12T09:51:23Z</time>
      </trkpt>
      <trkpt lat="45.35604" lon="5.90401">
        <ele>1420.9660644531</ele>
        <time>2013-01-12T09:51:38Z</time>
      </trkpt>
      <trkpt lat="45.35598" lon="5.90396">
        <ele>1424.8112792969</ele>
        <time>2013-01-12T09:51:53Z</time>
      </trkpt>
      <trkpt lat="45.35598" lon="5.90395">
        <ele>1421.4465332031</ele>
        <time>2013-01-12T09:51:54Z</time>
      </trkpt>
      <trkpt lat="45.35595" lon="5.90392">
        <ele>1425.7724609375</ele>
        <time>2013-01-12T09:51:56Z</time>
      </trkpt>
      <trkpt lat="45.35594" lon="5.90391">
        <ele>1422.4079589844</ele>
        <time>2013-01-12T09:51:57Z</time>
      </trkpt>
      <trkpt lat="45.35593" lon="5.90391">
        <ele>1426.2531738281</ele>
        <time>2013-01-12T09:51:58Z</time>
      </trkpt>
      <trkpt lat="45.35593" lon="5.90391">
        <ele>1422.4079589844</ele>
        <time>2013-01-12T09:51:59Z</time>
      </trkpt>
      <trkpt lat="45.35591" lon="5.90391">
        <ele>1426.2531738281</ele>
        <time>2013-01-12T09:52:01Z</time>
      </trkpt>
      <trkpt lat="45.3559" lon="5.9039">
        <ele>1421.9272460938</ele>
        <time>2013-01-12T09:52:02Z</time>
      </trkpt>
      <trkpt lat="45.35589" lon="5.90389">
        <ele>1426.2531738281</ele>
        <time>2013-01-12T09:52:03Z</time>
      </trkpt>
      <trkpt lat="45.35589" lon="5.90388">
        <ele>1422.888671875</ele>
        <time>2013-01-12T09:52:04Z</time>
      </trkpt>
      <trkpt lat="45.35589" lon="5.90387">
        <ele>1425.7724609375</ele>
        <time>2013-01-12T09:52:05Z</time>
      </trkpt>
      <trkpt lat="45.35579" lon="5.90373">
        <ele>1427.6950683594</ele>
        <time>2013-01-12T09:52:22Z</time>
      </trkpt>
      <trkpt lat="45.35571" lon="5.9037">
        <ele>1428.6564941406</ele>
        <time>2013-01-12T09:52:29Z</time>
      </trkpt>
      <trkpt lat="45.35569" lon="5.90362">
        <ele>1432.0209960938</ele>
        <time>2013-01-12T09:52:46Z</time>
      </trkpt>
      <trkpt lat="45.35568" lon="5.90362">
        <ele>1428.6564941406</ele>
        <time>2013-01-12T09:52:47Z</time>
      </trkpt>
      <trkpt lat="45.35565" lon="5.90359">
        <ele>1431.5402832031</ele>
        <time>2013-01-12T09:52:50Z</time>
      </trkpt>
      <trkpt lat="45.35562" lon="5.90351">
        <ele>1434.9050292969</ele>
        <time>2013-01-12T09:52:58Z</time>
      </trkpt>
      <trkpt lat="45.35556" lon="5.90344">
        <ele>1434.4243164062</ele>
        <time>2013-01-12T09:53:12Z</time>
      </trkpt>
      <trkpt lat="45.35553" lon="5.90345">
        <ele>1436.8276367188</ele>
        <time>2013-01-12T09:53:16Z</time>
      </trkpt>
      <trkpt lat="45.35547" lon="5.90344">
        <ele>1440.1923828125</ele>
        <time>2013-01-12T09:53:24Z</time>
      </trkpt>
      <trkpt lat="45.35547" lon="5.90344">
        <ele>1436.8276367188</ele>
        <time>2013-01-12T09:53:25Z</time>
      </trkpt>
      <trkpt lat="45.35547" lon="5.90345">
        <ele>1440.6728515625</ele>
        <time>2013-01-12T09:53:26Z</time>
      </trkpt>
      <trkpt lat="45.35546" lon="5.90344">
        <ele>1437.3083496094</ele>
        <time>2013-01-12T09:53:27Z</time>
      </trkpt>
      <trkpt lat="45.35544" lon="5.90343">
        <ele>1441.1535644531</ele>
        <time>2013-01-12T09:53:29Z</time>
      </trkpt>
      <trkpt lat="45.35528" lon="5.90342">
        <ele>1444.5180664062</ele>
        <time>2013-01-12T09:53:48Z</time>
      </trkpt>
      <trkpt lat="45.35527" lon="5.90341">
        <ele>1443.5568847656</ele>
        <time>2013-01-12T09:53:49Z</time>
      </trkpt>
      <trkpt lat="45.35526" lon="5.90338">
        <ele>1444.9987792969</ele>
        <time>2013-01-12T09:53:54Z</time>
      </trkpt>
      <trkpt lat="45.35521" lon="5.90334">
        <ele>1446.9213867188</ele>
        <time>2013-01-12T09:54:03Z</time>
      </trkpt>
      <trkpt lat="45.35519" lon="5.90331">
        <ele>1450.7666015625</ele>
        <time>2013-01-12T09:54:13Z</time>
      </trkpt>
      <trkpt lat="45.35519" lon="5.9033">
        <ele>1446.4409179688</ele>
        <time>2013-01-12T09:54:14Z</time>
      </trkpt>
      <trkpt lat="45.35518" lon="5.9033">
        <ele>1449.8054199219</ele>
        <time>2013-01-12T09:54:15Z</time>
      </trkpt>
      <trkpt lat="45.35517" lon="5.90328">
        <ele>1450.2861328125</ele>
        <time>2013-01-12T09:54:17Z</time>
      </trkpt>
      <trkpt lat="45.35519" lon="5.90322">
        <ele>1453.6508789062</ele>
        <time>2013-01-12T09:54:25Z</time>
      </trkpt>
      <trkpt lat="45.35519" lon="5.90321">
        <ele>1457.0153808594</ele>
        <time>2013-01-12T09:54:46Z</time>
      </trkpt>
      <trkpt lat="45.35514" lon="5.90295">
        <ele>1460.3798828125</ele>
        <time>2013-01-12T09:55:04Z</time>
      </trkpt>
      <trkpt lat="45.35504" lon="5.90283">
        <ele>1462.783203125</ele>
        <time>2013-01-12T09:55:20Z</time>
      </trkpt>
      <trkpt lat="45.35495" lon="5.90286">
        <ele>1466.6284179688</ele>
        <time>2013-01-12T09:55:33Z</time>
      </trkpt>
      <trkpt lat="45.35495" lon="5.90286">
        <ele>1463.2639160156</ele>
        <time>2013-01-12T09:55:34Z</time>
      </trkpt>
      <trkpt lat="45.35495" lon="5.90286">
        <ele>1466.6284179688</ele>
        <time>2013-01-12T09:55:35Z</time>
      </trkpt>
      <trkpt lat="45.35491" lon="5.90291">
        <ele>1467.1091308594</ele>
        <time>2013-01-12T09:55:41Z</time>
      </trkpt>
      <trkpt lat="45.35483" lon="5.90296">
        <ele>1470.4738769531</ele>
        <time>2013-01-12T09:55:52Z</time>
      </trkpt>
      <trkpt lat="45.35483" lon="5.90296">
        <ele>1466.1477050781</ele>
        <time>2013-01-12T09:55:53Z</time>
      </trkpt>
      <trkpt lat="45.35482" lon="5.90296">
        <ele>1470.4738769531</ele>
        <time>2013-01-12T09:55:54Z</time>
      </trkpt>
      <trkpt lat="45.35482" lon="5.90295">
        <ele>1466.6284179688</ele>
        <time>2013-01-12T09:55:55Z</time>
      </trkpt>
      <trkpt lat="45.35481" lon="5.90294">
        <ele>1469.9931640625</ele>
        <time>2013-01-12T09:55:56Z</time>
      </trkpt>
      <trkpt lat="45.35476" lon="5.90293">
        <ele>1472.8771972656</ele>
        <time>2013-01-12T09:56:02Z</time>
      </trkpt>
      <trkpt lat="45.35476" lon="5.90293">
        <ele>1469.5126953125</ele>
        <time>2013-01-12T09:56:03Z</time>
      </trkpt>
      <trkpt lat="45.35474" lon="5.90291">
        <ele>1472.8771972656</ele>
        <time>2013-01-12T09:56:06Z</time>
      </trkpt>
      <trkpt lat="45.35474" lon="5.90291">
        <ele>1469.0319824219</ele>
        <time>2013-01-12T09:56:07Z</time>
      </trkpt>
      <trkpt lat="45.35474" lon="5.90291">
        <ele>1473.3579101562</ele>
        <time>2013-01-12T09:56:08Z</time>
      </trkpt>
      <trkpt lat="45.35473" lon="5.90291">
        <ele>1470.4738769531</ele>
        <time>2013-01-12T09:56:09Z</time>
      </trkpt>
      <trkpt lat="45.35474" lon="5.90289">
        <ele>1473.8383789062</ele>
        <time>2013-01-12T09:56:11Z</time>
      </trkpt>
      <trkpt lat="45.35472" lon="5.9027">
        <ele>1473.3579101562</ele>
        <time>2013-01-12T09:56:27Z</time>
      </trkpt>
      <trkpt lat="45.35472" lon="5.90269">
        <ele>1476.2416992188</ele>
        <time>2013-01-12T09:56:28Z</time>
      </trkpt>
      <trkpt lat="45.35471" lon="5.90263">
        <ele>1479.6062011719</ele>
        <time>2013-01-12T09:56:38Z</time>
      </trkpt>
      <trkpt lat="45.35472" lon="5.90246">
        <ele>1481.5288085938</ele>
        <time>2013-01-12T09:56:54Z</time>
      </trkpt>
      <trkpt lat="45.35471" lon="5.90244">
        <ele>1480.5676269531</ele>
        <time>2013-01-12T09:57:16Z</time>
      </trkpt>
      <trkpt lat="45.35472" lon="5.90242">
        <ele>1483.4514160156</ele>
        <time>2013-01-12T09:57:22Z</time>
      </trkpt>
      <trkpt lat="45.35473" lon="5.9024">
        <ele>1480.0869140625</ele>
        <time>2013-01-12T09:57:23Z</time>
      </trkpt>
      <trkpt lat="45.35473" lon="5.90237">
        <ele>1484.4130859375</ele>
        <time>2013-01-12T09:57:25Z</time>
      </trkpt>
      <trkpt lat="45.35473" lon="5.90234">
        <ele>1479.6062011719</ele>
        <time>2013-01-12T09:57:26Z</time>
      </trkpt>
      <trkpt lat="45.35474" lon="5.90232">
        <ele>1483.4514160156</ele>
        <time>2013-01-12T09:57:27Z</time>
      </trkpt>
      <trkpt lat="45.35476" lon="5.90223">
        <ele>1485.3742675781</ele>
        <time>2013-01-12T09:57:33Z</time>
      </trkpt>
      <trkpt lat="45.35478" lon="5.90215">
        <ele>1484.4130859375</ele>
        <time>2013-01-12T09:57:38Z</time>
      </trkpt>
      <trkpt lat="45.35482" lon="5.90197">
        <ele>1482.970703125</ele>
        <time>2013-01-12T09:57:50Z</time>
      </trkpt>
      <trkpt lat="45.35483" lon="5.90194">
        <ele>1487.7775878906</ele>
        <time>2013-01-12T09:57:53Z</time>
      </trkpt>
      <trkpt lat="45.35484" lon="5.90193">
        <ele>1484.4130859375</ele>
        <time>2013-01-12T09:57:54Z</time>
      </trkpt>
      <trkpt lat="45.35484" lon="5.90192">
        <ele>1487.7775878906</ele>
        <time>2013-01-12T09:57:55Z</time>
      </trkpt>
      <trkpt lat="45.35484" lon="5.90192">
        <ele>1483.9321289062</ele>
        <time>2013-01-12T09:57:56Z</time>
      </trkpt>
      <trkpt lat="45.35487" lon="5.90186">
        <ele>1487.7775878906</ele>
        <time>2013-01-12T09:58:01Z</time>
      </trkpt>
      <trkpt lat="45.35494" lon="5.90171">
        <ele>1485.8549804688</ele>
        <time>2013-01-12T09:58:15Z</time>
      </trkpt>
      <trkpt lat="45.35496" lon="5.90166">
        <ele>1490.6613769531</ele>
        <time>2013-01-12T09:58:20Z</time>
      </trkpt>
      <trkpt lat="45.35497" lon="5.90165">
        <ele>1486.8161621094</ele>
        <time>2013-01-12T09:58:21Z</time>
      </trkpt>
      <trkpt lat="45.355" lon="5.90163">
        <ele>1490.1809082031</ele>
        <time>2013-01-12T09:58:25Z</time>
      </trkpt>
      <trkpt lat="45.35511" lon="5.90156">
        <ele>1493.0646972656</ele>
        <time>2013-01-12T09:58:42Z</time>
      </trkpt>
      <trkpt lat="45.35521" lon="5.90157">
        <ele>1495.9487304688</ele>
        <time>2013-01-12T09:58:53Z</time>
      </trkpt>
      <trkpt lat="45.35521" lon="5.90158">
        <ele>1493.0646972656</ele>
        <time>2013-01-12T09:58:54Z</time>
      </trkpt>
      <trkpt lat="45.35525" lon="5.90163">
        <ele>1495.9487304688</ele>
        <time>2013-01-12T09:59:02Z</time>
      </trkpt>
      <trkpt lat="45.35535" lon="5.90164">
        <ele>1500.2749023438</ele>
        <time>2013-01-12T09:59:17Z</time>
      </trkpt>
      <trkpt lat="45.35536" lon="5.90164">
        <ele>1496.9099121094</ele>
        <time>2013-01-12T09:59:18Z</time>
      </trkpt>
      <trkpt lat="45.35536" lon="5.90165">
        <ele>1499.7939453125</ele>
        <time>2013-01-12T09:59:19Z</time>
      </trkpt>
      <trkpt lat="45.35545" lon="5.90167">
        <ele>1501.716796875</ele>
        <time>2013-01-12T09:59:35Z</time>
      </trkpt>
      <trkpt lat="45.35553" lon="5.90167">
        <ele>1504.6005859375</ele>
        <time>2013-01-12T09:59:46Z</time>
      </trkpt>
      <trkpt lat="45.35566" lon="5.90165">
        <ele>1508.9265136719</ele>
        <time>2013-01-12T10:00:02Z</time>
      </trkpt>
      <trkpt lat="45.35569" lon="5.90163">
        <ele>1505.5620117188</ele>
        <time>2013-01-12T10:00:07Z</time>
      </trkpt>
      <trkpt lat="45.35571" lon="5.90164">
        <ele>1509.8876953125</ele>
        <time>2013-01-12T10:00:10Z</time>
      </trkpt>
      <trkpt lat="45.35571" lon="5.90167">
        <ele>1506.5231933594</ele>
        <time>2013-01-12T10:00:11Z</time>
      </trkpt>
      <trkpt lat="45.35572" lon="5.90166">
        <ele>1510.8491210938</ele>
        <time>2013-01-12T10:00:13Z</time>
      </trkpt>
      <trkpt lat="45.35581" lon="5.90169">
        <ele>1510.8491210938</ele>
        <time>2013-01-12T10:00:30Z</time>
      </trkpt>
      <trkpt lat="45.35582" lon="5.90169">
        <ele>1514.2136230469</ele>
        <time>2013-01-12T10:00:32Z</time>
      </trkpt>
      <trkpt lat="45.35583" lon="5.90169">
        <ele>1513.2524414062</ele>
        <time>2013-01-12T10:00:33Z</time>
      </trkpt>
      <trkpt lat="45.35585" lon="5.90169">
        <ele>1514.2136230469</ele>
        <time>2013-01-12T10:00:37Z</time>
      </trkpt>
      <trkpt lat="45.3559" lon="5.90169">
        <ele>1517.0979003906</ele>
        <time>2013-01-12T10:00:50Z</time>
      </trkpt>
      <trkpt lat="45.35603" lon="5.90164">
        <ele>1517.0979003906</ele>
        <time>2013-01-12T10:01:07Z</time>
      </trkpt>
      <trkpt lat="45.35604" lon="5.90162">
        <ele>1520.4624023438</ele>
        <time>2013-01-12T10:01:15Z</time>
      </trkpt>
      <trkpt lat="45.35604" lon="5.90162">
        <ele>1516.6171875</ele>
        <time>2013-01-12T10:01:16Z</time>
      </trkpt>
      <trkpt lat="45.35606" lon="5.90161">
        <ele>1521.4235839844</ele>
        <time>2013-01-12T10:01:18Z</time>
      </trkpt>
      <trkpt lat="45.35607" lon="5.9016">
        <ele>1520.4624023438</ele>
        <time>2013-01-12T10:01:19Z</time>
      </trkpt>
      <trkpt lat="45.35621" lon="5.90156">
        <ele>1522.8657226562</ele>
        <time>2013-01-12T10:01:36Z</time>
      </trkpt>
      <trkpt lat="45.35621" lon="5.90157">
        <ele>1523.8269042969</ele>
        <time>2013-01-12T10:01:38Z</time>
      </trkpt>
      <trkpt lat="45.35624" lon="5.9016">
        <ele>1527.1916503906</ele>
        <time>2013-01-12T10:01:52Z</time>
      </trkpt>
      <trkpt lat="45.35631" lon="5.90159">
        <ele>1527.1916503906</ele>
        <time>2013-01-12T10:02:09Z</time>
      </trkpt>
      <trkpt lat="45.35635" lon="5.90157">
        <ele>1531.5173339844</ele>
        <time>2013-01-12T10:02:20Z</time>
      </trkpt>
      <trkpt lat="45.35643" lon="5.90157">
        <ele>1534.4016113281</ele>
        <time>2013-01-12T10:02:39Z</time>
      </trkpt>
      <trkpt lat="45.35652" lon="5.90156">
        <ele>1537.2854003906</ele>
        <time>2013-01-12T10:02:56Z</time>
      </trkpt>
      <trkpt lat="45.35662" lon="5.90153">
        <ele>1540.6499023438</ele>
        <time>2013-01-12T10:03:11Z</time>
      </trkpt>
      <trkpt lat="45.35665" lon="5.90154">
        <ele>1537.2854003906</ele>
        <time>2013-01-12T10:03:16Z</time>
      </trkpt>
      <trkpt lat="45.35666" lon="5.90155">
        <ele>1541.611328125</ele>
        <time>2013-01-12T10:03:18Z</time>
      </trkpt>
      <trkpt lat="45.35673" lon="5.90155">
        <ele>1543.0532226562</ele>
        <time>2013-01-12T10:03:28Z</time>
      </trkpt>
      <trkpt lat="45.35677" lon="5.90157">
        <ele>1547.8598632812</ele>
        <time>2013-01-12T10:03:40Z</time>
      </trkpt>
      <trkpt lat="45.35678" lon="5.90152">
        <ele>1547.3791503906</ele>
        <time>2013-01-12T10:03:57Z</time>
      </trkpt>
      <trkpt lat="45.35676" lon="5.90145">
        <ele>1550.2634277344</ele>
        <time>2013-01-12T10:04:01Z</time>
      </trkpt>
      <trkpt lat="45.35676" lon="5.90142">
        <ele>1548.3405761719</ele>
        <time>2013-01-12T10:04:04Z</time>
      </trkpt>
      <trkpt lat="45.35673" lon="5.90134">
        <ele>1551.7053222656</ele>
        <time>2013-01-12T10:04:18Z</time>
      </trkpt>
      <trkpt lat="45.3567" lon="5.90127">
        <ele>1554.5891113281</ele>
        <time>2013-01-12T10:04:29Z</time>
      </trkpt>
      <trkpt lat="45.35666" lon="5.90118">
        <ele>1558.4343261719</ele>
        <time>2013-01-12T10:04:41Z</time>
      </trkpt>
      <trkpt lat="45.35665" lon="5.90116">
        <ele>1555.0698242188</ele>
        <time>2013-01-12T10:04:43Z</time>
      </trkpt>
      <trkpt lat="45.35665" lon="5.90114">
        <ele>1557.9538574219</ele>
        <time>2013-01-12T10:04:45Z</time>
      </trkpt>
      <trkpt lat="45.35661" lon="5.90105">
        <ele>1561.7990722656</ele>
        <time>2013-01-12T10:05:05Z</time>
      </trkpt>
      <trkpt lat="45.35658" lon="5.90102">
        <ele>1558.4343261719</ele>
        <time>2013-01-12T10:05:10Z</time>
      </trkpt>
      <trkpt lat="45.35658" lon="5.901">
        <ele>1562.2795410156</ele>
        <time>2013-01-12T10:05:11Z</time>
      </trkpt>
      <trkpt lat="45.35658" lon="5.90099">
        <ele>1559.3957519531</ele>
        <time>2013-01-12T10:05:12Z</time>
      </trkpt>
      <trkpt lat="45.35657" lon="5.90093">
        <ele>1562.2795410156</ele>
        <time>2013-01-12T10:05:17Z</time>
      </trkpt>
      <trkpt lat="45.35652" lon="5.90086">
        <ele>1566.125</ele>
        <time>2013-01-12T10:05:28Z</time>
      </trkpt>
      <trkpt lat="45.35643" lon="5.90073">
        <ele>1567.5668945312</ele>
        <time>2013-01-12T10:05:43Z</time>
      </trkpt>
      <trkpt lat="45.35635" lon="5.90054">
        <ele>1571.412109375</ele>
        <time>2013-01-12T10:06:04Z</time>
      </trkpt>
      <trkpt lat="45.35632" lon="5.90046">
        <ele>1574.2961425781</ele>
        <time>2013-01-12T10:06:15Z</time>
      </trkpt>
      <trkpt lat="45.35626" lon="5.90034">
        <ele>1574.7768554688</ele>
        <time>2013-01-12T10:06:30Z</time>
      </trkpt>
      <trkpt lat="45.35624" lon="5.90025">
        <ele>1576.6994628906</ele>
        <time>2013-01-12T10:06:37Z</time>
      </trkpt>
      <trkpt lat="45.35621" lon="5.90012">
        <ele>1579.5832519531</ele>
        <time>2013-01-12T10:06:55Z</time>
      </trkpt>
      <trkpt lat="45.35621" lon="5.90007">
        <ele>1582.4675292969</ele>
        <time>2013-01-12T10:07:03Z</time>
      </trkpt>
      <trkpt lat="45.35619" lon="5.90004">
        <ele>1578.6220703125</ele>
        <time>2013-01-12T10:07:04Z</time>
      </trkpt>
      <trkpt lat="45.35619" lon="5.90003">
        <ele>1581.5061035156</ele>
        <time>2013-01-12T10:07:05Z</time>
      </trkpt>
      <trkpt lat="45.35618" lon="5.89989">
        <ele>1584.8708496094</ele>
        <time>2013-01-12T10:07:20Z</time>
      </trkpt>
      <trkpt lat="45.35618" lon="5.89983">
        <ele>1588.7160644531</ele>
        <time>2013-01-12T10:07:32Z</time>
      </trkpt>
      <trkpt lat="45.35618" lon="5.89983">
        <ele>1585.3513183594</ele>
        <time>2013-01-12T10:07:33Z</time>
      </trkpt>
      <trkpt lat="45.35617" lon="5.89978">
        <ele>1589.6772460938</ele>
        <time>2013-01-12T10:07:37Z</time>
      </trkpt>
      <trkpt lat="45.35617" lon="5.89973">
        <ele>1593.0417480469</ele>
        <time>2013-01-12T10:07:48Z</time>
      </trkpt>
      <trkpt lat="45.35617" lon="5.89973">
        <ele>1591.5998535156</ele>
        <time>2013-01-12T10:07:49Z</time>
      </trkpt>
      <trkpt lat="45.3562" lon="5.89968">
        <ele>1595.4450683594</ele>
        <time>2013-01-12T10:08:01Z</time>
      </trkpt>
      <trkpt lat="45.35622" lon="5.89944">
        <ele>1595.92578125</ele>
        <time>2013-01-12T10:08:18Z</time>
      </trkpt>
      <trkpt lat="45.35628" lon="5.89942">
        <ele>1600.251953125</ele>
        <time>2013-01-12T10:08:47Z</time>
      </trkpt>
      <trkpt lat="45.35631" lon="5.89938">
        <ele>1601.2131347656</ele>
        <time>2013-01-12T10:09:05Z</time>
      </trkpt>
      <trkpt lat="45.35632" lon="5.8992">
        <ele>1604.0971679688</ele>
        <time>2013-01-12T10:09:20Z</time>
      </trkpt>
      <trkpt lat="45.35633" lon="5.89918">
        <ele>1606.9809570312</ele>
        <time>2013-01-12T10:09:28Z</time>
      </trkpt>
      <trkpt lat="45.35642" lon="5.89906">
        <ele>1610.3454589844</ele>
        <time>2013-01-12T10:09:42Z</time>
      </trkpt>
      <trkpt lat="45.35642" lon="5.89904">
        <ele>1606.9809570312</ele>
        <time>2013-01-12T10:09:47Z</time>
      </trkpt>
      <trkpt lat="45.35642" lon="5.899">
        <ele>1610.3454589844</ele>
        <time>2013-01-12T10:09:50Z</time>
      </trkpt>
      <trkpt lat="45.35641" lon="5.89892">
        <ele>1613.2297363281</ele>
        <time>2013-01-12T10:10:03Z</time>
      </trkpt>
      <trkpt lat="45.35642" lon="5.8989">
        <ele>1610.3454589844</ele>
        <time>2013-01-12T10:10:04Z</time>
      </trkpt>
      <trkpt lat="45.35642" lon="5.89888">
        <ele>1614.6716308594</ele>
        <time>2013-01-12T10:10:06Z</time>
      </trkpt>
      <trkpt lat="45.35641" lon="5.89887">
        <ele>1611.3068847656</ele>
        <time>2013-01-12T10:10:07Z</time>
      </trkpt>
      <trkpt lat="45.35641" lon="5.89886">
        <ele>1614.6716308594</ele>
        <time>2013-01-12T10:10:08Z</time>
      </trkpt>
      <trkpt lat="45.35643" lon="5.8988">
        <ele>1611.3068847656</ele>
        <time>2013-01-12T10:10:11Z</time>
      </trkpt>
      <trkpt lat="45.35643" lon="5.89879">
        <ele>1615.6330566406</ele>
        <time>2013-01-12T10:10:12Z</time>
      </trkpt>
      <trkpt lat="45.35643" lon="5.89878">
        <ele>1612.2683105469</ele>
        <time>2013-01-12T10:10:13Z</time>
      </trkpt>
      <trkpt lat="45.35641" lon="5.89873">
        <ele>1616.5942382812</ele>
        <time>2013-01-12T10:10:19Z</time>
      </trkpt>
      <trkpt lat="45.35633" lon="5.89856">
        <ele>1617.5554199219</ele>
        <time>2013-01-12T10:10:35Z</time>
      </trkpt>
      <trkpt lat="45.35629" lon="5.89849">
        <ele>1617.0749511719</ele>
        <time>2013-01-12T10:11:11Z</time>
      </trkpt>
      <trkpt lat="45.35629" lon="5.89843">
        <ele>1620.9201660156</ele>
        <time>2013-01-12T10:11:15Z</time>
      </trkpt>
      <trkpt lat="45.35629" lon="5.8984">
        <ele>1620.9201660156</ele>
        <time>2013-01-12T10:11:17Z</time>
      </trkpt>
      <trkpt lat="45.35628" lon="5.89839">
        <ele>1617.5554199219</ele>
        <time>2013-01-12T10:11:18Z</time>
      </trkpt>
      <trkpt lat="45.35628" lon="5.89836">
        <ele>1621.8813476562</ele>
        <time>2013-01-12T10:11:20Z</time>
      </trkpt>
      <trkpt lat="45.35627" lon="5.89835">
        <ele>1618.0361328125</ele>
        <time>2013-01-12T10:11:21Z</time>
      </trkpt>
      <trkpt lat="45.35627" lon="5.89835">
        <ele>1622.3620605469</ele>
        <time>2013-01-12T10:11:22Z</time>
      </trkpt>
      <trkpt lat="45.35625" lon="5.89836">
        <ele>1618.0361328125</ele>
        <time>2013-01-12T10:11:23Z</time>
      </trkpt>
      <trkpt lat="45.35623" lon="5.89834">
        <ele>1621.8813476562</ele>
        <time>2013-01-12T10:11:25Z</time>
      </trkpt>
      <trkpt lat="45.35623" lon="5.89834">
        <ele>1618.5168457031</ele>
        <time>2013-01-12T10:11:26Z</time>
      </trkpt>
      <trkpt lat="45.35622" lon="5.89833">
        <ele>1622.3620605469</ele>
        <time>2013-01-12T10:11:27Z</time>
      </trkpt>
      <trkpt lat="45.35622" lon="5.89833">
        <ele>1618.9975585938</ele>
        <time>2013-01-12T10:11:28Z</time>
      </trkpt>
      <trkpt lat="45.35622" lon="5.89831">
        <ele>1623.3234863281</ele>
        <time>2013-01-12T10:11:30Z</time>
      </trkpt>
      <trkpt lat="45.35633" lon="5.89837">
        <ele>1624.2846679688</ele>
        <time>2013-01-12T10:11:45Z</time>
      </trkpt>
      <trkpt lat="45.35639" lon="5.89832">
        <ele>1627.6491699219</ele>
        <time>2013-01-12T10:11:53Z</time>
      </trkpt>
      <trkpt lat="45.35639" lon="5.89832">
        <ele>1624.2846679688</ele>
        <time>2013-01-12T10:11:54Z</time>
      </trkpt>
      <trkpt lat="45.3564" lon="5.89833">
        <ele>1628.1301269531</ele>
        <time>2013-01-12T10:11:57Z</time>
      </trkpt>
      <trkpt lat="45.35644" lon="5.89827">
        <ele>1629.5720214844</ele>
        <time>2013-01-12T10:12:13Z</time>
      </trkpt>
      <trkpt lat="45.35644" lon="5.89827">
        <ele>1632.9365234375</ele>
        <time>2013-01-12T10:12:20Z</time>
      </trkpt>
      <trkpt lat="45.35637" lon="5.89823">
        <ele>1629.5720214844</ele>
        <time>2013-01-12T10:12:21Z</time>
      </trkpt>
      <trkpt lat="45.35636" lon="5.89821">
        <ele>1633.4172363281</ele>
        <time>2013-01-12T10:12:22Z</time>
      </trkpt>
      <trkpt lat="45.35628" lon="5.89809">
        <ele>1634.859375</ele>
        <time>2013-01-12T10:12:32Z</time>
      </trkpt>
      <trkpt lat="45.35625" lon="5.89799">
        <ele>1638.2238769531</ele>
        <time>2013-01-12T10:12:44Z</time>
      </trkpt>
      <trkpt lat="45.35624" lon="5.89793">
        <ele>1638.7045898438</ele>
        <time>2013-01-12T10:12:57Z</time>
      </trkpt>
      <trkpt lat="45.35625" lon="5.89791">
        <ele>1642.0690917969</ele>
        <time>2013-01-12T10:13:15Z</time>
      </trkpt>
      <trkpt lat="45.35619" lon="5.8977">
        <ele>1641.1076660156</ele>
        <time>2013-01-12T10:13:32Z</time>
      </trkpt>
      <trkpt lat="45.35621" lon="5.89758">
        <ele>1644.953125</ele>
        <time>2013-01-12T10:13:46Z</time>
      </trkpt>
      <trkpt lat="45.35623" lon="5.89757">
        <ele>1646.3952636719</ele>
        <time>2013-01-12T10:13:59Z</time>
      </trkpt>
      <trkpt lat="45.3562" lon="5.89745">
        <ele>1650.2404785156</ele>
        <time>2013-01-12T10:14:16Z</time>
      </trkpt>
      <trkpt lat="45.35616" lon="5.89737">
        <ele>1653.6049804688</ele>
        <time>2013-01-12T10:14:28Z</time>
      </trkpt>
      <trkpt lat="45.35614" lon="5.89724">
        <ele>1655.5275878906</ele>
        <time>2013-01-12T10:14:39Z</time>
      </trkpt>
      <trkpt lat="45.35613" lon="5.89709">
        <ele>1660.3342285156</ele>
        <time>2013-01-12T10:14:53Z</time>
      </trkpt>
      <trkpt lat="45.35611" lon="5.89708">
        <ele>1656.4887695312</ele>
        <time>2013-01-12T10:14:54Z</time>
      </trkpt>
      <trkpt lat="45.35611" lon="5.89707">
        <ele>1660.3342285156</ele>
        <time>2013-01-12T10:14:55Z</time>
      </trkpt>
      <trkpt lat="45.35612" lon="5.89704">
        <ele>1664.1794433594</ele>
        <time>2013-01-12T10:15:09Z</time>
      </trkpt>
      <trkpt lat="45.35612" lon="5.89704">
        <ele>1660.8149414062</ele>
        <time>2013-01-12T10:15:10Z</time>
      </trkpt>
      <trkpt lat="45.35613" lon="5.89702">
        <ele>1663.6987304688</ele>
        <time>2013-01-12T10:15:13Z</time>
      </trkpt>
      <trkpt lat="45.35612" lon="5.89695">
        <ele>1665.6215820312</ele>
        <time>2013-01-12T10:15:19Z</time>
      </trkpt>
      <trkpt lat="45.35612" lon="5.89691">
        <ele>1667.0634765625</ele>
        <time>2013-01-12T10:15:32Z</time>
      </trkpt>
      <trkpt lat="45.35615" lon="5.89691">
        <ele>1670.4279785156</ele>
        <time>2013-01-12T10:16:26Z</time>
      </trkpt>
      <trkpt lat="45.35616" lon="5.89673">
        <ele>1672.3505859375</ele>
        <time>2013-01-12T10:16:48Z</time>
      </trkpt>
      <trkpt lat="45.35618" lon="5.89666">
        <ele>1675.234375</ele>
        <time>2013-01-12T10:16:57Z</time>
      </trkpt>
      <trkpt lat="45.35619" lon="5.89661">
        <ele>1675.7150878906</ele>
        <time>2013-01-12T10:17:01Z</time>
      </trkpt>
      <trkpt lat="45.35619" lon="5.89659">
        <ele>1675.7150878906</ele>
        <time>2013-01-12T10:17:03Z</time>
      </trkpt>
      <trkpt lat="45.35619" lon="5.89656">
        <ele>1676.6767578125</ele>
        <time>2013-01-12T10:17:05Z</time>
      </trkpt>
      <trkpt lat="45.35617" lon="5.89654">
        <ele>1680.0412597656</ele>
        <time>2013-01-12T10:17:16Z</time>
      </trkpt>
      <trkpt lat="45.35612" lon="5.89641">
        <ele>1682.4445800781</ele>
        <time>2013-01-12T10:17:34Z</time>
      </trkpt>
      <trkpt lat="45.35618" lon="5.89638">
        <ele>1683.4057617188</ele>
        <time>2013-01-12T10:17:50Z</time>
      </trkpt>
      <trkpt lat="45.35621" lon="5.89638">
        <ele>1681.9638671875</ele>
        <time>2013-01-12T10:18:09Z</time>
      </trkpt>
      <trkpt lat="45.35627" lon="5.89639">
        <ele>1686.2897949219</ele>
        <time>2013-01-12T10:18:17Z</time>
      </trkpt>
      <trkpt lat="45.35632" lon="5.89645">
        <ele>1690.6154785156</ele>
        <time>2013-01-12T10:18:27Z</time>
      </trkpt>
      <trkpt lat="45.35635" lon="5.89654">
        <ele>1691.5769042969</ele>
        <time>2013-01-12T10:18:44Z</time>
      </trkpt>
      <trkpt lat="45.35636" lon="5.89654">
        <ele>1695.9030761719</ele>
        <time>2013-01-12T10:18:47Z</time>
      </trkpt>
      <trkpt lat="45.35636" lon="5.89653">
        <ele>1691.5769042969</ele>
        <time>2013-01-12T10:18:48Z</time>
      </trkpt>
      <trkpt lat="45.35637" lon="5.89653">
        <ele>1693.0190429688</ele>
        <time>2013-01-12T10:18:52Z</time>
      </trkpt>
      <trkpt lat="45.35641" lon="5.89654">
        <ele>1694.4609375</ele>
        <time>2013-01-12T10:19:18Z</time>
      </trkpt>
      <trkpt lat="45.35643" lon="5.89655">
        <ele>1698.3061523438</ele>
        <time>2013-01-12T10:19:23Z</time>
      </trkpt>
      <trkpt lat="45.35651" lon="5.89654">
        <ele>1701.1901855469</ele>
        <time>2013-01-12T10:19:39Z</time>
      </trkpt>
      <trkpt lat="45.35651" lon="5.89654">
        <ele>1698.3061523438</ele>
        <time>2013-01-12T10:19:40Z</time>
      </trkpt>
      <trkpt lat="45.3565" lon="5.89649">
        <ele>1702.6320800781</ele>
        <time>2013-01-12T10:19:46Z</time>
      </trkpt>
      <trkpt lat="45.35647" lon="5.89637">
        <ele>1703.5935058594</ele>
        <time>2013-01-12T10:19:56Z</time>
      </trkpt>
      <trkpt lat="45.35644" lon="5.89634">
        <ele>1707.4387207031</ele>
        <time>2013-01-12T10:20:07Z</time>
      </trkpt>
      <trkpt lat="45.35656" lon="5.89637">
        <ele>1708.4001464844</ele>
        <time>2013-01-12T10:20:36Z</time>
      </trkpt>
      <trkpt lat="45.35657" lon="5.89646">
        <ele>1711.7648925781</ele>
        <time>2013-01-12T10:20:45Z</time>
      </trkpt>
      <trkpt lat="45.35651" lon="5.89621">
        <ele>1715.6101074219</ele>
        <time>2013-01-12T10:21:00Z</time>
      </trkpt>
      <trkpt lat="45.35643" lon="5.89599">
        <ele>1715.6101074219</ele>
        <time>2013-01-12T10:21:19Z</time>
      </trkpt>
      <trkpt lat="45.35643" lon="5.89597">
        <ele>1718.974609375</ele>
        <time>2013-01-12T10:21:20Z</time>
      </trkpt>
      <trkpt lat="45.35642" lon="5.89595">
        <ele>1715.6101074219</ele>
        <time>2013-01-12T10:21:21Z</time>
      </trkpt>
      <trkpt lat="45.35642" lon="5.89594">
        <ele>1719.4553222656</ele>
        <time>2013-01-12T10:21:23Z</time>
      </trkpt>
      <trkpt lat="45.35634" lon="5.8959">
        <ele>1721.3776855469</ele>
        <time>2013-01-12T10:21:39Z</time>
      </trkpt>
      <trkpt lat="45.35632" lon="5.8958">
        <ele>1723.7810058594</ele>
        <time>2013-01-12T10:21:50Z</time>
      </trkpt>
      <trkpt lat="45.35631" lon="5.89579">
        <ele>1724.7426757812</ele>
        <time>2013-01-12T10:22:09Z</time>
      </trkpt>
      <trkpt lat="45.35637" lon="5.89583">
        <ele>1728.587890625</ele>
        <time>2013-01-12T10:22:30Z</time>
      </trkpt>
      <trkpt lat="45.35645" lon="5.89581">
        <ele>1730.5104980469</ele>
        <time>2013-01-12T10:22:55Z</time>
      </trkpt>
      <trkpt lat="45.35653" lon="5.89584">
        <ele>1733.875</ele>
        <time>2013-01-12T10:23:07Z</time>
      </trkpt>
      <trkpt lat="45.35655" lon="5.89584">
        <ele>1733.3942871094</ele>
        <time>2013-01-12T10:23:08Z</time>
      </trkpt>
      <trkpt lat="45.35658" lon="5.89583">
        <ele>1734.8364257812</ele>
        <time>2013-01-12T10:23:25Z</time>
      </trkpt>
      <trkpt lat="45.35657" lon="5.89575">
        <ele>1734.8364257812</ele>
        <time>2013-01-12T10:23:38Z</time>
      </trkpt>
      <trkpt lat="45.35658" lon="5.89574">
        <ele>1738.681640625</ele>
        <time>2013-01-12T10:23:40Z</time>
      </trkpt>
      <trkpt lat="45.3566" lon="5.89575">
        <ele>1738.681640625</ele>
        <time>2013-01-12T10:23:47Z</time>
      </trkpt>
      <trkpt lat="45.35658" lon="5.89573">
        <ele>1741.5656738281</ele>
        <time>2013-01-12T10:24:01Z</time>
      </trkpt>
      <trkpt lat="45.35658" lon="5.89573">
        <ele>1738.681640625</ele>
        <time>2013-01-12T10:24:02Z</time>
      </trkpt>
      <trkpt lat="45.35658" lon="5.89573">
        <ele>1741.5656738281</ele>
        <time>2013-01-12T10:24:04Z</time>
      </trkpt>
      <trkpt lat="45.35656" lon="5.89564">
        <ele>1741.5656738281</ele>
        <time>2013-01-12T10:24:05Z</time>
      </trkpt>
      <trkpt lat="45.35655" lon="5.89557">
        <ele>1744.4494628906</ele>
        <time>2013-01-12T10:24:14Z</time>
      </trkpt>
      <trkpt lat="45.35657" lon="5.89551">
        <ele>1744.9301757812</ele>
        <time>2013-01-12T10:24:32Z</time>
      </trkpt>
      <trkpt lat="45.35662" lon="5.89552">
        <ele>1746.3723144531</ele>
        <time>2013-01-12T10:24:38Z</time>
      </trkpt>
      <trkpt lat="45.3567" lon="5.89559">
        <ele>1749.2561035156</ele>
        <time>2013-01-12T10:24:55Z</time>
      </trkpt>
      <trkpt lat="45.3567" lon="5.89562">
        <ele>1752.6206054688</ele>
        <time>2013-01-12T10:25:04Z</time>
      </trkpt>
      <trkpt lat="45.35675" lon="5.89556">
        <ele>1752.6206054688</ele>
        <time>2013-01-12T10:25:16Z</time>
      </trkpt>
      <trkpt lat="45.35677" lon="5.89555">
        <ele>1756.4660644531</ele>
        <time>2013-01-12T10:25:32Z</time>
      </trkpt>
      <trkpt lat="45.35684" lon="5.8956">
        <ele>1760.3112792969</ele>
        <time>2013-01-12T10:25:48Z</time>
      </trkpt>
      <trkpt lat="45.35685" lon="5.89557">
        <ele>1756.9467773438</ele>
        <time>2013-01-12T10:25:51Z</time>
      </trkpt>
      <trkpt lat="45.35685" lon="5.89558">
        <ele>1760.7919921875</ele>
        <time>2013-01-12T10:25:52Z</time>
      </trkpt>
      <trkpt lat="45.35686" lon="5.89557">
        <ele>1757.908203125</ele>
        <time>2013-01-12T10:25:55Z</time>
      </trkpt>
      <trkpt lat="45.35687" lon="5.89559">
        <ele>1762.2338867188</ele>
        <time>2013-01-12T10:25:56Z</time>
      </trkpt>
      <trkpt lat="45.35688" lon="5.89562">
        <ele>1759.3500976562</ele>
        <time>2013-01-12T10:25:59Z</time>
      </trkpt>
      <trkpt lat="45.35691" lon="5.89561">
        <ele>1763.1953125</ele>
        <time>2013-01-12T10:26:02Z</time>
      </trkpt>
      <trkpt lat="45.35696" lon="5.89569">
        <ele>1762.7145996094</ele>
        <time>2013-01-12T10:26:23Z</time>
      </trkpt>
      <trkpt lat="45.35693" lon="5.89572">
        <ele>1762.7145996094</ele>
        <time>2013-01-12T10:26:44Z</time>
      </trkpt>
      <trkpt lat="45.35694" lon="5.89566">
        <ele>1765.5986328125</ele>
        <time>2013-01-12T10:27:06Z</time>
      </trkpt>
      <trkpt lat="45.35696" lon="5.89566">
        <ele>1768.482421875</ele>
        <time>2013-01-12T10:27:18Z</time>
      </trkpt>
      <trkpt lat="45.35685" lon="5.89539">
        <ele>1771.8469238281</ele>
        <time>2013-01-12T10:27:34Z</time>
      </trkpt>
      <trkpt lat="45.35684" lon="5.89535">
        <ele>1768.482421875</ele>
        <time>2013-01-12T10:27:35Z</time>
      </trkpt>
      <trkpt lat="45.35685" lon="5.89535">
        <ele>1770.4050292969</ele>
        <time>2013-01-12T10:27:36Z</time>
      </trkpt>
      <trkpt lat="45.35684" lon="5.89526">
        <ele>1772.80859375</ele>
        <time>2013-01-12T10:27:38Z</time>
      </trkpt>
      <trkpt lat="45.35692" lon="5.89522">
        <ele>1775.6923828125</ele>
        <time>2013-01-12T10:27:57Z</time>
      </trkpt>
      <trkpt lat="45.35701" lon="5.89536">
        <ele>1776.6538085938</ele>
        <time>2013-01-12T10:28:19Z</time>
      </trkpt>
      <trkpt lat="45.35705" lon="5.89542">
        <ele>1780.0183105469</ele>
        <time>2013-01-12T10:28:49Z</time>
      </trkpt>
      <trkpt lat="45.35706" lon="5.89541">
        <ele>1776.6538085938</ele>
        <time>2013-01-12T10:28:50Z</time>
      </trkpt>
      <trkpt lat="45.35708" lon="5.89545">
        <ele>1780.9797363281</ele>
        <time>2013-01-12T10:28:53Z</time>
      </trkpt>
      <trkpt lat="45.35712" lon="5.89556">
        <ele>1784.3442382812</ele>
        <time>2013-01-12T10:29:08Z</time>
      </trkpt>
      <trkpt lat="45.35714" lon="5.89553">
        <ele>1787.2280273438</ele>
        <time>2013-01-12T10:29:41Z</time>
      </trkpt>
      <trkpt lat="45.35722" lon="5.8954">
        <ele>1788.1896972656</ele>
        <time>2013-01-12T10:30:04Z</time>
      </trkpt>
      <trkpt lat="45.3573" lon="5.89546">
        <ele>1791.0734863281</ele>
        <time>2013-01-12T10:30:13Z</time>
      </trkpt>
      <trkpt lat="45.35732" lon="5.89549">
        <ele>1792.0349121094</ele>
        <time>2013-01-12T10:30:15Z</time>
      </trkpt>
      <trkpt lat="45.35729" lon="5.89549">
        <ele>1787.2280273438</ele>
        <time>2013-01-12T10:30:16Z</time>
      </trkpt>
      <trkpt lat="45.3573" lon="5.8955">
        <ele>1791.0734863281</ele>
        <time>2013-01-12T10:30:17Z</time>
      </trkpt>
      <trkpt lat="45.35737" lon="5.89566">
        <ele>1793.9575195312</ele>
        <time>2013-01-12T10:30:26Z</time>
      </trkpt>
      <trkpt lat="45.35738" lon="5.89568">
        <ele>1791.0734863281</ele>
        <time>2013-01-12T10:30:27Z</time>
      </trkpt>
      <trkpt lat="45.35741" lon="5.89572">
        <ele>1794.4379882812</ele>
        <time>2013-01-12T10:30:30Z</time>
      </trkpt>
      <trkpt lat="45.35741" lon="5.89573">
        <ele>1791.0734863281</ele>
        <time>2013-01-12T10:30:31Z</time>
      </trkpt>
      <trkpt lat="45.35739" lon="5.8956">
        <ele>1794.4379882812</ele>
        <time>2013-01-12T10:30:35Z</time>
      </trkpt>
      <trkpt lat="45.35743" lon="5.89558">
        <ele>1798.283203125</ele>
        <time>2013-01-12T10:30:49Z</time>
      </trkpt>
      <trkpt lat="45.35743" lon="5.89559">
        <ele>1794.9187011719</ele>
        <time>2013-01-12T10:30:50Z</time>
      </trkpt>
      <trkpt lat="45.35742" lon="5.8956">
        <ele>1798.283203125</ele>
        <time>2013-01-12T10:30:51Z</time>
      </trkpt>
      <trkpt lat="45.35743" lon="5.89569">
        <ele>1795.3994140625</ele>
        <time>2013-01-12T10:31:08Z</time>
      </trkpt>
      <trkpt lat="45.35746" lon="5.89575">
        <ele>1800.2060546875</ele>
        <time>2013-01-12T10:31:12Z</time>
      </trkpt>
      <trkpt lat="45.35746" lon="5.89578">
        <ele>1798.7639160156</ele>
        <time>2013-01-12T10:31:16Z</time>
      </trkpt>
      <trkpt lat="45.35745" lon="5.89586">
        <ele>1800.2060546875</ele>
        <time>2013-01-12T10:31:21Z</time>
      </trkpt>
      <trkpt lat="45.35749" lon="5.89605">
        <ele>1799.2446289062</ele>
        <time>2013-01-12T10:31:32Z</time>
      </trkpt>
      <trkpt lat="45.35749" lon="5.89606">
        <ele>1802.6091308594</ele>
        <time>2013-01-12T10:31:33Z</time>
      </trkpt>
      <trkpt lat="45.35748" lon="5.89607">
        <ele>1798.7639160156</ele>
        <time>2013-01-12T10:31:34Z</time>
      </trkpt>
      <trkpt lat="45.35748" lon="5.89611">
        <ele>1803.5705566406</ele>
        <time>2013-01-12T10:31:36Z</time>
      </trkpt>
      <trkpt lat="45.35749" lon="5.89612">
        <ele>1800.2060546875</ele>
        <time>2013-01-12T10:31:37Z</time>
      </trkpt>
      <trkpt lat="45.35747" lon="5.89614">
        <ele>1803.5705566406</ele>
        <time>2013-01-12T10:31:38Z</time>
      </trkpt>
      <trkpt lat="45.35749" lon="5.89633">
        <ele>1804.0515136719</ele>
        <time>2013-01-12T10:31:54Z</time>
      </trkpt>
      <trkpt lat="45.35748" lon="5.8964">
        <ele>1807.416015625</ele>
        <time>2013-01-12T10:32:06Z</time>
      </trkpt>
      <trkpt lat="45.35748" lon="5.89641">
        <ele>1803.5705566406</ele>
        <time>2013-01-12T10:32:07Z</time>
      </trkpt>
      <trkpt lat="45.35747" lon="5.89644">
        <ele>1808.3771972656</ele>
        <time>2013-01-12T10:32:09Z</time>
      </trkpt>
      <trkpt lat="45.35746" lon="5.89645">
        <ele>1805.4934082031</ele>
        <time>2013-01-12T10:32:12Z</time>
      </trkpt>
      <trkpt lat="45.35748" lon="5.89647">
        <ele>1809.3386230469</ele>
        <time>2013-01-12T10:32:16Z</time>
      </trkpt>
      <trkpt lat="45.35749" lon="5.89649">
        <ele>1805.9738769531</ele>
        <time>2013-01-12T10:32:17Z</time>
      </trkpt>
      <trkpt lat="45.35749" lon="5.89658">
        <ele>1809.8190917969</ele>
        <time>2013-01-12T10:32:25Z</time>
      </trkpt>
      <trkpt lat="45.35745" lon="5.89678">
        <ele>1811.7419433594</ele>
        <time>2013-01-12T10:32:41Z</time>
      </trkpt>
      <trkpt lat="45.35742" lon="5.89698">
        <ele>1811.7419433594</ele>
        <time>2013-01-12T10:33:06Z</time>
      </trkpt>
      <trkpt lat="45.35742" lon="5.89699">
        <ele>1815.1064453125</ele>
        <time>2013-01-12T10:33:17Z</time>
      </trkpt>
      <trkpt lat="45.35741" lon="5.89722">
        <ele>1816.0676269531</ele>
        <time>2013-01-12T10:33:34Z</time>
      </trkpt>
      <trkpt lat="45.35744" lon="5.89744">
        <ele>1819.9128417969</ele>
        <time>2013-01-12T10:33:47Z</time>
      </trkpt>
      <trkpt lat="45.35744" lon="5.89753">
        <ele>1817.0290527344</ele>
        <time>2013-01-12T10:33:51Z</time>
      </trkpt>
      <trkpt lat="45.35744" lon="5.89756">
        <ele>1816.5483398438</ele>
        <time>2013-01-12T10:33:52Z</time>
      </trkpt>
      <trkpt lat="45.35746" lon="5.89759">
        <ele>1819.9128417969</ele>
        <time>2013-01-12T10:33:56Z</time>
      </trkpt>
      <trkpt lat="45.35747" lon="5.8976">
        <ele>1816.0676269531</ele>
        <time>2013-01-12T10:33:57Z</time>
      </trkpt>
      <trkpt lat="45.35748" lon="5.89761">
        <ele>1819.9128417969</ele>
        <time>2013-01-12T10:33:58Z</time>
      </trkpt>
      <trkpt lat="45.35746" lon="5.89768">
        <ele>1817.0290527344</ele>
        <time>2013-01-12T10:33:59Z</time>
      </trkpt>
      <trkpt lat="45.35747" lon="5.89768">
        <ele>1819.9128417969</ele>
        <time>2013-01-12T10:34:00Z</time>
      </trkpt>
      <trkpt lat="45.35748" lon="5.8977">
        <ele>1819.9128417969</ele>
        <time>2013-01-12T10:34:03Z</time>
      </trkpt>
      <trkpt lat="45.3575" lon="5.89771">
        <ele>1819.9128417969</ele>
        <time>2013-01-12T10:34:05Z</time>
      </trkpt>
      <trkpt lat="45.35753" lon="5.89775">
        <ele>1819.4323730469</ele>
        <time>2013-01-12T10:34:09Z</time>
      </trkpt>
      <trkpt lat="45.35755" lon="5.89778">
        <ele>1820.8745117188</ele>
        <time>2013-01-12T10:34:11Z</time>
      </trkpt>
      <trkpt lat="45.35756" lon="5.8978">
        <ele>1820.3937988281</ele>
        <time>2013-01-12T10:34:13Z</time>
      </trkpt>
      <trkpt lat="45.35756" lon="5.89793">
        <ele>1819.4323730469</ele>
        <time>2013-01-12T10:34:17Z</time>
      </trkpt>
      <trkpt lat="45.35766" lon="5.89806">
        <ele>1822.31640625</ele>
        <time>2013-01-12T10:34:31Z</time>
      </trkpt>
      <trkpt lat="45.35772" lon="5.89807">
        <ele>1821.3549804688</ele>
        <time>2013-01-12T10:34:46Z</time>
      </trkpt>
      <trkpt lat="45.35778" lon="5.89807">
        <ele>1820.3937988281</ele>
        <time>2013-01-12T10:34:51Z</time>
      </trkpt>
      <trkpt lat="45.35782" lon="5.89806">
        <ele>1818.9516601562</ele>
        <time>2013-01-12T10:34:56Z</time>
      </trkpt>
      <trkpt lat="45.35788" lon="5.89787">
        <ele>1817.0290527344</ele>
        <time>2013-01-12T10:35:09Z</time>
      </trkpt>
      <trkpt lat="45.35793" lon="5.8978">
        <ele>1813.6643066406</ele>
        <time>2013-01-12T10:35:20Z</time>
      </trkpt>
      <trkpt lat="45.35793" lon="5.8978">
        <ele>1813.6643066406</ele>
        <time>2013-01-12T10:35:41Z</time>
      </trkpt>
      <trkpt lat="45.35803" lon="5.89776">
        <ele>1814.1450195312</ele>
        <time>2013-01-12T10:38:01Z</time>
      </trkpt>
      <trkpt lat="45.35804" lon="5.89774">
        <ele>1816.5483398438</ele>
        <time>2013-01-12T10:38:49Z</time>
      </trkpt>
      <trkpt lat="45.35814" lon="5.8977">
        <ele>1817.5095214844</ele>
        <time>2013-01-12T10:38:57Z</time>
      </trkpt>
      <trkpt lat="45.35814" lon="5.89769">
        <ele>1815.5871582031</ele>
        <time>2013-01-12T10:39:00Z</time>
      </trkpt>
      <trkpt lat="45.35809" lon="5.89758">
        <ele>1817.0290527344</ele>
        <time>2013-01-12T10:39:18Z</time>
      </trkpt>
      <trkpt lat="45.35809" lon="5.8975">
        <ele>1820.3937988281</ele>
        <time>2013-01-12T10:39:36Z</time>
      </trkpt>
      <trkpt lat="45.35807" lon="5.89741">
        <ele>1823.7583007812</ele>
        <time>2013-01-12T10:39:48Z</time>
      </trkpt>
      <trkpt lat="45.35807" lon="5.8974">
        <ele>1820.3937988281</ele>
        <time>2013-01-12T10:39:49Z</time>
      </trkpt>
      <trkpt lat="45.35805" lon="5.8974">
        <ele>1823.7583007812</ele>
        <time>2013-01-12T10:39:51Z</time>
      </trkpt>
      <trkpt lat="45.35808" lon="5.89734">
        <ele>1824.7197265625</ele>
        <time>2013-01-12T10:40:05Z</time>
      </trkpt>
      <trkpt lat="45.35807" lon="5.89733">
        <ele>1828.5649414062</ele>
        <time>2013-01-12T10:40:12Z</time>
      </trkpt>
      <trkpt lat="45.358" lon="5.89728">
        <ele>1830.9682617188</ele>
        <time>2013-01-12T10:40:29Z</time>
      </trkpt>
      <trkpt lat="45.358" lon="5.89719">
        <ele>1835.2939453125</ele>
        <time>2013-01-12T10:41:26Z</time>
      </trkpt>
      <trkpt lat="45.35799" lon="5.89719">
        <ele>1831.9294433594</ele>
        <time>2013-01-12T10:41:27Z</time>
      </trkpt>
      <trkpt lat="45.35799" lon="5.89719">
        <ele>1834.8134765625</ele>
        <time>2013-01-12T10:41:28Z</time>
      </trkpt>
      <trkpt lat="45.35797" lon="5.89709">
        <ele>1838.6589355469</ele>
        <time>2013-01-12T10:41:39Z</time>
      </trkpt>
      <trkpt lat="45.35798" lon="5.89708">
        <ele>1835.2939453125</ele>
        <time>2013-01-12T10:41:40Z</time>
      </trkpt>
      <trkpt lat="45.358" lon="5.89706">
        <ele>1839.1394042969</ele>
        <time>2013-01-12T10:41:42Z</time>
      </trkpt>
      <trkpt lat="45.35799" lon="5.89705">
        <ele>1838.6589355469</ele>
        <time>2013-01-12T10:41:43Z</time>
      </trkpt>
      <trkpt lat="45.35801" lon="5.89701">
        <ele>1839.1394042969</ele>
        <time>2013-01-12T10:41:47Z</time>
      </trkpt>
      <trkpt lat="45.35795" lon="5.89699">
        <ele>1842.5041503906</ele>
        <time>2013-01-12T10:41:52Z</time>
      </trkpt>
      <trkpt lat="45.35796" lon="5.897">
        <ele>1841.0620117188</ele>
        <time>2013-01-12T10:42:17Z</time>
      </trkpt>
      <trkpt lat="45.35799" lon="5.8969">
        <ele>1840.1008300781</ele>
        <time>2013-01-12T10:42:43Z</time>
      </trkpt>
      <trkpt lat="45.358" lon="5.8969">
        <ele>1837.216796875</ele>
        <time>2013-01-12T10:43:36Z</time>
      </trkpt>
      <trkpt lat="45.35801" lon="5.8969">
        <ele>1840.5812988281</ele>
        <time>2013-01-12T10:43:55Z</time>
      </trkpt>
      <trkpt lat="45.35801" lon="5.8969">
        <ele>1837.6975097656</ele>
        <time>2013-01-12T10:46:14Z</time>
      </trkpt>
      <trkpt lat="45.35802" lon="5.89689">
        <ele>1837.6975097656</ele>
        <time>2013-01-12T10:48:06Z</time>
      </trkpt>
      <trkpt lat="45.35802" lon="5.89689">
        <ele>1838.1782226562</ele>
        <time>2013-01-12T10:48:32Z</time>
      </trkpt>
      <trkpt lat="45.35802" lon="5.89689">
        <ele>1836.7360839844</ele>
        <time>2013-01-12T10:48:42Z</time>
      </trkpt>
      <trkpt lat="45.35803" lon="5.89689">
        <ele>1835.7746582031</ele>
        <time>2013-01-12T10:49:43Z</time>
      </trkpt>
      <trkpt lat="45.35803" lon="5.89689">
        <ele>1842.5041503906</ele>
        <time>2013-01-12T10:49:45Z</time>
      </trkpt>
      <trkpt lat="45.35803" lon="5.89689">
        <ele>1837.6975097656</ele>
        <time>2013-01-12T10:49:46Z</time>
      </trkpt>
      <trkpt lat="45.35803" lon="5.89689">
        <ele>1833.8520507812</ele>
        <time>2013-01-12T10:50:44Z</time>
      </trkpt>
      <trkpt lat="45.35804" lon="5.89685">
        <ele>1834.8134765625</ele>
        <time>2013-01-12T10:50:45Z</time>
      </trkpt>
      <trkpt lat="45.3581" lon="5.89672">
        <ele>1828.5649414062</ele>
        <time>2013-01-12T10:50:47Z</time>
      </trkpt>
      <trkpt lat="45.35812" lon="5.89665">
        <ele>1829.0454101562</ele>
        <time>2013-01-12T10:50:48Z</time>
      </trkpt>
      <trkpt lat="45.35815" lon="5.8966">
        <ele>1824.7197265625</ele>
        <time>2013-01-12T10:50:49Z</time>
      </trkpt>
      <trkpt lat="45.35819" lon="5.89654">
        <ele>1824.7197265625</ele>
        <time>2013-01-12T10:50:50Z</time>
      </trkpt>
      <trkpt lat="45.3582" lon="5.89646">
        <ele>1819.9128417969</ele>
        <time>2013-01-12T10:50:51Z</time>
      </trkpt>
      <trkpt lat="45.35822" lon="5.89637">
        <ele>1823.2778320312</ele>
        <time>2013-01-12T10:50:52Z</time>
      </trkpt>
      <trkpt lat="45.35824" lon="5.89628">
        <ele>1816.0676269531</ele>
        <time>2013-01-12T10:50:56Z</time>
      </trkpt>
      <trkpt lat="45.35823" lon="5.89617">
        <ele>1810.2998046875</ele>
        <time>2013-01-12T10:50:59Z</time>
      </trkpt>
      <trkpt lat="45.35822" lon="5.8961">
        <ele>1810.7805175781</ele>
        <time>2013-01-12T10:51:00Z</time>
      </trkpt>
      <trkpt lat="45.35823" lon="5.89604">
        <ele>1806.9353027344</ele>
        <time>2013-01-12T10:51:01Z</time>
      </trkpt>
      <trkpt lat="45.35826" lon="5.89595">
        <ele>1802.1284179688</ele>
        <time>2013-01-12T10:51:02Z</time>
      </trkpt>
      <trkpt lat="45.35826" lon="5.89586">
        <ele>1799.2446289062</ele>
        <time>2013-01-12T10:51:03Z</time>
      </trkpt>
      <trkpt lat="45.3583" lon="5.89566">
        <ele>1791.5541992188</ele>
        <time>2013-01-12T10:51:06Z</time>
      </trkpt>
      <trkpt lat="45.35834" lon="5.89555">
        <ele>1787.2280273438</ele>
        <time>2013-01-12T10:51:07Z</time>
      </trkpt>
      <trkpt lat="45.35835" lon="5.89546">
        <ele>1786.7473144531</ele>
        <time>2013-01-12T10:51:08Z</time>
      </trkpt>
      <trkpt lat="45.35844" lon="5.89537">
        <ele>1778.095703125</ele>
        <time>2013-01-12T10:51:10Z</time>
      </trkpt>
      <trkpt lat="45.35843" lon="5.89538">
        <ele>1773.2893066406</ele>
        <time>2013-01-12T10:51:12Z</time>
      </trkpt>
      <trkpt lat="45.35843" lon="5.8954">
        <ele>1781.4602050781</ele>
        <time>2013-01-12T10:51:13Z</time>
      </trkpt>
      <trkpt lat="45.35842" lon="5.89541">
        <ele>1778.095703125</ele>
        <time>2013-01-12T10:51:14Z</time>
      </trkpt>
      <trkpt lat="45.35841" lon="5.89541">
        <ele>1777.1345214844</ele>
        <time>2013-01-12T10:51:16Z</time>
      </trkpt>
      <trkpt lat="45.35845" lon="5.89486">
        <ele>1773.2893066406</ele>
        <time>2013-01-12T10:51:24Z</time>
      </trkpt>
      <trkpt lat="45.35847" lon="5.89449">
        <ele>1758.8693847656</ele>
        <time>2013-01-12T10:51:27Z</time>
      </trkpt>
      <trkpt lat="45.35847" lon="5.89437">
        <ele>1754.0627441406</ele>
        <time>2013-01-12T10:51:28Z</time>
      </trkpt>
      <trkpt lat="45.35848" lon="5.89423">
        <ele>1754.0627441406</ele>
        <time>2013-01-12T10:51:29Z</time>
      </trkpt>
      <trkpt lat="45.35849" lon="5.89411">
        <ele>1749.7368164062</ele>
        <time>2013-01-12T10:51:30Z</time>
      </trkpt>
      <trkpt lat="45.35849" lon="5.89397">
        <ele>1749.7368164062</ele>
        <time>2013-01-12T10:51:31Z</time>
      </trkpt>
      <trkpt lat="45.3585" lon="5.89385">
        <ele>1744.4494628906</ele>
        <time>2013-01-12T10:51:32Z</time>
      </trkpt>
      <trkpt lat="45.3585" lon="5.89365">
        <ele>1740.1237792969</ele>
        <time>2013-01-12T10:51:34Z</time>
      </trkpt>
      <trkpt lat="45.35851" lon="5.89345">
        <ele>1737.2395019531</ele>
        <time>2013-01-12T10:51:36Z</time>
      </trkpt>
      <trkpt lat="45.3585" lon="5.89337">
        <ele>1734.3557128906</ele>
        <time>2013-01-12T10:51:37Z</time>
      </trkpt>
      <trkpt lat="45.35851" lon="5.89318">
        <ele>1731.9523925781</ele>
        <time>2013-01-12T10:51:39Z</time>
      </trkpt>
      <trkpt lat="45.35852" lon="5.89302">
        <ele>1727.6264648438</ele>
        <time>2013-01-12T10:51:41Z</time>
      </trkpt>
      <trkpt lat="45.35848" lon="5.89281">
        <ele>1723.7810058594</ele>
        <time>2013-01-12T10:51:44Z</time>
      </trkpt>
      <trkpt lat="45.35844" lon="5.89251">
        <ele>1719.9357910156</ele>
        <time>2013-01-12T10:51:48Z</time>
      </trkpt>
      <trkpt lat="45.35841" lon="5.8923">
        <ele>1716.5712890625</ele>
        <time>2013-01-12T10:51:51Z</time>
      </trkpt>
      <trkpt lat="45.35839" lon="5.89208">
        <ele>1713.2067871094</ele>
        <time>2013-01-12T10:51:54Z</time>
      </trkpt>
      <trkpt lat="45.35839" lon="5.89201">
        <ele>1713.2067871094</ele>
        <time>2013-01-12T10:51:55Z</time>
      </trkpt>
      <trkpt lat="45.35838" lon="5.89181">
        <ele>1711.2841796875</ele>
        <time>2013-01-12T10:51:58Z</time>
      </trkpt>
      <trkpt lat="45.35836" lon="5.89165">
        <ele>1709.3615722656</ele>
        <time>2013-01-12T10:52:07Z</time>
      </trkpt>
      <trkpt lat="45.35832" lon="5.89147">
        <ele>1708.4001464844</ele>
        <time>2013-01-12T10:52:26Z</time>
      </trkpt>
      <trkpt lat="45.35827" lon="5.89131">
        <ele>1705.5161132812</ele>
        <time>2013-01-12T10:52:31Z</time>
      </trkpt>
      <trkpt lat="45.35817" lon="5.89093">
        <ele>1701.6708984375</ele>
        <time>2013-01-12T10:52:43Z</time>
      </trkpt>
      <trkpt lat="45.35818" lon="5.8908">
        <ele>1702.6320800781</ele>
        <time>2013-01-12T10:52:49Z</time>
      </trkpt>
      <trkpt lat="45.35818" lon="5.89072">
        <ele>1701.1901855469</ele>
        <time>2013-01-12T10:52:51Z</time>
      </trkpt>
      <trkpt lat="45.35818" lon="5.89066">
        <ele>1699.7482910156</ele>
        <time>2013-01-12T10:52:53Z</time>
      </trkpt>
      <trkpt lat="45.35817" lon="5.89057">
        <ele>1698.7868652344</ele>
        <time>2013-01-12T10:53:05Z</time>
      </trkpt>
      <trkpt lat="45.35818" lon="5.89057">
        <ele>1698.7868652344</ele>
        <time>2013-01-12T10:58:54Z</time>
      </trkpt>
      <trkpt lat="45.35816" lon="5.89054">
        <ele>1699.7482910156</ele>
        <time>2013-01-12T10:59:01Z</time>
      </trkpt>
      <trkpt lat="45.35814" lon="5.89052">
        <ele>1700.2290039062</ele>
        <time>2013-01-12T10:59:03Z</time>
      </trkpt>
      <trkpt lat="45.35809" lon="5.89043">
        <ele>1699.7482910156</ele>
        <time>2013-01-12T10:59:17Z</time>
      </trkpt>
      <trkpt lat="45.35799" lon="5.89024">
        <ele>1700.2290039062</ele>
        <time>2013-01-12T10:59:33Z</time>
      </trkpt>
      <trkpt lat="45.35795" lon="5.89018">
        <ele>1697.3449707031</ele>
        <time>2013-01-12T10:59:36Z</time>
      </trkpt>
      <trkpt lat="45.3579" lon="5.89008">
        <ele>1698.7868652344</ele>
        <time>2013-01-12T10:59:48Z</time>
      </trkpt>
      <trkpt lat="45.3579" lon="5.89009">
        <ele>1694.9416503906</ele>
        <time>2013-01-12T11:02:11Z</time>
      </trkpt>
      <trkpt lat="45.35789" lon="5.89008">
        <ele>1698.3061523438</ele>
        <time>2013-01-12T11:02:12Z</time>
      </trkpt>
      <trkpt lat="45.35787" lon="5.89006">
        <ele>1695.4223632812</ele>
        <time>2013-01-12T11:02:14Z</time>
      </trkpt>
      <trkpt lat="45.35786" lon="5.89002">
        <ele>1698.7868652344</ele>
        <time>2013-01-12T11:02:16Z</time>
      </trkpt>
      <trkpt lat="45.35785" lon="5.89001">
        <ele>1698.7868652344</ele>
        <time>2013-01-12T11:02:17Z</time>
      </trkpt>
      <trkpt lat="45.35784" lon="5.88998">
        <ele>1699.267578125</ele>
        <time>2013-01-12T11:02:19Z</time>
      </trkpt>
      <trkpt lat="45.35779" lon="5.8899">
        <ele>1696.8642578125</ele>
        <time>2013-01-12T11:02:25Z</time>
      </trkpt>
      <trkpt lat="45.35777" lon="5.88987">
        <ele>1701.6708984375</ele>
        <time>2013-01-12T11:02:27Z</time>
      </trkpt>
      <trkpt lat="45.35776" lon="5.88986">
        <ele>1697.3449707031</ele>
        <time>2013-01-12T11:02:28Z</time>
      </trkpt>
      <trkpt lat="45.35775" lon="5.88984">
        <ele>1701.1901855469</ele>
        <time>2013-01-12T11:02:30Z</time>
      </trkpt>
      <trkpt lat="45.35771" lon="5.88976">
        <ele>1697.3449707031</ele>
        <time>2013-01-12T11:02:35Z</time>
      </trkpt>
      <trkpt lat="45.3577" lon="5.88974">
        <ele>1701.6708984375</ele>
        <time>2013-01-12T11:02:36Z</time>
      </trkpt>
      <trkpt lat="45.35768" lon="5.8897">
        <ele>1698.7868652344</ele>
        <time>2013-01-12T11:02:38Z</time>
      </trkpt>
      <trkpt lat="45.35767" lon="5.88968">
        <ele>1700.7094726562</ele>
        <time>2013-01-12T11:02:39Z</time>
      </trkpt>
      <trkpt lat="45.35763" lon="5.88962">
        <ele>1702.1513671875</ele>
        <time>2013-01-12T11:02:44Z</time>
      </trkpt>
      <trkpt lat="45.35757" lon="5.88955">
        <ele>1698.3061523438</ele>
        <time>2013-01-12T11:02:50Z</time>
      </trkpt>
      <trkpt lat="45.35755" lon="5.88954">
        <ele>1703.1127929688</ele>
        <time>2013-01-12T11:02:52Z</time>
      </trkpt>
      <trkpt lat="45.35755" lon="5.88953">
        <ele>1703.1127929688</ele>
        <time>2013-01-12T11:02:53Z</time>
      </trkpt>
      <trkpt lat="45.35755" lon="5.88953">
        <ele>1699.7482910156</ele>
        <time>2013-01-12T11:02:54Z</time>
      </trkpt>
      <trkpt lat="45.35752" lon="5.88949">
        <ele>1703.1127929688</ele>
        <time>2013-01-12T11:02:58Z</time>
      </trkpt>
      <trkpt lat="45.35751" lon="5.88949">
        <ele>1699.267578125</ele>
        <time>2013-01-12T11:02:59Z</time>
      </trkpt>
      <trkpt lat="45.35749" lon="5.88947">
        <ele>1703.5935058594</ele>
        <time>2013-01-12T11:03:01Z</time>
      </trkpt>
      <trkpt lat="45.35748" lon="5.88946">
        <ele>1703.5935058594</ele>
        <time>2013-01-12T11:03:02Z</time>
      </trkpt>
      <trkpt lat="45.35739" lon="5.88932">
        <ele>1699.267578125</ele>
        <time>2013-01-12T11:03:12Z</time>
      </trkpt>
      <trkpt lat="45.35738" lon="5.88931">
        <ele>1702.1513671875</ele>
        <time>2013-01-12T11:03:13Z</time>
      </trkpt>
      <trkpt lat="45.35737" lon="5.8893">
        <ele>1698.7868652344</ele>
        <time>2013-01-12T11:03:14Z</time>
      </trkpt>
      <trkpt lat="45.35732" lon="5.88923">
        <ele>1702.1513671875</ele>
        <time>2013-01-12T11:03:18Z</time>
      </trkpt>
      <trkpt lat="45.3573" lon="5.88921">
        <ele>1698.3061523438</ele>
        <time>2013-01-12T11:03:20Z</time>
      </trkpt>
      <trkpt lat="45.35729" lon="5.88921">
        <ele>1700.2290039062</ele>
        <time>2013-01-12T11:03:21Z</time>
      </trkpt>
      <trkpt lat="45.35724" lon="5.88915">
        <ele>1703.5935058594</ele>
        <time>2013-01-12T11:03:28Z</time>
      </trkpt>
      <trkpt lat="45.35722" lon="5.88912">
        <ele>1698.3061523438</ele>
        <time>2013-01-12T11:03:30Z</time>
      </trkpt>
      <trkpt lat="45.35719" lon="5.88909">
        <ele>1702.1513671875</ele>
        <time>2013-01-12T11:03:32Z</time>
      </trkpt>
      <trkpt lat="45.35715" lon="5.88905">
        <ele>1702.1513671875</ele>
        <time>2013-01-12T11:03:37Z</time>
      </trkpt>
      <trkpt lat="45.3571" lon="5.889">
        <ele>1699.267578125</ele>
        <time>2013-01-12T11:03:42Z</time>
      </trkpt>
      <trkpt lat="45.35705" lon="5.88893">
        <ele>1704.07421875</ele>
        <time>2013-01-12T11:03:47Z</time>
      </trkpt>
      <trkpt lat="45.35702" lon="5.8889">
        <ele>1700.7094726562</ele>
        <time>2013-01-12T11:03:51Z</time>
      </trkpt>
      <trkpt lat="45.35699" lon="5.88886">
        <ele>1705.0354003906</ele>
        <time>2013-01-12T11:03:54Z</time>
      </trkpt>
      <trkpt lat="45.35697" lon="5.88885">
        <ele>1701.6708984375</ele>
        <time>2013-01-12T11:03:55Z</time>
      </trkpt>
      <trkpt lat="45.35691" lon="5.88879">
        <ele>1701.1901855469</ele>
        <time>2013-01-12T11:04:02Z</time>
      </trkpt>
      <trkpt lat="45.3569" lon="5.88879">
        <ele>1704.5546875</ele>
        <time>2013-01-12T11:04:03Z</time>
      </trkpt>
      <trkpt lat="45.35689" lon="5.88878">
        <ele>1702.1513671875</ele>
        <time>2013-01-12T11:04:04Z</time>
      </trkpt>
      <trkpt lat="45.35682" lon="5.88868">
        <ele>1703.1127929688</ele>
        <time>2013-01-12T11:04:12Z</time>
      </trkpt>
      <trkpt lat="45.35679" lon="5.88864">
        <ele>1701.1901855469</ele>
        <time>2013-01-12T11:04:16Z</time>
      </trkpt>
      <trkpt lat="45.35677" lon="5.88863">
        <ele>1702.1513671875</ele>
        <time>2013-01-12T11:04:18Z</time>
      </trkpt>
      <trkpt lat="45.35673" lon="5.88857">
        <ele>1705.5161132812</ele>
        <time>2013-01-12T11:04:22Z</time>
      </trkpt>
      <trkpt lat="45.3567" lon="5.88854">
        <ele>1701.6708984375</ele>
        <time>2013-01-12T11:04:24Z</time>
      </trkpt>
      <trkpt lat="45.3567" lon="5.88853">
        <ele>1701.6708984375</ele>
        <time>2013-01-12T11:04:25Z</time>
      </trkpt>
      <trkpt lat="45.35659" lon="5.8884">
        <ele>1700.2290039062</ele>
        <time>2013-01-12T11:04:36Z</time>
      </trkpt>
      <trkpt lat="45.35649" lon="5.88829">
        <ele>1698.3061523438</ele>
        <time>2013-01-12T11:04:46Z</time>
      </trkpt>
      <trkpt lat="45.35647" lon="5.88828">
        <ele>1702.1513671875</ele>
        <time>2013-01-12T11:04:48Z</time>
      </trkpt>
      <trkpt lat="45.35646" lon="5.88828">
        <ele>1701.6708984375</ele>
        <time>2013-01-12T11:04:49Z</time>
      </trkpt>
      <trkpt lat="45.35645" lon="5.88827">
        <ele>1701.1901855469</ele>
        <time>2013-01-12T11:04:51Z</time>
      </trkpt>
      <trkpt lat="45.35641" lon="5.8882">
        <ele>1698.7868652344</ele>
        <time>2013-01-12T11:04:55Z</time>
      </trkpt>
      <trkpt lat="45.3563" lon="5.888">
        <ele>1696.3837890625</ele>
        <time>2013-01-12T11:05:06Z</time>
      </trkpt>
      <trkpt lat="45.35628" lon="5.88797">
        <ele>1700.2290039062</ele>
        <time>2013-01-12T11:05:08Z</time>
      </trkpt>
      <trkpt lat="45.35623" lon="5.88789">
        <ele>1695.4223632812</ele>
        <time>2013-01-12T11:05:12Z</time>
      </trkpt>
      <trkpt lat="45.35622" lon="5.88788">
        <ele>1698.3061523438</ele>
        <time>2013-01-12T11:05:13Z</time>
      </trkpt>
      <trkpt lat="45.35617" lon="5.88784">
        <ele>1699.267578125</ele>
        <time>2013-01-12T11:05:17Z</time>
      </trkpt>
      <trkpt lat="45.35616" lon="5.88783">
        <ele>1697.8256835938</ele>
        <time>2013-01-12T11:05:19Z</time>
      </trkpt>
      <trkpt lat="45.35615" lon="5.88782">
        <ele>1696.8642578125</ele>
        <time>2013-01-12T11:05:20Z</time>
      </trkpt>
      <trkpt lat="45.3561" lon="5.88777">
        <ele>1702.1513671875</ele>
        <time>2013-01-12T11:05:25Z</time>
      </trkpt>
      <trkpt lat="45.35598" lon="5.88775">
        <ele>1699.267578125</ele>
        <time>2013-01-12T11:05:37Z</time>
      </trkpt>
      <trkpt lat="45.35598" lon="5.88774">
        <ele>1697.3449707031</ele>
        <time>2013-01-12T11:05:38Z</time>
      </trkpt>
      <trkpt lat="45.35597" lon="5.88768">
        <ele>1700.7094726562</ele>
        <time>2013-01-12T11:05:42Z</time>
      </trkpt>
      <trkpt lat="45.35596" lon="5.88766">
        <ele>1697.8256835938</ele>
        <time>2013-01-12T11:05:43Z</time>
      </trkpt>
      <trkpt lat="45.35593" lon="5.88753">
        <ele>1701.1901855469</ele>
        <time>2013-01-12T11:05:53Z</time>
      </trkpt>
      <trkpt lat="45.35592" lon="5.88751">
        <ele>1700.7094726562</ele>
        <time>2013-01-12T11:05:54Z</time>
      </trkpt>
      <trkpt lat="45.35591" lon="5.88746">
        <ele>1699.7482910156</ele>
        <time>2013-01-12T11:05:56Z</time>
      </trkpt>
      <trkpt lat="45.3559" lon="5.88745">
        <ele>1695.9030761719</ele>
        <time>2013-01-12T11:05:57Z</time>
      </trkpt>
      <trkpt lat="45.35589" lon="5.88743">
        <ele>1699.267578125</ele>
        <time>2013-01-12T11:05:58Z</time>
      </trkpt>
      <trkpt lat="45.35578" lon="5.88726">
        <ele>1698.7868652344</ele>
        <time>2013-01-12T11:06:10Z</time>
      </trkpt>
      <trkpt lat="45.35576" lon="5.88723">
        <ele>1697.3449707031</ele>
        <time>2013-01-12T11:06:13Z</time>
      </trkpt>
      <trkpt lat="45.35575" lon="5.8872">
        <ele>1698.3061523438</ele>
        <time>2013-01-12T11:06:31Z</time>
      </trkpt>
      <trkpt lat="45.35568" lon="5.88711">
        <ele>1699.267578125</ele>
        <time>2013-01-12T11:06:58Z</time>
      </trkpt>
      <trkpt lat="45.35567" lon="5.88709">
        <ele>1697.3449707031</ele>
        <time>2013-01-12T11:06:59Z</time>
      </trkpt>
      <trkpt lat="45.35565" lon="5.88705">
        <ele>1695.4223632812</ele>
        <time>2013-01-12T11:07:01Z</time>
      </trkpt>
      <trkpt lat="45.35563" lon="5.88702">
        <ele>1699.7482910156</ele>
        <time>2013-01-12T11:07:03Z</time>
      </trkpt>
      <trkpt lat="45.35552" lon="5.88676">
        <ele>1692.5385742188</ele>
        <time>2013-01-12T11:07:15Z</time>
      </trkpt>
      <trkpt lat="45.3555" lon="5.88672">
        <ele>1699.267578125</ele>
        <time>2013-01-12T11:07:17Z</time>
      </trkpt>
      <trkpt lat="45.35549" lon="5.8867">
        <ele>1694.4609375</ele>
        <time>2013-01-12T11:07:18Z</time>
      </trkpt>
      <trkpt lat="45.35547" lon="5.88665">
        <ele>1697.8256835938</ele>
        <time>2013-01-12T11:07:23Z</time>
      </trkpt>
      <trkpt lat="45.35541" lon="5.88653">
        <ele>1695.9030761719</ele>
        <time>2013-01-12T11:07:31Z</time>
      </trkpt>
      <trkpt lat="45.35539" lon="5.88651">
        <ele>1698.7868652344</ele>
        <time>2013-01-12T11:07:33Z</time>
      </trkpt>
      <trkpt lat="45.35538" lon="5.8865">
        <ele>1697.8256835938</ele>
        <time>2013-01-12T11:07:34Z</time>
      </trkpt>
      <trkpt lat="45.35538" lon="5.88649">
        <ele>1694.4609375</ele>
        <time>2013-01-12T11:07:35Z</time>
      </trkpt>
      <trkpt lat="45.35537" lon="5.88648">
        <ele>1696.3837890625</ele>
        <time>2013-01-12T11:07:36Z</time>
      </trkpt>
      <trkpt lat="45.35535" lon="5.88644">
        <ele>1699.7482910156</ele>
        <time>2013-01-12T11:07:39Z</time>
      </trkpt>
      <trkpt lat="45.35534" lon="5.88643">
        <ele>1697.3449707031</ele>
        <time>2013-01-12T11:07:40Z</time>
      </trkpt>
      <trkpt lat="45.35531" lon="5.88638">
        <ele>1693.98046875</ele>
        <time>2013-01-12T11:07:43Z</time>
      </trkpt>
      <trkpt lat="45.3553" lon="5.88635">
        <ele>1700.7094726562</ele>
        <time>2013-01-12T11:07:45Z</time>
      </trkpt>
      <trkpt lat="45.35529" lon="5.88633">
        <ele>1696.3837890625</ele>
        <time>2013-01-12T11:07:46Z</time>
      </trkpt>
      <trkpt lat="45.35527" lon="5.88626">
        <ele>1696.3837890625</ele>
        <time>2013-01-12T11:07:50Z</time>
      </trkpt>
      <trkpt lat="45.35521" lon="5.88614">
        <ele>1696.3837890625</ele>
        <time>2013-01-12T11:07:58Z</time>
      </trkpt>
      <trkpt lat="45.35518" lon="5.8861">
        <ele>1698.7868652344</ele>
        <time>2013-01-12T11:08:02Z</time>
      </trkpt>
      <trkpt lat="45.35518" lon="5.88609">
        <ele>1694.9416503906</ele>
        <time>2013-01-12T11:08:03Z</time>
      </trkpt>
      <trkpt lat="45.35517" lon="5.88608">
        <ele>1697.3449707031</ele>
        <time>2013-01-12T11:08:04Z</time>
      </trkpt>
      <trkpt lat="45.35514" lon="5.88605">
        <ele>1699.267578125</ele>
        <time>2013-01-12T11:08:08Z</time>
      </trkpt>
      <trkpt lat="45.35513" lon="5.88603">
        <ele>1697.3449707031</ele>
        <time>2013-01-12T11:08:10Z</time>
      </trkpt>
      <trkpt lat="45.35506" lon="5.88593">
        <ele>1700.7094726562</ele>
        <time>2013-01-12T11:08:19Z</time>
      </trkpt>
      <trkpt lat="45.35505" lon="5.88592">
        <ele>1696.8642578125</ele>
        <time>2013-01-12T11:08:20Z</time>
      </trkpt>
      <trkpt lat="45.35504" lon="5.8859">
        <ele>1701.6708984375</ele>
        <time>2013-01-12T11:08:22Z</time>
      </trkpt>
      <trkpt lat="45.35503" lon="5.8859">
        <ele>1697.8256835938</ele>
        <time>2013-01-12T11:08:23Z</time>
      </trkpt>
      <trkpt lat="45.35502" lon="5.88588">
        <ele>1701.6708984375</ele>
        <time>2013-01-12T11:08:24Z</time>
      </trkpt>
      <trkpt lat="45.355" lon="5.88589">
        <ele>1697.3449707031</ele>
        <time>2013-01-12T11:08:26Z</time>
      </trkpt>
      <trkpt lat="45.355" lon="5.88588">
        <ele>1699.7482910156</ele>
        <time>2013-01-12T11:08:27Z</time>
      </trkpt>
      <trkpt lat="45.35494" lon="5.88582">
        <ele>1696.8642578125</ele>
        <time>2013-01-12T11:08:33Z</time>
      </trkpt>
      <trkpt lat="45.35493" lon="5.88582">
        <ele>1703.5935058594</ele>
        <time>2013-01-12T11:08:35Z</time>
      </trkpt>
      <trkpt lat="45.35492" lon="5.88581">
        <ele>1701.6708984375</ele>
        <time>2013-01-12T11:08:36Z</time>
      </trkpt>
      <trkpt lat="45.35489" lon="5.88578">
        <ele>1699.267578125</ele>
        <time>2013-01-12T11:08:38Z</time>
      </trkpt>
      <trkpt lat="45.35488" lon="5.88576">
        <ele>1697.3449707031</ele>
        <time>2013-01-12T11:08:39Z</time>
      </trkpt>
      <trkpt lat="45.35482" lon="5.88569">
        <ele>1702.6320800781</ele>
        <time>2013-01-12T11:08:45Z</time>
      </trkpt>
      <trkpt lat="45.3548" lon="5.88568">
        <ele>1698.7868652344</ele>
        <time>2013-01-12T11:08:46Z</time>
      </trkpt>
      <trkpt lat="45.3547" lon="5.88556">
        <ele>1700.7094726562</ele>
        <time>2013-01-12T11:08:56Z</time>
      </trkpt>
      <trkpt lat="45.35458" lon="5.88541">
        <ele>1698.3061523438</ele>
        <time>2013-01-12T11:09:07Z</time>
      </trkpt>
      <trkpt lat="45.35458" lon="5.8854">
        <ele>1703.1127929688</ele>
        <time>2013-01-12T11:09:08Z</time>
      </trkpt>
      <trkpt lat="45.35457" lon="5.88539">
        <ele>1701.1901855469</ele>
        <time>2013-01-12T11:09:09Z</time>
      </trkpt>
      <trkpt lat="45.35456" lon="5.88536">
        <ele>1700.7094726562</ele>
        <time>2013-01-12T11:09:11Z</time>
      </trkpt>
      <trkpt lat="45.35455" lon="5.88534">
        <ele>1697.3449707031</ele>
        <time>2013-01-12T11:09:12Z</time>
      </trkpt>
      <trkpt lat="45.35451" lon="5.88528">
        <ele>1701.1901855469</ele>
        <time>2013-01-12T11:09:17Z</time>
      </trkpt>
      <trkpt lat="45.35447" lon="5.88519">
        <ele>1697.8256835938</ele>
        <time>2013-01-12T11:09:21Z</time>
      </trkpt>
      <trkpt lat="45.35444" lon="5.88516">
        <ele>1702.6320800781</ele>
        <time>2013-01-12T11:09:24Z</time>
      </trkpt>
      <trkpt lat="45.35444" lon="5.88516">
        <ele>1698.7868652344</ele>
        <time>2013-01-12T11:09:25Z</time>
      </trkpt>
      <trkpt lat="45.35442" lon="5.88505">
        <ele>1701.1901855469</ele>
        <time>2013-01-12T11:09:33Z</time>
      </trkpt>
      <trkpt lat="45.35437" lon="5.88486">
        <ele>1696.3837890625</ele>
        <time>2013-01-12T11:09:41Z</time>
      </trkpt>
      <trkpt lat="45.35435" lon="5.88476">
        <ele>1694.4609375</ele>
        <time>2013-01-12T11:09:46Z</time>
      </trkpt>
      <trkpt lat="45.35433" lon="5.88472">
        <ele>1694.9416503906</ele>
        <time>2013-01-12T11:10:00Z</time>
      </trkpt>
      <trkpt lat="45.35433" lon="5.88472">
        <ele>1693.4997558594</ele>
        <time>2013-01-12T11:10:22Z</time>
      </trkpt>
      <trkpt lat="45.35433" lon="5.88472">
        <ele>1698.3061523438</ele>
        <time>2013-01-12T11:10:23Z</time>
      </trkpt>
      <trkpt lat="45.35432" lon="5.8847">
        <ele>1694.9416503906</ele>
        <time>2013-01-12T11:10:24Z</time>
      </trkpt>
      <trkpt lat="45.3543" lon="5.88466">
        <ele>1698.7868652344</ele>
        <time>2013-01-12T11:10:26Z</time>
      </trkpt>
      <trkpt lat="45.35429" lon="5.88462">
        <ele>1697.3449707031</ele>
        <time>2013-01-12T11:10:27Z</time>
      </trkpt>
      <trkpt lat="45.35427" lon="5.88459">
        <ele>1696.3837890625</ele>
        <time>2013-01-12T11:10:29Z</time>
      </trkpt>
      <trkpt lat="45.35427" lon="5.88458">
        <ele>1693.0190429688</ele>
        <time>2013-01-12T11:10:30Z</time>
      </trkpt>
      <trkpt lat="45.35424" lon="5.88449">
        <ele>1693.98046875</ele>
        <time>2013-01-12T11:10:34Z</time>
      </trkpt>
      <trkpt lat="45.35423" lon="5.88446">
        <ele>1699.7482910156</ele>
        <time>2013-01-12T11:10:35Z</time>
      </trkpt>
      <trkpt lat="45.35422" lon="5.88444">
        <ele>1695.9030761719</ele>
        <time>2013-01-12T11:10:36Z</time>
      </trkpt>
      <trkpt lat="45.3542" lon="5.88435">
        <ele>1694.9416503906</ele>
        <time>2013-01-12T11:10:40Z</time>
      </trkpt>
      <trkpt lat="45.35416" lon="5.8841">
        <ele>1694.9416503906</ele>
        <time>2013-01-12T11:10:53Z</time>
      </trkpt>
      <trkpt lat="45.35415" lon="5.88402">
        <ele>1691.0961914062</ele>
        <time>2013-01-12T11:10:57Z</time>
      </trkpt>
      <trkpt lat="45.35415" lon="5.884">
        <ele>1692.5385742188</ele>
        <time>2013-01-12T11:10:58Z</time>
      </trkpt>
      <trkpt lat="45.35415" lon="5.88398">
        <ele>1696.3837890625</ele>
        <time>2013-01-12T11:10:59Z</time>
      </trkpt>
      <trkpt lat="45.35414" lon="5.88396">
        <ele>1696.3837890625</ele>
        <time>2013-01-12T11:11:00Z</time>
      </trkpt>
      <trkpt lat="45.35415" lon="5.88391">
        <ele>1692.0578613281</ele>
        <time>2013-01-12T11:11:03Z</time>
      </trkpt>
      <trkpt lat="45.35414" lon="5.8839">
        <ele>1696.8642578125</ele>
        <time>2013-01-12T11:11:05Z</time>
      </trkpt>
      <trkpt lat="45.35414" lon="5.88389">
        <ele>1693.0190429688</ele>
        <time>2013-01-12T11:11:06Z</time>
      </trkpt>
      <trkpt lat="45.35414" lon="5.88386">
        <ele>1696.3837890625</ele>
        <time>2013-01-12T11:11:08Z</time>
      </trkpt>
      <trkpt lat="45.35415" lon="5.88379">
        <ele>1692.5385742188</ele>
        <time>2013-01-12T11:11:12Z</time>
      </trkpt>
      <trkpt lat="45.35415" lon="5.88377">
        <ele>1695.4223632812</ele>
        <time>2013-01-12T11:11:13Z</time>
      </trkpt>
      <trkpt lat="45.35412" lon="5.88356">
        <ele>1696.8642578125</ele>
        <time>2013-01-12T11:11:27Z</time>
      </trkpt>
      <trkpt lat="45.35408" lon="5.88336">
        <ele>1694.4609375</ele>
        <time>2013-01-12T11:11:38Z</time>
      </trkpt>
      <trkpt lat="45.35403" lon="5.88313">
        <ele>1693.98046875</ele>
        <time>2013-01-12T11:11:51Z</time>
      </trkpt>
      <trkpt lat="45.35401" lon="5.88307">
        <ele>1690.6154785156</ele>
        <time>2013-01-12T11:11:56Z</time>
      </trkpt>
      <trkpt lat="45.354" lon="5.88306">
        <ele>1694.4609375</ele>
        <time>2013-01-12T11:11:57Z</time>
      </trkpt>
      <trkpt lat="45.35397" lon="5.88298">
        <ele>1693.0190429688</ele>
        <time>2013-01-12T11:12:16Z</time>
      </trkpt>
      <trkpt lat="45.35394" lon="5.88288">
        <ele>1689.1735839844</ele>
        <time>2013-01-12T11:12:29Z</time>
      </trkpt>
      <trkpt lat="45.35394" lon="5.88286">
        <ele>1691.0961914062</ele>
        <time>2013-01-12T11:12:31Z</time>
      </trkpt>
      <trkpt lat="45.35391" lon="5.88265">
        <ele>1689.654296875</ele>
        <time>2013-01-12T11:12:40Z</time>
      </trkpt>
      <trkpt lat="45.35387" lon="5.88242">
        <ele>1690.1350097656</ele>
        <time>2013-01-12T11:12:50Z</time>
      </trkpt>
      <trkpt lat="45.35379" lon="5.88232">
        <ele>1694.4609375</ele>
        <time>2013-01-12T11:13:00Z</time>
      </trkpt>
      <trkpt lat="45.35378" lon="5.88231">
        <ele>1694.4609375</ele>
        <time>2013-01-12T11:13:01Z</time>
      </trkpt>
      <trkpt lat="45.35376" lon="5.8823">
        <ele>1692.0578613281</ele>
        <time>2013-01-12T11:13:03Z</time>
      </trkpt>
      <trkpt lat="45.35376" lon="5.88228">
        <ele>1688.6931152344</ele>
        <time>2013-01-12T11:13:04Z</time>
      </trkpt>
      <trkpt lat="45.35375" lon="5.88226">
        <ele>1691.5769042969</ele>
        <time>2013-01-12T11:13:05Z</time>
      </trkpt>
      <trkpt lat="45.35375" lon="5.88225">
        <ele>1693.0190429688</ele>
        <time>2013-01-12T11:13:06Z</time>
      </trkpt>
      <trkpt lat="45.35375" lon="5.88219">
        <ele>1696.3837890625</ele>
        <time>2013-01-12T11:13:09Z</time>
      </trkpt>
      <trkpt lat="45.35375" lon="5.88218">
        <ele>1693.98046875</ele>
        <time>2013-01-12T11:13:10Z</time>
      </trkpt>
      <trkpt lat="45.35375" lon="5.88213">
        <ele>1691.5769042969</ele>
        <time>2013-01-12T11:13:14Z</time>
      </trkpt>
      <trkpt lat="45.35377" lon="5.88205">
        <ele>1695.9030761719</ele>
        <time>2013-01-12T11:13:22Z</time>
      </trkpt>
      <trkpt lat="45.35376" lon="5.88204">
        <ele>1694.4609375</ele>
        <time>2013-01-12T11:13:23Z</time>
      </trkpt>
      <trkpt lat="45.35374" lon="5.88202">
        <ele>1690.6154785156</ele>
        <time>2013-01-12T11:13:26Z</time>
      </trkpt>
      <trkpt lat="45.35374" lon="5.88201">
        <ele>1692.5385742188</ele>
        <time>2013-01-12T11:13:27Z</time>
      </trkpt>
      <trkpt lat="45.35373" lon="5.88198">
        <ele>1694.4609375</ele>
        <time>2013-01-12T11:13:30Z</time>
      </trkpt>
      <trkpt lat="45.3537" lon="5.88188">
        <ele>1693.98046875</ele>
        <time>2013-01-12T11:13:34Z</time>
      </trkpt>
      <trkpt lat="45.35366" lon="5.88178">
        <ele>1697.3449707031</ele>
        <time>2013-01-12T11:13:44Z</time>
      </trkpt>
      <trkpt lat="45.35365" lon="5.88173">
        <ele>1693.98046875</ele>
        <time>2013-01-12T11:13:49Z</time>
      </trkpt>
      <trkpt lat="45.35365" lon="5.88172">
        <ele>1697.3449707031</ele>
        <time>2013-01-12T11:13:50Z</time>
      </trkpt>
      <trkpt lat="45.35358" lon="5.88166">
        <ele>1697.8256835938</ele>
        <time>2013-01-12T11:14:00Z</time>
      </trkpt>
      <trkpt lat="45.35353" lon="5.88161">
        <ele>1698.3061523438</ele>
        <time>2013-01-12T11:14:04Z</time>
      </trkpt>
      <trkpt lat="45.35349" lon="5.88161">
        <ele>1698.7868652344</ele>
        <time>2013-01-12T11:14:07Z</time>
      </trkpt>
      <trkpt lat="45.35347" lon="5.88162">
        <ele>1699.267578125</ele>
        <time>2013-01-12T11:14:09Z</time>
      </trkpt>
      <trkpt lat="45.35344" lon="5.8816">
        <ele>1700.7094726562</ele>
        <time>2013-01-12T11:14:12Z</time>
      </trkpt>
      <trkpt lat="45.35339" lon="5.88159">
        <ele>1699.7482910156</ele>
        <time>2013-01-12T11:14:17Z</time>
      </trkpt>
      <trkpt lat="45.35337" lon="5.88158">
        <ele>1697.8256835938</ele>
        <time>2013-01-12T11:14:19Z</time>
      </trkpt>
      <trkpt lat="45.35331" lon="5.88159">
        <ele>1698.7868652344</ele>
        <time>2013-01-12T11:14:24Z</time>
      </trkpt>
      <trkpt lat="45.35319" lon="5.88159">
        <ele>1701.1901855469</ele>
        <time>2013-01-12T11:14:37Z</time>
      </trkpt>
      <trkpt lat="45.35308" lon="5.88155">
        <ele>1697.8256835938</ele>
        <time>2013-01-12T11:14:45Z</time>
      </trkpt>
      <trkpt lat="45.35302" lon="5.88148">
        <ele>1695.9030761719</ele>
        <time>2013-01-12T11:14:52Z</time>
      </trkpt>
      <trkpt lat="45.35298" lon="5.88145">
        <ele>1701.1901855469</ele>
        <time>2013-01-12T11:14:57Z</time>
      </trkpt>
      <trkpt lat="45.35296" lon="5.88145">
        <ele>1700.2290039062</ele>
        <time>2013-01-12T11:14:59Z</time>
      </trkpt>
      <trkpt lat="45.35284" lon="5.88137">
        <ele>1698.7868652344</ele>
        <time>2013-01-12T11:15:13Z</time>
      </trkpt>
      <trkpt lat="45.35283" lon="5.88135">
        <ele>1702.6320800781</ele>
        <time>2013-01-12T11:15:15Z</time>
      </trkpt>
      <trkpt lat="45.35274" lon="5.88126">
        <ele>1700.7094726562</ele>
        <time>2013-01-12T11:15:27Z</time>
      </trkpt>
      <trkpt lat="45.35271" lon="5.88124">
        <ele>1705.0354003906</ele>
        <time>2013-01-12T11:15:31Z</time>
      </trkpt>
      <trkpt lat="45.35271" lon="5.88121">
        <ele>1701.6708984375</ele>
        <time>2013-01-12T11:15:33Z</time>
      </trkpt>
      <trkpt lat="45.35268" lon="5.8811">
        <ele>1705.9965820312</ele>
        <time>2013-01-12T11:15:41Z</time>
      </trkpt>
      <trkpt lat="45.35268" lon="5.8811">
        <ele>1702.1513671875</ele>
        <time>2013-01-12T11:15:42Z</time>
      </trkpt>
      <trkpt lat="45.35268" lon="5.88109">
        <ele>1706.4772949219</ele>
        <time>2013-01-12T11:15:43Z</time>
      </trkpt>
      <trkpt lat="45.35267" lon="5.88109">
        <ele>1703.1127929688</ele>
        <time>2013-01-12T11:15:44Z</time>
      </trkpt>
      <trkpt lat="45.35265" lon="5.88108">
        <ele>1704.5546875</ele>
        <time>2013-01-12T11:15:48Z</time>
      </trkpt>
      <trkpt lat="45.35263" lon="5.88107">
        <ele>1707.9194335938</ele>
        <time>2013-01-12T11:15:50Z</time>
      </trkpt>
      <trkpt lat="45.35262" lon="5.88106">
        <ele>1705.0354003906</ele>
        <time>2013-01-12T11:15:51Z</time>
      </trkpt>
      <trkpt lat="45.35255" lon="5.88091">
        <ele>1708.4001464844</ele>
        <time>2013-01-12T11:16:03Z</time>
      </trkpt>
      <trkpt lat="45.35254" lon="5.88091">
        <ele>1705.0354003906</ele>
        <time>2013-01-12T11:16:04Z</time>
      </trkpt>
      <trkpt lat="45.35252" lon="5.8809">
        <ele>1708.4001464844</ele>
        <time>2013-01-12T11:16:07Z</time>
      </trkpt>
      <trkpt lat="45.35252" lon="5.88089">
        <ele>1704.5546875</ele>
        <time>2013-01-12T11:16:08Z</time>
      </trkpt>
      <trkpt lat="45.3525" lon="5.88087">
        <ele>1709.3615722656</ele>
        <time>2013-01-12T11:16:10Z</time>
      </trkpt>
      <trkpt lat="45.3525" lon="5.88087">
        <ele>1706.9580078125</ele>
        <time>2013-01-12T11:16:11Z</time>
      </trkpt>
      <trkpt lat="45.35245" lon="5.88078">
        <ele>1707.9194335938</ele>
        <time>2013-01-12T11:16:27Z</time>
      </trkpt>
      <trkpt lat="45.3524" lon="5.88067">
        <ele>1710.8034667969</ele>
        <time>2013-01-12T11:16:42Z</time>
      </trkpt>
      <trkpt lat="45.35239" lon="5.88066">
        <ele>1710.8034667969</ele>
        <time>2013-01-12T11:16:43Z</time>
      </trkpt>
      <trkpt lat="45.35237" lon="5.88061">
        <ele>1707.4387207031</ele>
        <time>2013-01-12T11:16:49Z</time>
      </trkpt>
      <trkpt lat="45.35236" lon="5.88059">
        <ele>1711.2841796875</ele>
        <time>2013-01-12T11:16:51Z</time>
      </trkpt>
      <trkpt lat="45.3523" lon="5.88053">
        <ele>1714.16796875</ele>
        <time>2013-01-12T11:17:00Z</time>
      </trkpt>
      <trkpt lat="45.3523" lon="5.88053">
        <ele>1710.3227539062</ele>
        <time>2013-01-12T11:17:01Z</time>
      </trkpt>
      <trkpt lat="45.35228" lon="5.88052">
        <ele>1714.6486816406</ele>
        <time>2013-01-12T11:17:04Z</time>
      </trkpt>
      <trkpt lat="45.35227" lon="5.88052">
        <ele>1711.2841796875</ele>
        <time>2013-01-12T11:17:05Z</time>
      </trkpt>
      <trkpt lat="45.35226" lon="5.88053">
        <ele>1714.6486816406</ele>
        <time>2013-01-12T11:17:09Z</time>
      </trkpt>
      <trkpt lat="45.35215" lon="5.88053">
        <ele>1715.6101074219</ele>
        <time>2013-01-12T11:17:25Z</time>
      </trkpt>
      <trkpt lat="45.35211" lon="5.88047">
        <ele>1718.974609375</ele>
        <time>2013-01-12T11:17:33Z</time>
      </trkpt>
      <trkpt lat="45.35205" lon="5.88043">
        <ele>1720.4165039062</ele>
        <time>2013-01-12T11:17:43Z</time>
      </trkpt>
      <trkpt lat="45.35204" lon="5.88042">
        <ele>1719.4553222656</ele>
        <time>2013-01-12T11:17:45Z</time>
      </trkpt>
      <trkpt lat="45.35199" lon="5.88039">
        <ele>1722.3391113281</ele>
        <time>2013-01-12T11:17:52Z</time>
      </trkpt>
      <trkpt lat="45.35196" lon="5.8804">
        <ele>1718.974609375</ele>
        <time>2013-01-12T11:17:55Z</time>
      </trkpt>
      <trkpt lat="45.35194" lon="5.88042">
        <ele>1722.8198242188</ele>
        <time>2013-01-12T11:17:58Z</time>
      </trkpt>
      <trkpt lat="45.35193" lon="5.88041">
        <ele>1722.8198242188</ele>
        <time>2013-01-12T11:18:02Z</time>
      </trkpt>
      <trkpt lat="45.35187" lon="5.88037">
        <ele>1726.1845703125</ele>
        <time>2013-01-12T11:18:17Z</time>
      </trkpt>
      <trkpt lat="45.35187" lon="5.88036">
        <ele>1722.8198242188</ele>
        <time>2013-01-12T11:18:20Z</time>
      </trkpt>
      <trkpt lat="45.35185" lon="5.88037">
        <ele>1725.7038574219</ele>
        <time>2013-01-12T11:18:22Z</time>
      </trkpt>
      <trkpt lat="45.3518" lon="5.88029">
        <ele>1726.1845703125</ele>
        <time>2013-01-12T11:18:27Z</time>
      </trkpt>
      <trkpt lat="45.35173" lon="5.88026">
        <ele>1729.5490722656</ele>
        <time>2013-01-12T11:18:49Z</time>
      </trkpt>
      <trkpt lat="45.3517" lon="5.88023">
        <ele>1726.1845703125</ele>
        <time>2013-01-12T11:18:56Z</time>
      </trkpt>
      <trkpt lat="45.3517" lon="5.88022">
        <ele>1729.5490722656</ele>
        <time>2013-01-12T11:18:57Z</time>
      </trkpt>
      <trkpt lat="45.3517" lon="5.88022">
        <ele>1726.1845703125</ele>
        <time>2013-01-12T11:18:58Z</time>
      </trkpt>
      <trkpt lat="45.35169" lon="5.88022">
        <ele>1729.068359375</ele>
        <time>2013-01-12T11:19:01Z</time>
      </trkpt>
      <trkpt lat="45.35163" lon="5.88014">
        <ele>1732.9135742188</ele>
        <time>2013-01-12T11:19:13Z</time>
      </trkpt>
      <trkpt lat="45.35154" lon="5.88019">
        <ele>1732.4331054688</ele>
        <time>2013-01-12T11:19:28Z</time>
      </trkpt>
      <trkpt lat="45.35153" lon="5.88015">
        <ele>1733.875</ele>
        <time>2013-01-12T11:20:27Z</time>
      </trkpt>
      <trkpt lat="45.3515" lon="5.88011">
        <ele>1737.2395019531</ele>
        <time>2013-01-12T11:20:48Z</time>
      </trkpt>
      <trkpt lat="45.35147" lon="5.88011">
        <ele>1734.3557128906</ele>
        <time>2013-01-12T11:20:51Z</time>
      </trkpt>
      <trkpt lat="45.35146" lon="5.88008">
        <ele>1738.2009277344</ele>
        <time>2013-01-12T11:20:54Z</time>
      </trkpt>
      <trkpt lat="45.35141" lon="5.88006">
        <ele>1740.1237792969</ele>
        <time>2013-01-12T11:21:18Z</time>
      </trkpt>
      <trkpt lat="45.35131" lon="5.87997">
        <ele>1744.4494628906</ele>
        <time>2013-01-12T11:21:33Z</time>
      </trkpt>
      <trkpt lat="45.35126" lon="5.8799">
        <ele>1743.0075683594</ele>
        <time>2013-01-12T11:21:48Z</time>
      </trkpt>
      <trkpt lat="45.35125" lon="5.87987">
        <ele>1747.3334960938</ele>
        <time>2013-01-12T11:21:52Z</time>
      </trkpt>
      <trkpt lat="45.3512" lon="5.87983">
        <ele>1748.775390625</ele>
        <time>2013-01-12T11:22:02Z</time>
      </trkpt>
      <trkpt lat="45.35119" lon="5.87982">
        <ele>1745.8916015625</ele>
        <time>2013-01-12T11:22:03Z</time>
      </trkpt>
      <trkpt lat="45.35118" lon="5.87981">
        <ele>1750.2175292969</ele>
        <time>2013-01-12T11:22:05Z</time>
      </trkpt>
      <trkpt lat="45.35108" lon="5.87973">
        <ele>1751.6594238281</ele>
        <time>2013-01-12T11:22:21Z</time>
      </trkpt>
      <trkpt lat="45.35104" lon="5.8796">
        <ele>1754.0627441406</ele>
        <time>2013-01-12T11:22:39Z</time>
      </trkpt>
      <trkpt lat="45.35109" lon="5.87958">
        <ele>1756.4660644531</ele>
        <time>2013-01-12T11:22:58Z</time>
      </trkpt>
      <trkpt lat="45.35113" lon="5.87949">
        <ele>1759.3500976562</ele>
        <time>2013-01-12T11:23:12Z</time>
      </trkpt>
      <trkpt lat="45.35116" lon="5.87942">
        <ele>1762.7145996094</ele>
        <time>2013-01-12T11:23:24Z</time>
      </trkpt>
      <trkpt lat="45.35124" lon="5.87938">
        <ele>1762.7145996094</ele>
        <time>2013-01-12T11:23:44Z</time>
      </trkpt>
      <trkpt lat="45.35124" lon="5.87934">
        <ele>1764.6372070312</ele>
        <time>2013-01-12T11:24:09Z</time>
      </trkpt>
      <trkpt lat="45.35126" lon="5.87932">
        <ele>1766.0791015625</ele>
        <time>2013-01-12T11:24:11Z</time>
      </trkpt>
      <trkpt lat="45.35134" lon="5.87925">
        <ele>1766.5598144531</ele>
        <time>2013-01-12T11:24:26Z</time>
      </trkpt>
      <trkpt lat="45.35134" lon="5.87925">
        <ele>1769.4438476562</ele>
        <time>2013-01-12T11:24:27Z</time>
      </trkpt>
      <trkpt lat="45.35134" lon="5.87924">
        <ele>1766.0791015625</ele>
        <time>2013-01-12T11:24:28Z</time>
      </trkpt>
      <trkpt lat="45.35134" lon="5.87924">
        <ele>1769.4438476562</ele>
        <time>2013-01-12T11:24:29Z</time>
      </trkpt>
      <trkpt lat="45.35138" lon="5.87919">
        <ele>1769.9243164062</ele>
        <time>2013-01-12T11:24:42Z</time>
      </trkpt>
      <trkpt lat="45.35139" lon="5.87918">
        <ele>1773.2893066406</ele>
        <time>2013-01-12T11:24:47Z</time>
      </trkpt>
      <trkpt lat="45.35144" lon="5.87912">
        <ele>1775.2116699219</ele>
        <time>2013-01-12T11:25:00Z</time>
      </trkpt>
      <trkpt lat="45.35148" lon="5.87908">
        <ele>1778.5764160156</ele>
        <time>2013-01-12T11:25:14Z</time>
      </trkpt>
      <trkpt lat="45.35154" lon="5.87903">
        <ele>1781.9409179688</ele>
        <time>2013-01-12T11:25:27Z</time>
      </trkpt>
      <trkpt lat="45.35156" lon="5.87899">
        <ele>1778.5764160156</ele>
        <time>2013-01-12T11:25:31Z</time>
      </trkpt>
      <trkpt lat="45.35158" lon="5.87897">
        <ele>1782.4216308594</ele>
        <time>2013-01-12T11:25:34Z</time>
      </trkpt>
      <trkpt lat="45.35159" lon="5.87895">
        <ele>1778.5764160156</ele>
        <time>2013-01-12T11:25:37Z</time>
      </trkpt>
      <trkpt lat="45.3516" lon="5.87894">
        <ele>1782.4216308594</ele>
        <time>2013-01-12T11:25:38Z</time>
      </trkpt>
      <trkpt lat="45.3516" lon="5.87893">
        <ele>1785.7861328125</ele>
        <time>2013-01-12T11:25:50Z</time>
      </trkpt>
      <trkpt lat="45.35168" lon="5.87883">
        <ele>1787.2280273438</ele>
        <time>2013-01-12T11:26:08Z</time>
      </trkpt>
      <trkpt lat="45.35171" lon="5.87882">
        <ele>1789.1508789062</ele>
        <time>2013-01-12T11:26:14Z</time>
      </trkpt>
      <trkpt lat="45.35172" lon="5.87881">
        <ele>1790.1123046875</ele>
        <time>2013-01-12T11:26:27Z</time>
      </trkpt>
      <trkpt lat="45.35167" lon="5.87879">
        <ele>1792.0349121094</ele>
        <time>2013-01-12T11:26:42Z</time>
      </trkpt>
      <trkpt lat="45.35164" lon="5.87871">
        <ele>1795.3994140625</ele>
        <time>2013-01-12T11:26:53Z</time>
      </trkpt>
      <trkpt lat="45.35162" lon="5.8787">
        <ele>1795.3994140625</ele>
        <time>2013-01-12T11:26:57Z</time>
      </trkpt>
      <trkpt lat="45.35153" lon="5.87867">
        <ele>1798.7639160156</ele>
        <time>2013-01-12T11:27:12Z</time>
      </trkpt>
      <trkpt lat="45.35147" lon="5.87858">
        <ele>1802.1284179688</ele>
        <time>2013-01-12T11:27:29Z</time>
      </trkpt>
      <trkpt lat="45.35145" lon="5.87854">
        <ele>1802.1284179688</ele>
        <time>2013-01-12T11:27:34Z</time>
      </trkpt>
      <trkpt lat="45.35138" lon="5.87847">
        <ele>1804.5319824219</ele>
        <time>2013-01-12T11:27:48Z</time>
      </trkpt>
      <trkpt lat="45.35136" lon="5.87846">
        <ele>1805.9738769531</ele>
        <time>2013-01-12T11:27:53Z</time>
      </trkpt>
      <trkpt lat="45.35136" lon="5.87845">
        <ele>1802.6091308594</ele>
        <time>2013-01-12T11:27:54Z</time>
      </trkpt>
      <trkpt lat="45.35135" lon="5.87844">
        <ele>1805.9738769531</ele>
        <time>2013-01-12T11:27:55Z</time>
      </trkpt>
      <trkpt lat="45.35132" lon="5.8784">
        <ele>1806.9353027344</ele>
        <time>2013-01-12T11:28:09Z</time>
      </trkpt>
      <trkpt lat="45.35124" lon="5.87838">
        <ele>1810.2998046875</ele>
        <time>2013-01-12T11:28:38Z</time>
      </trkpt>
      <trkpt lat="45.35124" lon="5.87837">
        <ele>1810.2998046875</ele>
        <time>2013-01-12T11:28:40Z</time>
      </trkpt>
      <trkpt lat="45.35115" lon="5.87837">
        <ele>1813.6643066406</ele>
        <time>2013-01-12T11:28:53Z</time>
      </trkpt>
      <trkpt lat="45.35115" lon="5.87836">
        <ele>1809.8190917969</ele>
        <time>2013-01-12T11:28:54Z</time>
      </trkpt>
      <trkpt lat="45.35115" lon="5.87835">
        <ele>1813.1838378906</ele>
        <time>2013-01-12T11:28:55Z</time>
      </trkpt>
      <trkpt lat="45.35108" lon="5.87831">
        <ele>1817.0290527344</ele>
        <time>2013-01-12T11:29:13Z</time>
      </trkpt>
      <trkpt lat="45.35106" lon="5.87829">
        <ele>1817.990234375</ele>
        <time>2013-01-12T11:29:17Z</time>
      </trkpt>
      <trkpt lat="45.35102" lon="5.87817">
        <ele>1821.3549804688</ele>
        <time>2013-01-12T11:29:31Z</time>
      </trkpt>
      <trkpt lat="45.351" lon="5.87808">
        <ele>1821.3549804688</ele>
        <time>2013-01-12T11:29:47Z</time>
      </trkpt>
      <trkpt lat="45.35091" lon="5.8781">
        <ele>1825.6809082031</ele>
        <time>2013-01-12T11:30:19Z</time>
      </trkpt>
      <trkpt lat="45.3509" lon="5.87809">
        <ele>1822.7971191406</ele>
        <time>2013-01-12T11:30:20Z</time>
      </trkpt>
      <trkpt lat="45.3509" lon="5.87802">
        <ele>1823.2778320312</ele>
        <time>2013-01-12T11:30:40Z</time>
      </trkpt>
      <trkpt lat="45.35089" lon="5.878">
        <ele>1827.123046875</ele>
        <time>2013-01-12T11:30:42Z</time>
      </trkpt>
      <trkpt lat="45.35084" lon="5.87797">
        <ele>1823.7583007812</ele>
        <time>2013-01-12T11:30:47Z</time>
      </trkpt>
      <trkpt lat="45.35083" lon="5.87794">
        <ele>1828.5649414062</ele>
        <time>2013-01-12T11:30:51Z</time>
      </trkpt>
      <trkpt lat="45.3508" lon="5.8779">
        <ele>1825.2001953125</ele>
        <time>2013-01-12T11:30:56Z</time>
      </trkpt>
      <trkpt lat="45.35077" lon="5.87787">
        <ele>1828.0842285156</ele>
        <time>2013-01-12T11:31:01Z</time>
      </trkpt>
      <trkpt lat="45.35069" lon="5.87777">
        <ele>1828.5649414062</ele>
        <time>2013-01-12T11:31:16Z</time>
      </trkpt>
      <trkpt lat="45.35065" lon="5.87776">
        <ele>1832.41015625</ele>
        <time>2013-01-12T11:31:20Z</time>
      </trkpt>
      <trkpt lat="45.35065" lon="5.8777">
        <ele>1828.5649414062</ele>
        <time>2013-01-12T11:31:25Z</time>
      </trkpt>
      <trkpt lat="45.35064" lon="5.87771">
        <ele>1833.3713378906</ele>
        <time>2013-01-12T11:31:26Z</time>
      </trkpt>
      <trkpt lat="45.35063" lon="5.87771">
        <ele>1830.0068359375</ele>
        <time>2013-01-12T11:31:27Z</time>
      </trkpt>
      <trkpt lat="45.35055" lon="5.8777">
        <ele>1835.2939453125</ele>
        <time>2013-01-12T11:31:37Z</time>
      </trkpt>
      <trkpt lat="45.35055" lon="5.87769">
        <ele>1832.41015625</ele>
        <time>2013-01-12T11:31:38Z</time>
      </trkpt>
      <trkpt lat="45.35049" lon="5.8777">
        <ele>1835.7746582031</ele>
        <time>2013-01-12T11:31:44Z</time>
      </trkpt>
      <trkpt lat="45.35043" lon="5.8776">
        <ele>1833.8520507812</ele>
        <time>2013-01-12T11:31:59Z</time>
      </trkpt>
      <trkpt lat="45.35042" lon="5.87759">
        <ele>1837.216796875</ele>
        <time>2013-01-12T11:32:00Z</time>
      </trkpt>
      <trkpt lat="45.35037" lon="5.87751">
        <ele>1840.5812988281</ele>
        <time>2013-01-12T11:32:13Z</time>
      </trkpt>
      <trkpt lat="45.35037" lon="5.8775">
        <ele>1837.216796875</ele>
        <time>2013-01-12T11:32:14Z</time>
      </trkpt>
      <trkpt lat="45.35033" lon="5.87746">
        <ele>1840.5812988281</ele>
        <time>2013-01-12T11:32:21Z</time>
      </trkpt>
      <trkpt lat="45.35024" lon="5.87738">
        <ele>1842.0234375</ele>
        <time>2013-01-12T11:32:36Z</time>
      </trkpt>
      <trkpt lat="45.35021" lon="5.87731">
        <ele>1844.9072265625</ele>
        <time>2013-01-12T11:32:45Z</time>
      </trkpt>
      <trkpt lat="45.35016" lon="5.8773">
        <ele>1842.0234375</ele>
        <time>2013-01-12T11:32:50Z</time>
      </trkpt>
      <trkpt lat="45.35014" lon="5.87731">
        <ele>1844.9072265625</ele>
        <time>2013-01-12T11:32:55Z</time>
      </trkpt>
      <trkpt lat="45.35007" lon="5.87724">
        <ele>1849.2331542969</ele>
        <time>2013-01-12T11:33:08Z</time>
      </trkpt>
      <trkpt lat="45.35006" lon="5.87721">
        <ele>1849.2331542969</ele>
        <time>2013-01-12T11:33:30Z</time>
      </trkpt>
      <trkpt lat="45.34991" lon="5.87727">
        <ele>1847.310546875</ele>
        <time>2013-01-12T11:33:44Z</time>
      </trkpt>
      <trkpt lat="45.3499" lon="5.87727">
        <ele>1850.6750488281</ele>
        <time>2013-01-12T11:33:45Z</time>
      </trkpt>
      <trkpt lat="45.34985" lon="5.8772">
        <ele>1854.5205078125</ele>
        <time>2013-01-12T11:33:55Z</time>
      </trkpt>
      <trkpt lat="45.34985" lon="5.8772">
        <ele>1851.1557617188</ele>
        <time>2013-01-12T11:33:56Z</time>
      </trkpt>
      <trkpt lat="45.34983" lon="5.87719">
        <ele>1855.0012207031</ele>
        <time>2013-01-12T11:33:59Z</time>
      </trkpt>
      <trkpt lat="45.34982" lon="5.87719">
        <ele>1851.1557617188</ele>
        <time>2013-01-12T11:34:00Z</time>
      </trkpt>
      <trkpt lat="45.34981" lon="5.87716">
        <ele>1854.5205078125</ele>
        <time>2013-01-12T11:34:03Z</time>
      </trkpt>
      <trkpt lat="45.34978" lon="5.87714">
        <ele>1851.6364746094</ele>
        <time>2013-01-12T11:34:08Z</time>
      </trkpt>
      <trkpt lat="45.34978" lon="5.87714">
        <ele>1854.5205078125</ele>
        <time>2013-01-12T11:34:09Z</time>
      </trkpt>
      <trkpt lat="45.3497" lon="5.87711">
        <ele>1858.3657226562</ele>
        <time>2013-01-12T11:34:22Z</time>
      </trkpt>
      <trkpt lat="45.34969" lon="5.8771">
        <ele>1854.0400390625</ele>
        <time>2013-01-12T11:34:25Z</time>
      </trkpt>
      <trkpt lat="45.34969" lon="5.87708">
        <ele>1858.3657226562</ele>
        <time>2013-01-12T11:34:26Z</time>
      </trkpt>
      <trkpt lat="45.3497" lon="5.87703">
        <ele>1855.4819335938</ele>
        <time>2013-01-12T11:34:29Z</time>
      </trkpt>
      <trkpt lat="45.34969" lon="5.87699">
        <ele>1858.3657226562</ele>
        <time>2013-01-12T11:34:32Z</time>
      </trkpt>
      <trkpt lat="45.34968" lon="5.877">
        <ele>1855.4819335938</ele>
        <time>2013-01-12T11:34:33Z</time>
      </trkpt>
      <trkpt lat="45.34966" lon="5.87701">
        <ele>1858.3657226562</ele>
        <time>2013-01-12T11:34:34Z</time>
      </trkpt>
      <trkpt lat="45.34956" lon="5.87694">
        <ele>1862.6916503906</ele>
        <time>2013-01-12T11:34:51Z</time>
      </trkpt>
      <trkpt lat="45.34947" lon="5.87685">
        <ele>1860.7690429688</ele>
        <time>2013-01-12T11:35:08Z</time>
      </trkpt>
      <trkpt lat="45.34946" lon="5.87684">
        <ele>1864.1335449219</ele>
        <time>2013-01-12T11:35:10Z</time>
      </trkpt>
      <trkpt lat="45.34941" lon="5.8768">
        <ele>1865.5756835938</ele>
        <time>2013-01-12T11:35:24Z</time>
      </trkpt>
      <trkpt lat="45.34938" lon="5.87667">
        <ele>1868.4597167969</ele>
        <time>2013-01-12T11:35:35Z</time>
      </trkpt>
      <trkpt lat="45.34937" lon="5.87664">
        <ele>1864.6142578125</ele>
        <time>2013-01-12T11:35:38Z</time>
      </trkpt>
      <trkpt lat="45.34936" lon="5.87664">
        <ele>1868.4597167969</ele>
        <time>2013-01-12T11:35:39Z</time>
      </trkpt>
      <trkpt lat="45.34932" lon="5.87662">
        <ele>1867.498046875</ele>
        <time>2013-01-12T11:35:56Z</time>
      </trkpt>
      <trkpt lat="45.34926" lon="5.87658">
        <ele>1868.9404296875</ele>
        <time>2013-01-12T11:36:26Z</time>
      </trkpt>
      <trkpt lat="45.3492" lon="5.87649">
        <ele>1871.82421875</ele>
        <time>2013-01-12T11:36:43Z</time>
      </trkpt>
      <trkpt lat="45.34915" lon="5.87646">
        <ele>1875.1887207031</ele>
        <time>2013-01-12T11:36:52Z</time>
      </trkpt>
      <trkpt lat="45.34912" lon="5.87646">
        <ele>1871.82421875</ele>
        <time>2013-01-12T11:36:57Z</time>
      </trkpt>
      <trkpt lat="45.34912" lon="5.87644">
        <ele>1875.1887207031</ele>
        <time>2013-01-12T11:36:58Z</time>
      </trkpt>
      <trkpt lat="45.34911" lon="5.87643">
        <ele>1872.3049316406</ele>
        <time>2013-01-12T11:37:01Z</time>
      </trkpt>
      <trkpt lat="45.3491" lon="5.87641">
        <ele>1875.1887207031</ele>
        <time>2013-01-12T11:37:04Z</time>
      </trkpt>
      <trkpt lat="45.34905" lon="5.87642">
        <ele>1878.5534667969</ele>
        <time>2013-01-12T11:37:15Z</time>
      </trkpt>
      <trkpt lat="45.34899" lon="5.87642">
        <ele>1877.5920410156</ele>
        <time>2013-01-12T11:37:32Z</time>
      </trkpt>
      <trkpt lat="45.34892" lon="5.87633">
        <ele>1881.91796875</ele>
        <time>2013-01-12T11:37:51Z</time>
      </trkpt>
      <trkpt lat="45.34886" lon="5.87625">
        <ele>1884.8022460938</ele>
        <time>2013-01-12T11:38:07Z</time>
      </trkpt>
      <trkpt lat="45.34887" lon="5.87627">
        <ele>1882.8791503906</ele>
        <time>2013-01-12T11:38:10Z</time>
      </trkpt>
      <trkpt lat="45.3489" lon="5.87626">
        <ele>1886.724609375</ele>
        <time>2013-01-12T11:38:29Z</time>
      </trkpt>
      <trkpt lat="45.34895" lon="5.87619">
        <ele>1885.2827148438</ele>
        <time>2013-01-12T11:38:46Z</time>
      </trkpt>
      <trkpt lat="45.34896" lon="5.87618">
        <ele>1889.1279296875</ele>
        <time>2013-01-12T11:38:49Z</time>
      </trkpt>
      <trkpt lat="45.34893" lon="5.87615">
        <ele>1888.6474609375</ele>
        <time>2013-01-12T11:39:08Z</time>
      </trkpt>
      <trkpt lat="45.34893" lon="5.87615">
        <ele>1892.4926757812</ele>
        <time>2013-01-12T11:39:11Z</time>
      </trkpt>
      <trkpt lat="45.34889" lon="5.8761">
        <ele>1892.9731445312</ele>
        <time>2013-01-12T11:39:26Z</time>
      </trkpt>
      <trkpt lat="45.34879" lon="5.87612">
        <ele>1896.337890625</ele>
        <time>2013-01-12T11:39:39Z</time>
      </trkpt>
      <trkpt lat="45.34867" lon="5.87617">
        <ele>1897.7797851562</ele>
        <time>2013-01-12T11:40:00Z</time>
      </trkpt>
      <trkpt lat="45.34878" lon="5.87601">
        <ele>1900.6638183594</ele>
        <time>2013-01-12T11:40:19Z</time>
      </trkpt>
      <trkpt lat="45.34886" lon="5.87601">
        <ele>1901.6252441406</ele>
        <time>2013-01-12T11:40:25Z</time>
      </trkpt>
      <trkpt lat="45.34888" lon="5.87594">
        <ele>1902.1057128906</ele>
        <time>2013-01-12T11:40:29Z</time>
      </trkpt>
      <trkpt lat="45.34893" lon="5.87585">
        <ele>1903.5478515625</ele>
        <time>2013-01-12T11:40:52Z</time>
      </trkpt>
      <trkpt lat="45.34883" lon="5.87589">
        <ele>1906.9123535156</ele>
        <time>2013-01-12T11:41:05Z</time>
      </trkpt>
      <trkpt lat="45.34882" lon="5.87589">
        <ele>1905.9509277344</ele>
        <time>2013-01-12T11:41:06Z</time>
      </trkpt>
      <trkpt lat="45.34874" lon="5.87584">
        <ele>1909.7961425781</ele>
        <time>2013-01-12T11:41:22Z</time>
      </trkpt>
      <trkpt lat="45.3487" lon="5.87586">
        <ele>1905.4704589844</ele>
        <time>2013-01-12T11:41:26Z</time>
      </trkpt>
      <trkpt lat="45.3487" lon="5.87586">
        <ele>1909.7961425781</ele>
        <time>2013-01-12T11:41:27Z</time>
      </trkpt>
      <trkpt lat="45.34871" lon="5.87584">
        <ele>1906.431640625</ele>
        <time>2013-01-12T11:41:43Z</time>
      </trkpt>
      <trkpt lat="45.34872" lon="5.87581">
        <ele>1909.7961425781</ele>
        <time>2013-01-12T11:41:44Z</time>
      </trkpt>
      <trkpt lat="45.34874" lon="5.87579">
        <ele>1906.431640625</ele>
        <time>2013-01-12T11:41:45Z</time>
      </trkpt>
      <trkpt lat="45.34876" lon="5.87575">
        <ele>1910.2768554688</ele>
        <time>2013-01-12T11:41:48Z</time>
      </trkpt>
      <trkpt lat="45.34878" lon="5.87571">
        <ele>1909.3156738281</ele>
        <time>2013-01-12T11:42:07Z</time>
      </trkpt>
      <trkpt lat="45.34877" lon="5.8757">
        <ele>1914.6027832031</ele>
        <time>2013-01-12T11:42:08Z</time>
      </trkpt>
      <trkpt lat="45.34877" lon="5.87571">
        <ele>1910.7575683594</ele>
        <time>2013-01-12T11:42:09Z</time>
      </trkpt>
      <trkpt lat="45.34872" lon="5.87572">
        <ele>1914.1220703125</ele>
        <time>2013-01-12T11:42:16Z</time>
      </trkpt>
      <trkpt lat="45.34872" lon="5.87571">
        <ele>1910.7575683594</ele>
        <time>2013-01-12T11:42:17Z</time>
      </trkpt>
      <trkpt lat="45.3487" lon="5.87569">
        <ele>1914.1220703125</ele>
        <time>2013-01-12T11:42:20Z</time>
      </trkpt>
      <trkpt lat="45.34855" lon="5.87562">
        <ele>1917.0063476562</ele>
        <time>2013-01-12T11:42:37Z</time>
      </trkpt>
      <trkpt lat="45.34856" lon="5.8756">
        <ele>1913.6413574219</ele>
        <time>2013-01-12T11:42:39Z</time>
      </trkpt>
      <trkpt lat="45.34856" lon="5.87561">
        <ele>1917.0063476562</ele>
        <time>2013-01-12T11:42:40Z</time>
      </trkpt>
      <trkpt lat="45.34858" lon="5.87562">
        <ele>1916.044921875</ele>
        <time>2013-01-12T11:43:03Z</time>
      </trkpt>
      <trkpt lat="45.3487" lon="5.87553">
        <ele>1919.4096679688</ele>
        <time>2013-01-12T11:43:23Z</time>
      </trkpt>
      <trkpt lat="45.34864" lon="5.87555">
        <ele>1921.33203125</ele>
        <time>2013-01-12T11:43:51Z</time>
      </trkpt>
      <trkpt lat="45.3486" lon="5.87553">
        <ele>1923.2548828125</ele>
        <time>2013-01-12T11:43:57Z</time>
      </trkpt>
      <trkpt lat="45.34858" lon="5.8755">
        <ele>1924.2160644531</ele>
        <time>2013-01-12T11:44:01Z</time>
      </trkpt>
      <trkpt lat="45.34856" lon="5.87551">
        <ele>1920.8515625</ele>
        <time>2013-01-12T11:44:02Z</time>
      </trkpt>
      <trkpt lat="45.34857" lon="5.8755">
        <ele>1924.2160644531</ele>
        <time>2013-01-12T11:44:03Z</time>
      </trkpt>
      <trkpt lat="45.34855" lon="5.87549">
        <ele>1927.1000976562</ele>
        <time>2013-01-12T11:44:13Z</time>
      </trkpt>
      <trkpt lat="45.34855" lon="5.87549">
        <ele>1923.7353515625</ele>
        <time>2013-01-12T11:44:15Z</time>
      </trkpt>
      <trkpt lat="45.34847" lon="5.87546">
        <ele>1927.5805664062</ele>
        <time>2013-01-12T11:44:21Z</time>
      </trkpt>
      <trkpt lat="45.34843" lon="5.87545">
        <ele>1926.6193847656</ele>
        <time>2013-01-12T11:44:26Z</time>
      </trkpt>
      <trkpt lat="45.3485" lon="5.8754">
        <ele>1929.9838867188</ele>
        <time>2013-01-12T11:44:41Z</time>
      </trkpt>
      <trkpt lat="45.34861" lon="5.87524">
        <ele>1928.5419921875</ele>
        <time>2013-01-12T11:45:00Z</time>
      </trkpt>
      <trkpt lat="45.34862" lon="5.87523">
        <ele>1931.9064941406</ele>
        <time>2013-01-12T11:45:01Z</time>
      </trkpt>
      <trkpt lat="45.34863" lon="5.8752">
        <ele>1932.3874511719</ele>
        <time>2013-01-12T11:45:05Z</time>
      </trkpt>
      <trkpt lat="45.34865" lon="5.87523">
        <ele>1932.8679199219</ele>
        <time>2013-01-12T11:45:20Z</time>
      </trkpt>
      <trkpt lat="45.34857" lon="5.87534">
        <ele>1934.3100585938</ele>
        <time>2013-01-12T11:45:43Z</time>
      </trkpt>
      <trkpt lat="45.34851" lon="5.87534">
        <ele>1937.1938476562</ele>
        <time>2013-01-12T11:45:53Z</time>
      </trkpt>
      <trkpt lat="45.3485" lon="5.87534">
        <ele>1933.8293457031</ele>
        <time>2013-01-12T11:45:54Z</time>
      </trkpt>
      <trkpt lat="45.34845" lon="5.87529">
        <ele>1937.1938476562</ele>
        <time>2013-01-12T11:45:59Z</time>
      </trkpt>
      <trkpt lat="45.34843" lon="5.87523">
        <ele>1938.6359863281</ele>
        <time>2013-01-12T11:46:05Z</time>
      </trkpt>
      <trkpt lat="45.34837" lon="5.87519">
        <ele>1941.0390625</ele>
        <time>2013-01-12T11:46:19Z</time>
      </trkpt>
      <trkpt lat="45.34832" lon="5.87523">
        <ele>1939.5971679688</ele>
        <time>2013-01-12T11:46:40Z</time>
      </trkpt>
      <trkpt lat="45.34832" lon="5.87522">
        <ele>1942.9616699219</ele>
        <time>2013-01-12T11:46:45Z</time>
      </trkpt>
      <trkpt lat="45.34839" lon="5.87513">
        <ele>1941.5197753906</ele>
        <time>2013-01-12T11:47:04Z</time>
      </trkpt>
      <trkpt lat="45.34842" lon="5.87511">
        <ele>1944.8842773438</ele>
        <time>2013-01-12T11:47:09Z</time>
      </trkpt>
      <trkpt lat="45.34847" lon="5.87509">
        <ele>1947.2875976562</ele>
        <time>2013-01-12T11:47:26Z</time>
      </trkpt>
      <trkpt lat="45.34846" lon="5.87508">
        <ele>1943.4423828125</ele>
        <time>2013-01-12T11:47:27Z</time>
      </trkpt>
      <trkpt lat="45.34844" lon="5.8751">
        <ele>1947.7683105469</ele>
        <time>2013-01-12T11:47:30Z</time>
      </trkpt>
      <trkpt lat="45.34835" lon="5.87512">
        <ele>1948.7297363281</ele>
        <time>2013-01-12T11:47:42Z</time>
      </trkpt>
      <trkpt lat="45.34832" lon="5.87513">
        <ele>1951.1330566406</ele>
        <time>2013-01-12T11:48:01Z</time>
      </trkpt>
      <trkpt lat="45.34834" lon="5.87503">
        <ele>1952.0942382812</ele>
        <time>2013-01-12T11:48:15Z</time>
      </trkpt>
      <trkpt lat="45.34837" lon="5.87497">
        <ele>1953.5363769531</ele>
        <time>2013-01-12T11:48:18Z</time>
      </trkpt>
      <trkpt lat="45.34845" lon="5.87487">
        <ele>1955.939453125</ele>
        <time>2013-01-12T11:48:43Z</time>
      </trkpt>
      <trkpt lat="45.34841" lon="5.87491">
        <ele>1952.5749511719</ele>
        <time>2013-01-12T11:48:44Z</time>
      </trkpt>
      <trkpt lat="45.34836" lon="5.87488">
        <ele>1956.9008789062</ele>
        <time>2013-01-12T11:48:47Z</time>
      </trkpt>
      <trkpt lat="45.34833" lon="5.87487">
        <ele>1954.0170898438</ele>
        <time>2013-01-12T11:48:56Z</time>
      </trkpt>
      <trkpt lat="45.34832" lon="5.87487">
        <ele>1957.3815917969</ele>
        <time>2013-01-12T11:48:57Z</time>
      </trkpt>
      <trkpt lat="45.34827" lon="5.87488">
        <ele>1960.74609375</ele>
        <time>2013-01-12T11:49:10Z</time>
      </trkpt>
      <trkpt lat="45.34827" lon="5.87488">
        <ele>1956.9008789062</ele>
        <time>2013-01-12T11:49:11Z</time>
      </trkpt>
      <trkpt lat="45.34827" lon="5.87487">
        <ele>1960.74609375</ele>
        <time>2013-01-12T11:49:15Z</time>
      </trkpt>
      <trkpt lat="45.34824" lon="5.87487">
        <ele>1957.8623046875</ele>
        <time>2013-01-12T11:49:22Z</time>
      </trkpt>
      <trkpt lat="45.34824" lon="5.87487">
        <ele>1962.1879882812</ele>
        <time>2013-01-12T11:49:23Z</time>
      </trkpt>
      <trkpt lat="45.34829" lon="5.87476">
        <ele>1960.74609375</ele>
        <time>2013-01-12T11:49:40Z</time>
      </trkpt>
      <trkpt lat="45.3483" lon="5.87473">
        <ele>1965.072265625</ele>
        <time>2013-01-12T11:49:50Z</time>
      </trkpt>
      <trkpt lat="45.34829" lon="5.87473">
        <ele>1960.74609375</ele>
        <time>2013-01-12T11:49:54Z</time>
      </trkpt>
      <trkpt lat="45.34829" lon="5.87472">
        <ele>1964.1108398438</ele>
        <time>2013-01-12T11:49:56Z</time>
      </trkpt>
      <trkpt lat="45.34825" lon="5.87477">
        <ele>1965.5529785156</ele>
        <time>2013-01-12T11:50:00Z</time>
      </trkpt>
      <trkpt lat="45.34819" lon="5.8748">
        <ele>1965.5529785156</ele>
        <time>2013-01-12T11:50:04Z</time>
      </trkpt>
      <trkpt lat="45.34817" lon="5.87478">
        <ele>1966.5141601562</ele>
        <time>2013-01-12T11:50:06Z</time>
      </trkpt>
      <trkpt lat="45.34818" lon="5.87475">
        <ele>1963.1494140625</ele>
        <time>2013-01-12T11:50:07Z</time>
      </trkpt>
      <trkpt lat="45.34817" lon="5.87475">
        <ele>1966.5141601562</ele>
        <time>2013-01-12T11:50:08Z</time>
      </trkpt>
      <trkpt lat="45.34806" lon="5.87481">
        <ele>1966.5141601562</ele>
        <time>2013-01-12T11:50:23Z</time>
      </trkpt>
      <trkpt lat="45.34806" lon="5.87481">
        <ele>1969.8786621094</ele>
        <time>2013-01-12T11:50:24Z</time>
      </trkpt>
      <trkpt lat="45.3481" lon="5.87469">
        <ele>1969.8786621094</ele>
        <time>2013-01-12T11:50:45Z</time>
      </trkpt>
      <trkpt lat="45.34811" lon="5.87465">
        <ele>1973.2434082031</ele>
        <time>2013-01-12T11:50:48Z</time>
      </trkpt>
      <trkpt lat="45.34813" lon="5.87464">
        <ele>1969.8786621094</ele>
        <time>2013-01-12T11:50:52Z</time>
      </trkpt>
      <trkpt lat="45.34817" lon="5.87462">
        <ele>1973.7238769531</ele>
        <time>2013-01-12T11:50:56Z</time>
      </trkpt>
      <trkpt lat="45.34819" lon="5.8746">
        <ele>1970.8400878906</ele>
        <time>2013-01-12T11:50:59Z</time>
      </trkpt>
      <trkpt lat="45.3482" lon="5.87458">
        <ele>1974.2045898438</ele>
        <time>2013-01-12T11:51:00Z</time>
      </trkpt>
      <trkpt lat="45.34832" lon="5.87445">
        <ele>1975.1657714844</ele>
        <time>2013-01-12T11:51:06Z</time>
      </trkpt>
      <trkpt lat="45.34837" lon="5.87442">
        <ele>1976.1271972656</ele>
        <time>2013-01-12T11:51:10Z</time>
      </trkpt>
      <trkpt lat="45.34841" lon="5.87443">
        <ele>1972.7626953125</ele>
        <time>2013-01-12T11:51:38Z</time>
      </trkpt>
      <trkpt lat="45.34834" lon="5.87452">
        <ele>1976.1271972656</ele>
        <time>2013-01-12T11:51:46Z</time>
      </trkpt>
      <trkpt lat="45.34818" lon="5.87451">
        <ele>1979.0109863281</ele>
        <time>2013-01-12T11:52:00Z</time>
      </trkpt>
      <trkpt lat="45.34818" lon="5.87451">
        <ele>1975.646484375</ele>
        <time>2013-01-12T11:52:01Z</time>
      </trkpt>
      <trkpt lat="45.34817" lon="5.8745">
        <ele>1978.5305175781</ele>
        <time>2013-01-12T11:52:02Z</time>
      </trkpt>
      <trkpt lat="45.34807" lon="5.87448">
        <ele>1982.8564453125</ele>
        <time>2013-01-12T11:52:16Z</time>
      </trkpt>
      <trkpt lat="45.34807" lon="5.87448">
        <ele>1979.4916992188</ele>
        <time>2013-01-12T11:52:17Z</time>
      </trkpt>
      <trkpt lat="45.34805" lon="5.87448">
        <ele>1982.3759765625</ele>
        <time>2013-01-12T11:52:18Z</time>
      </trkpt>
      <trkpt lat="45.34805" lon="5.87449">
        <ele>1983.3371582031</ele>
        <time>2013-01-12T11:52:24Z</time>
      </trkpt>
      <trkpt lat="45.34805" lon="5.87448">
        <ele>1980.4533691406</ele>
        <time>2013-01-12T11:52:28Z</time>
      </trkpt>
      <trkpt lat="45.34806" lon="5.87446">
        <ele>1984.2985839844</ele>
        <time>2013-01-12T11:52:30Z</time>
      </trkpt>
      <trkpt lat="45.34834" lon="5.87414">
        <ele>1986.7016601562</ele>
        <time>2013-01-12T11:52:56Z</time>
      </trkpt>
      <trkpt lat="45.34828" lon="5.8742">
        <ele>1987.1823730469</ele>
        <time>2013-01-12T11:53:18Z</time>
      </trkpt>
      <trkpt lat="45.34818" lon="5.87434">
        <ele>1990.546875</ele>
        <time>2013-01-12T11:53:49Z</time>
      </trkpt>
      <trkpt lat="45.34815" lon="5.87436">
        <ele>1991.0275878906</ele>
        <time>2013-01-12T11:53:51Z</time>
      </trkpt>
      <trkpt lat="45.34811" lon="5.87434">
        <ele>1991.9890136719</ele>
        <time>2013-01-12T11:53:54Z</time>
      </trkpt>
      <trkpt lat="45.3481" lon="5.87434">
        <ele>1989.1049804688</ele>
        <time>2013-01-12T11:53:55Z</time>
      </trkpt>
      <trkpt lat="45.34809" lon="5.87432">
        <ele>1992.9501953125</ele>
        <time>2013-01-12T11:53:56Z</time>
      </trkpt>
      <trkpt lat="45.34809" lon="5.87431">
        <ele>1988.6245117188</ele>
        <time>2013-01-12T11:53:57Z</time>
      </trkpt>
      <trkpt lat="45.34808" lon="5.8743">
        <ele>1991.9890136719</ele>
        <time>2013-01-12T11:53:58Z</time>
      </trkpt>
      <trkpt lat="45.34799" lon="5.87425">
        <ele>1994.8728027344</ele>
        <time>2013-01-12T11:54:11Z</time>
      </trkpt>
      <trkpt lat="45.34798" lon="5.87425">
        <ele>1991.9890136719</ele>
        <time>2013-01-12T11:54:12Z</time>
      </trkpt>
      <trkpt lat="45.34799" lon="5.87427">
        <ele>1995.8342285156</ele>
        <time>2013-01-12T11:54:14Z</time>
      </trkpt>
      <trkpt lat="45.348" lon="5.87427">
        <ele>1995.8342285156</ele>
        <time>2013-01-12T11:54:15Z</time>
      </trkpt>
      <trkpt lat="45.34799" lon="5.87427">
        <ele>1998.7182617188</ele>
        <time>2013-01-12T11:54:31Z</time>
      </trkpt>
      <trkpt lat="45.34799" lon="5.87428">
        <ele>1995.353515625</ele>
        <time>2013-01-12T11:55:25Z</time>
      </trkpt>
      <trkpt lat="45.34799" lon="5.87428">
        <ele>1998.7182617188</ele>
        <time>2013-01-12T11:55:34Z</time>
      </trkpt>
      <trkpt lat="45.34795" lon="5.87423">
        <ele>2002.0827636719</ele>
        <time>2013-01-12T11:55:43Z</time>
      </trkpt>
      <trkpt lat="45.34793" lon="5.8742">
        <ele>1998.7182617188</ele>
        <time>2013-01-12T11:55:46Z</time>
      </trkpt>
      <trkpt lat="45.34792" lon="5.8742">
        <ele>2002.0827636719</ele>
        <time>2013-01-12T11:55:47Z</time>
      </trkpt>
      <trkpt lat="45.34787" lon="5.87408">
        <ele>2003.5249023438</ele>
        <time>2013-01-12T11:56:02Z</time>
      </trkpt>
      <trkpt lat="45.34788" lon="5.87403">
        <ele>2007.3701171875</ele>
        <time>2013-01-12T11:56:18Z</time>
      </trkpt>
      <trkpt lat="45.34788" lon="5.87403">
        <ele>2005.9279785156</ele>
        <time>2013-01-12T11:56:19Z</time>
      </trkpt>
      <trkpt lat="45.34792" lon="5.87401">
        <ele>2006.4086914062</ele>
        <time>2013-01-12T11:56:24Z</time>
      </trkpt>
      <trkpt lat="45.34801" lon="5.87395">
        <ele>2008.3312988281</ele>
        <time>2013-01-12T11:56:47Z</time>
      </trkpt>
      <trkpt lat="45.34801" lon="5.87395">
        <ele>2011.6960449219</ele>
        <time>2013-01-12T11:56:50Z</time>
      </trkpt>
      <trkpt lat="45.34801" lon="5.87395">
        <ele>2009.2927246094</ele>
        <time>2013-01-12T11:56:51Z</time>
      </trkpt>
      <trkpt lat="45.34792" lon="5.87392">
        <ele>2012.1767578125</ele>
        <time>2013-01-12T11:57:07Z</time>
      </trkpt>
      <trkpt lat="45.34791" lon="5.87391">
        <ele>2009.2927246094</ele>
        <time>2013-01-12T11:57:08Z</time>
      </trkpt>
      <trkpt lat="45.3479" lon="5.87392">
        <ele>2012.1767578125</ele>
        <time>2013-01-12T11:57:09Z</time>
      </trkpt>
      <trkpt lat="45.34782" lon="5.87385">
        <ele>2016.0219726562</ele>
        <time>2013-01-12T11:57:23Z</time>
      </trkpt>
      <trkpt lat="45.34782" lon="5.87385">
        <ele>2014.580078125</ele>
        <time>2013-01-12T11:57:24Z</time>
      </trkpt>
      <trkpt lat="45.34775" lon="5.87381">
        <ele>2018.4252929688</ele>
        <time>2013-01-12T11:57:36Z</time>
      </trkpt>
      <trkpt lat="45.34773" lon="5.87378">
        <ele>2015.5415039062</ele>
        <time>2013-01-12T11:57:41Z</time>
      </trkpt>
      <trkpt lat="45.34773" lon="5.87378">
        <ele>2018.4252929688</ele>
        <time>2013-01-12T11:57:42Z</time>
      </trkpt>
      <trkpt lat="45.34765" lon="5.87371">
        <ele>2019.8671875</ele>
        <time>2013-01-12T11:58:02Z</time>
      </trkpt>
      <trkpt lat="45.34754" lon="5.87367">
        <ele>2024.1931152344</ele>
        <time>2013-01-12T11:58:17Z</time>
      </trkpt>
      <trkpt lat="45.34753" lon="5.87366">
        <ele>2020.8286132812</ele>
        <time>2013-01-12T11:58:19Z</time>
      </trkpt>
      <trkpt lat="45.34748" lon="5.87357">
        <ele>2024.1931152344</ele>
        <time>2013-01-12T11:58:43Z</time>
      </trkpt>
      <trkpt lat="45.34741" lon="5.87348">
        <ele>2027.0771484375</ele>
        <time>2013-01-12T11:58:58Z</time>
      </trkpt>
      <trkpt lat="45.34739" lon="5.87348">
        <ele>2023.2319335938</ele>
        <time>2013-01-12T11:58:59Z</time>
      </trkpt>
      <trkpt lat="45.34737" lon="5.87346">
        <ele>2026.5964355469</ele>
        <time>2013-01-12T11:59:03Z</time>
      </trkpt>
      <trkpt lat="45.34728" lon="5.87347">
        <ele>2029.48046875</ele>
        <time>2013-01-12T11:59:15Z</time>
      </trkpt>
      <trkpt lat="45.34725" lon="5.87346">
        <ele>2025.6350097656</ele>
        <time>2013-01-12T11:59:19Z</time>
      </trkpt>
      <trkpt lat="45.34721" lon="5.87346">
        <ele>2028.5192871094</ele>
        <time>2013-01-12T11:59:23Z</time>
      </trkpt>
      <trkpt lat="45.34714" lon="5.87342">
        <ele>2028.9997558594</ele>
        <time>2013-01-12T11:59:41Z</time>
      </trkpt>
      <trkpt lat="45.3471" lon="5.87337">
        <ele>2032.8449707031</ele>
        <time>2013-01-12T12:00:07Z</time>
      </trkpt>
      <trkpt lat="45.34702" lon="5.87333">
        <ele>2033.8063964844</ele>
        <time>2013-01-12T12:00:24Z</time>
      </trkpt>
      <trkpt lat="45.34701" lon="5.87331">
        <ele>2036.2097167969</ele>
        <time>2013-01-12T12:00:33Z</time>
      </trkpt>
      <trkpt lat="45.34704" lon="5.87323">
        <ele>2037.1708984375</ele>
        <time>2013-01-12T12:00:54Z</time>
      </trkpt>
      <trkpt lat="45.34704" lon="5.87324">
        <ele>2040.5354003906</ele>
        <time>2013-01-12T12:00:59Z</time>
      </trkpt>
      <trkpt lat="45.34702" lon="5.87323">
        <ele>2037.1708984375</ele>
        <time>2013-01-12T12:01:02Z</time>
      </trkpt>
      <trkpt lat="45.34702" lon="5.87324">
        <ele>2040.5354003906</ele>
        <time>2013-01-12T12:01:16Z</time>
      </trkpt>
      <trkpt lat="45.34702" lon="5.87322">
        <ele>2037.1708984375</ele>
        <time>2013-01-12T12:01:25Z</time>
      </trkpt>
      <trkpt lat="45.34702" lon="5.8732">
        <ele>2040.5354003906</ele>
        <time>2013-01-12T12:01:31Z</time>
      </trkpt>
      <trkpt lat="45.34702" lon="5.87319">
        <ele>2041.0161132812</ele>
        <time>2013-01-12T12:01:56Z</time>
      </trkpt>
      <trkpt lat="45.34701" lon="5.87316">
        <ele>2044.380859375</ele>
        <time>2013-01-12T12:02:19Z</time>
      </trkpt>
      <trkpt lat="45.347" lon="5.87316">
        <ele>2040.0549316406</ele>
        <time>2013-01-12T12:02:20Z</time>
      </trkpt>
      <trkpt lat="45.34698" lon="5.87316">
        <ele>2043.4194335938</ele>
        <time>2013-01-12T12:02:24Z</time>
      </trkpt>
      <trkpt lat="45.34697" lon="5.87316">
        <ele>2039.57421875</ele>
        <time>2013-01-12T12:02:33Z</time>
      </trkpt>
      <trkpt lat="45.34697" lon="5.87316">
        <ele>2044.8615722656</ele>
        <time>2013-01-12T12:02:34Z</time>
      </trkpt>
      <trkpt lat="45.34697" lon="5.87315">
        <ele>2044.8615722656</ele>
        <time>2013-01-12T12:02:44Z</time>
      </trkpt>
      <trkpt lat="45.34697" lon="5.87316">
        <ele>2041.4968261719</ele>
        <time>2013-01-12T12:03:19Z</time>
      </trkpt>
      <trkpt lat="45.34697" lon="5.87316">
        <ele>2045.3422851562</ele>
        <time>2013-01-12T12:03:21Z</time>
      </trkpt>
      <trkpt lat="45.34697" lon="5.87316">
        <ele>2044.8615722656</ele>
        <time>2013-01-12T12:03:22Z</time>
      </trkpt>
      <trkpt lat="45.34697" lon="5.87316">
        <ele>2044.380859375</ele>
        <time>2013-01-12T12:03:28Z</time>
      </trkpt>
      <trkpt lat="45.34697" lon="5.87316">
        <ele>2045.3422851562</ele>
        <time>2013-01-12T12:05:52Z</time>
      </trkpt>
      <trkpt lat="45.34697" lon="5.87316">
        <ele>2044.380859375</ele>
        <time>2013-01-12T12:05:54Z</time>
      </trkpt>
      <trkpt lat="45.34697" lon="5.87316">
        <ele>2044.380859375</ele>
        <time>2013-01-12T12:08:12Z</time>
      </trkpt>
      <trkpt lat="45.34697" lon="5.87316">
        <ele>2041.9775390625</ele>
        <time>2013-01-12T12:10:50Z</time>
      </trkpt>
      <trkpt lat="45.34696" lon="5.87317">
        <ele>2043.9001464844</ele>
        <time>2013-01-12T12:14:05Z</time>
      </trkpt>
      <trkpt lat="45.34695" lon="5.87316">
        <ele>2042.9387207031</ele>
        <time>2013-01-12T12:14:26Z</time>
      </trkpt>
      <trkpt lat="45.34695" lon="5.87317">
        <ele>2042.4582519531</ele>
        <time>2013-01-12T12:15:39Z</time>
      </trkpt>
      <trkpt lat="45.34698" lon="5.87327">
        <ele>2038.1323242188</ele>
        <time>2013-01-12T12:15:43Z</time>
      </trkpt>
      <trkpt lat="45.34701" lon="5.8733">
        <ele>2036.2097167969</ele>
        <time>2013-01-12T12:15:48Z</time>
      </trkpt>
      <trkpt lat="45.34703" lon="5.87333">
        <ele>2034.287109375</ele>
        <time>2013-01-12T12:15:54Z</time>
      </trkpt>
      <trkpt lat="45.34714" lon="5.87344">
        <ele>2028.5192871094</ele>
        <time>2013-01-12T12:15:57Z</time>
      </trkpt>
      <trkpt lat="45.34724" lon="5.8735">
        <ele>2027.0771484375</ele>
        <time>2013-01-12T12:15:59Z</time>
      </trkpt>
      <trkpt lat="45.34727" lon="5.87351">
        <ele>2026.1157226562</ele>
        <time>2013-01-12T12:16:00Z</time>
      </trkpt>
      <trkpt lat="45.34732" lon="5.8735">
        <ele>2025.6350097656</ele>
        <time>2013-01-12T12:16:02Z</time>
      </trkpt>
      <trkpt lat="45.34739" lon="5.87341">
        <ele>2013.1381835938</ele>
        <time>2013-01-12T12:16:42Z</time>
      </trkpt>
      <trkpt lat="45.34784" lon="5.87395">
        <ele>2008.3312988281</ele>
        <time>2013-01-12T12:16:49Z</time>
      </trkpt>
      <trkpt lat="45.34786" lon="5.87396">
        <ele>2007.8508300781</ele>
        <time>2013-01-12T12:16:50Z</time>
      </trkpt>
      <trkpt lat="45.34786" lon="5.87399">
        <ele>2007.8508300781</ele>
        <time>2013-01-12T12:16:53Z</time>
      </trkpt>
      <trkpt lat="45.34793" lon="5.87405">
        <ele>2005.9279785156</ele>
        <time>2013-01-12T12:16:59Z</time>
      </trkpt>
      <trkpt lat="45.34792" lon="5.87407">
        <ele>2005.4475097656</ele>
        <time>2013-01-12T12:17:22Z</time>
      </trkpt>
      <trkpt lat="45.34794" lon="5.87416">
        <ele>2003.5249023438</ele>
        <time>2013-01-12T12:17:25Z</time>
      </trkpt>
      <trkpt lat="45.34793" lon="5.87422">
        <ele>2000.1604003906</ele>
        <time>2013-01-12T12:17:26Z</time>
      </trkpt>
      <trkpt lat="45.34793" lon="5.87436">
        <ele>1996.3151855469</ele>
        <time>2013-01-12T12:17:28Z</time>
      </trkpt>
      <trkpt lat="45.34792" lon="5.8745">
        <ele>1989.5856933594</ele>
        <time>2013-01-12T12:17:30Z</time>
      </trkpt>
      <trkpt lat="45.34795" lon="5.87458">
        <ele>1986.2211914062</ele>
        <time>2013-01-12T12:17:32Z</time>
      </trkpt>
      <trkpt lat="45.34796" lon="5.87458">
        <ele>1986.2211914062</ele>
        <time>2013-01-12T12:17:33Z</time>
      </trkpt>
      <trkpt lat="45.34797" lon="5.87457">
        <ele>1986.2211914062</ele>
        <time>2013-01-12T12:17:53Z</time>
      </trkpt>
      <trkpt lat="45.34798" lon="5.87456">
        <ele>1986.7016601562</ele>
        <time>2013-01-12T12:21:14Z</time>
      </trkpt>
      <trkpt lat="45.34805" lon="5.87458">
        <ele>1982.8564453125</ele>
        <time>2013-01-12T12:21:17Z</time>
      </trkpt>
      <trkpt lat="45.34817" lon="5.87461">
        <ele>1977.5690917969</ele>
        <time>2013-01-12T12:21:19Z</time>
      </trkpt>
      <trkpt lat="45.34821" lon="5.87466">
        <ele>1973.7238769531</ele>
        <time>2013-01-12T12:21:20Z</time>
      </trkpt>
      <trkpt lat="45.34823" lon="5.8747">
        <ele>1974.2045898438</ele>
        <time>2013-01-12T12:21:21Z</time>
      </trkpt>
      <trkpt lat="45.34822" lon="5.87472">
        <ele>1971.8012695312</ele>
        <time>2013-01-12T12:21:22Z</time>
      </trkpt>
      <trkpt lat="45.34822" lon="5.8749">
        <ele>1963.6298828125</ele>
        <time>2013-01-12T12:21:26Z</time>
      </trkpt>
      <trkpt lat="45.34829" lon="5.87501">
        <ele>1959.3041992188</ele>
        <time>2013-01-12T12:21:29Z</time>
      </trkpt>
      <trkpt lat="45.34831" lon="5.87505">
        <ele>1955.939453125</ele>
        <time>2013-01-12T12:21:30Z</time>
      </trkpt>
      <trkpt lat="45.34838" lon="5.87516">
        <ele>1952.0942382812</ele>
        <time>2013-01-12T12:21:33Z</time>
      </trkpt>
      <trkpt lat="45.34837" lon="5.87524">
        <ele>1948.7297363281</ele>
        <time>2013-01-12T12:21:35Z</time>
      </trkpt>
      <trkpt lat="45.34837" lon="5.87536">
        <ele>1939.5971679688</ele>
        <time>2013-01-12T12:21:38Z</time>
      </trkpt>
      <trkpt lat="45.34838" lon="5.87537">
        <ele>1940.5583496094</ele>
        <time>2013-01-12T12:21:39Z</time>
      </trkpt>
      <trkpt lat="45.34838" lon="5.87537">
        <ele>1938.1552734375</ele>
        <time>2013-01-12T12:21:41Z</time>
      </trkpt>
      <trkpt lat="45.34838" lon="5.87537">
        <ele>1937.1938476562</ele>
        <time>2013-01-12T12:21:48Z</time>
      </trkpt>
      <trkpt lat="45.34842" lon="5.87555">
        <ele>1929.9838867188</ele>
        <time>2013-01-12T12:21:52Z</time>
      </trkpt>
      <trkpt lat="45.34848" lon="5.87567">
        <ele>1926.6193847656</ele>
        <time>2013-01-12T12:21:54Z</time>
      </trkpt>
      <trkpt lat="45.34853" lon="5.87581">
        <ele>1918.4482421875</ele>
        <time>2013-01-12T12:21:57Z</time>
      </trkpt>
      <trkpt lat="45.34856" lon="5.87587">
        <ele>1915.0834960938</ele>
        <time>2013-01-12T12:21:58Z</time>
      </trkpt>
      <trkpt lat="45.34859" lon="5.8759">
        <ele>1912.6801757812</ele>
        <time>2013-01-12T12:21:59Z</time>
      </trkpt>
      <trkpt lat="45.34867" lon="5.87597">
        <ele>1907.3930664062</ele>
        <time>2013-01-12T12:22:01Z</time>
      </trkpt>
      <trkpt lat="45.34867" lon="5.87598">
        <ele>1905.9509277344</ele>
        <time>2013-01-12T12:22:04Z</time>
      </trkpt>
      <trkpt lat="45.34869" lon="5.87594">
        <ele>1909.3156738281</ele>
        <time>2013-01-12T12:22:12Z</time>
      </trkpt>
      <trkpt lat="45.34869" lon="5.87593">
        <ele>1907.8737792969</ele>
        <time>2013-01-12T12:22:13Z</time>
      </trkpt>
      <trkpt lat="45.34869" lon="5.87594">
        <ele>1903.5478515625</ele>
        <time>2013-01-12T12:22:16Z</time>
      </trkpt>
      <trkpt lat="45.34872" lon="5.87607">
        <ele>1897.2990722656</ele>
        <time>2013-01-12T12:22:19Z</time>
      </trkpt>
      <trkpt lat="45.34871" lon="5.87616">
        <ele>1893.9345703125</ele>
        <time>2013-01-12T12:22:20Z</time>
      </trkpt>
      <trkpt lat="45.34872" lon="5.87626">
        <ele>1889.6086425781</ele>
        <time>2013-01-12T12:22:21Z</time>
      </trkpt>
      <trkpt lat="45.34874" lon="5.87642">
        <ele>1886.244140625</ele>
        <time>2013-01-12T12:22:23Z</time>
      </trkpt>
      <trkpt lat="45.34871" lon="5.87642">
        <ele>1875.1887207031</ele>
        <time>2013-01-12T12:22:25Z</time>
      </trkpt>
      <trkpt lat="45.34871" lon="5.87642">
        <ele>1891.0505371094</ele>
        <time>2013-01-12T12:22:26Z</time>
      </trkpt>
      <trkpt lat="45.34872" lon="5.87641">
        <ele>1887.2053222656</ele>
        <time>2013-01-12T12:22:27Z</time>
      </trkpt>
      <trkpt lat="45.34874" lon="5.87639">
        <ele>1883.3598632812</ele>
        <time>2013-01-12T12:22:29Z</time>
      </trkpt>
      <trkpt lat="45.34874" lon="5.87639">
        <ele>1883.3598632812</ele>
        <time>2013-01-12T12:22:52Z</time>
      </trkpt>
      <trkpt lat="45.34876" lon="5.8765">
        <ele>1877.1115722656</ele>
        <time>2013-01-12T12:22:55Z</time>
      </trkpt>
      <trkpt lat="45.34873" lon="5.87661">
        <ele>1872.7856445312</ele>
        <time>2013-01-12T12:22:58Z</time>
      </trkpt>
      <trkpt lat="45.34869" lon="5.87664">
        <ele>1867.9787597656</ele>
        <time>2013-01-12T12:23:00Z</time>
      </trkpt>
      <trkpt lat="45.34868" lon="5.87677">
        <ele>1862.6916503906</ele>
        <time>2013-01-12T12:23:02Z</time>
      </trkpt>
      <trkpt lat="45.34869" lon="5.87691">
        <ele>1857.8852539062</ele>
        <time>2013-01-12T12:23:04Z</time>
      </trkpt>
      <trkpt lat="45.34871" lon="5.87696">
        <ele>1852.1171875</ele>
        <time>2013-01-12T12:23:06Z</time>
      </trkpt>
      <trkpt lat="45.34871" lon="5.87709">
        <ele>1845.8686523438</ele>
        <time>2013-01-12T12:23:08Z</time>
      </trkpt>
      <trkpt lat="45.34871" lon="5.87714">
        <ele>1842.5041503906</ele>
        <time>2013-01-12T12:23:09Z</time>
      </trkpt>
      <trkpt lat="45.34872" lon="5.87723">
        <ele>1837.216796875</ele>
        <time>2013-01-12T12:23:11Z</time>
      </trkpt>
      <trkpt lat="45.34878" lon="5.87733">
        <ele>1832.890625</ele>
        <time>2013-01-12T12:23:13Z</time>
      </trkpt>
      <trkpt lat="45.34879" lon="5.87736">
        <ele>1829.0454101562</ele>
        <time>2013-01-12T12:23:14Z</time>
      </trkpt>
      <trkpt lat="45.34875" lon="5.87741">
        <ele>1822.7971191406</ele>
        <time>2013-01-12T12:23:16Z</time>
      </trkpt>
      <trkpt lat="45.34871" lon="5.8775">
        <ele>1818.4709472656</ele>
        <time>2013-01-12T12:23:18Z</time>
      </trkpt>
      <trkpt lat="45.34872" lon="5.87751">
        <ele>1819.4323730469</ele>
        <time>2013-01-12T12:23:19Z</time>
      </trkpt>
      <trkpt lat="45.34877" lon="5.87752">
        <ele>1817.990234375</ele>
        <time>2013-01-12T12:23:41Z</time>
      </trkpt>
      <trkpt lat="45.34881" lon="5.87757">
        <ele>1816.0676269531</ele>
        <time>2013-01-12T12:23:44Z</time>
      </trkpt>
      <trkpt lat="45.34881" lon="5.87766">
        <ele>1810.2998046875</ele>
        <time>2013-01-12T12:23:46Z</time>
      </trkpt>
      <trkpt lat="45.3488" lon="5.87772">
        <ele>1805.9738769531</ele>
        <time>2013-01-12T12:23:47Z</time>
      </trkpt>
      <trkpt lat="45.34878" lon="5.87778">
        <ele>1805.9738769531</ele>
        <time>2013-01-12T12:23:48Z</time>
      </trkpt>
      <trkpt lat="45.34877" lon="5.87784">
        <ele>1801.1672363281</ele>
        <time>2013-01-12T12:23:49Z</time>
      </trkpt>
      <trkpt lat="45.34878" lon="5.87797">
        <ele>1793.9575195312</ele>
        <time>2013-01-12T12:23:51Z</time>
      </trkpt>
      <trkpt lat="45.3489" lon="5.87811">
        <ele>1788.6704101562</ele>
        <time>2013-01-12T12:23:54Z</time>
      </trkpt>
      <trkpt lat="45.34892" lon="5.87816">
        <ele>1784.8249511719</ele>
        <time>2013-01-12T12:23:55Z</time>
      </trkpt>
      <trkpt lat="45.34896" lon="5.87823">
        <ele>1781.4602050781</ele>
        <time>2013-01-12T12:23:56Z</time>
      </trkpt>
      <trkpt lat="45.34902" lon="5.87829">
        <ele>1777.6149902344</ele>
        <time>2013-01-12T12:23:57Z</time>
      </trkpt>
      <trkpt lat="45.34917" lon="5.87847">
        <ele>1771.3662109375</ele>
        <time>2013-01-12T12:24:00Z</time>
      </trkpt>
      <trkpt lat="45.34928" lon="5.8786">
        <ele>1765.5986328125</ele>
        <time>2013-01-12T12:24:02Z</time>
      </trkpt>
      <trkpt lat="45.34932" lon="5.87868">
        <ele>1764.6372070312</ele>
        <time>2013-01-12T12:24:03Z</time>
      </trkpt>
      <trkpt lat="45.34945" lon="5.87886">
        <ele>1758.8693847656</ele>
        <time>2013-01-12T12:24:07Z</time>
      </trkpt>
      <trkpt lat="45.34947" lon="5.87885">
        <ele>1758.8693847656</ele>
        <time>2013-01-12T12:24:18Z</time>
      </trkpt>
      <trkpt lat="45.34951" lon="5.87892">
        <ele>1756.9467773438</ele>
        <time>2013-01-12T12:24:30Z</time>
      </trkpt>
      <trkpt lat="45.34957" lon="5.87902">
        <ele>1754.0627441406</ele>
        <time>2013-01-12T12:24:32Z</time>
      </trkpt>
      <trkpt lat="45.34962" lon="5.87917">
        <ele>1747.3334960938</ele>
        <time>2013-01-12T12:24:34Z</time>
      </trkpt>
      <trkpt lat="45.34964" lon="5.87924">
        <ele>1746.8527832031</ele>
        <time>2013-01-12T12:24:35Z</time>
      </trkpt>
      <trkpt lat="45.34964" lon="5.87934">
        <ele>1743.0075683594</ele>
        <time>2013-01-12T12:24:36Z</time>
      </trkpt>
      <trkpt lat="45.34965" lon="5.87949">
        <ele>1738.2009277344</ele>
        <time>2013-01-12T12:24:38Z</time>
      </trkpt>
      <trkpt lat="45.34974" lon="5.87977">
        <ele>1729.068359375</ele>
        <time>2013-01-12T12:24:42Z</time>
      </trkpt>
      <trkpt lat="45.34978" lon="5.87982">
        <ele>1726.1845703125</ele>
        <time>2013-01-12T12:24:43Z</time>
      </trkpt>
      <trkpt lat="45.34987" lon="5.87992">
        <ele>1724.7426757812</ele>
        <time>2013-01-12T12:24:46Z</time>
      </trkpt>
      <trkpt lat="45.34989" lon="5.87993">
        <ele>1724.2619628906</ele>
        <time>2013-01-12T12:24:55Z</time>
      </trkpt>
      <trkpt lat="45.34988" lon="5.88001">
        <ele>1720.8972167969</ele>
        <time>2013-01-12T12:24:58Z</time>
      </trkpt>
      <trkpt lat="45.34983" lon="5.88011">
        <ele>1718.974609375</ele>
        <time>2013-01-12T12:25:00Z</time>
      </trkpt>
      <trkpt lat="45.34979" lon="5.88017">
        <ele>1715.6101074219</ele>
        <time>2013-01-12T12:25:01Z</time>
      </trkpt>
      <trkpt lat="45.34975" lon="5.88024">
        <ele>1713.2067871094</ele>
        <time>2013-01-12T12:25:02Z</time>
      </trkpt>
      <trkpt lat="45.34969" lon="5.88039">
        <ele>1708.4001464844</ele>
        <time>2013-01-12T12:25:04Z</time>
      </trkpt>
      <trkpt lat="45.34962" lon="5.88052">
        <ele>1704.5546875</ele>
        <time>2013-01-12T12:25:06Z</time>
      </trkpt>
      <trkpt lat="45.34954" lon="5.88068">
        <ele>1702.6320800781</ele>
        <time>2013-01-12T12:25:08Z</time>
      </trkpt>
      <trkpt lat="45.34947" lon="5.88085">
        <ele>1700.7094726562</ele>
        <time>2013-01-12T12:25:14Z</time>
      </trkpt>
      <trkpt lat="45.34947" lon="5.88083">
        <ele>1699.7482910156</ele>
        <time>2013-01-12T12:27:29Z</time>
      </trkpt>
      <trkpt lat="45.34947" lon="5.88083">
        <ele>1694.4609375</ele>
        <time>2013-01-12T12:27:33Z</time>
      </trkpt>
      <trkpt lat="45.34947" lon="5.88083">
        <ele>1708.880859375</ele>
        <time>2013-01-12T12:27:34Z</time>
      </trkpt>
      <trkpt lat="45.34947" lon="5.88083">
        <ele>1704.5546875</ele>
        <time>2013-01-12T12:27:35Z</time>
      </trkpt>
      <trkpt lat="45.34947" lon="5.88083">
        <ele>1701.1901855469</ele>
        <time>2013-01-12T12:27:37Z</time>
      </trkpt>
      <trkpt lat="45.34947" lon="5.88083">
        <ele>1701.1901855469</ele>
        <time>2013-01-12T12:28:25Z</time>
      </trkpt>
      <trkpt lat="45.34949" lon="5.88082">
        <ele>1700.7094726562</ele>
        <time>2013-01-12T12:28:49Z</time>
      </trkpt>
      <trkpt lat="45.34949" lon="5.88081">
        <ele>1702.1513671875</ele>
        <time>2013-01-12T12:29:07Z</time>
      </trkpt>
      <trkpt lat="45.3495" lon="5.8808">
        <ele>1693.4997558594</ele>
        <time>2013-01-12T12:29:25Z</time>
      </trkpt>
      <trkpt lat="45.3495" lon="5.8808">
        <ele>1700.2290039062</ele>
        <time>2013-01-12T12:29:26Z</time>
      </trkpt>
      <trkpt lat="45.3495" lon="5.8808">
        <ele>1696.8642578125</ele>
        <time>2013-01-12T12:29:39Z</time>
      </trkpt>
      <trkpt lat="45.3495" lon="5.8808">
        <ele>1699.267578125</ele>
        <time>2013-01-12T12:29:40Z</time>
      </trkpt>
      <trkpt lat="45.3495" lon="5.8808">
        <ele>1703.5935058594</ele>
        <time>2013-01-12T12:29:42Z</time>
      </trkpt>
      <trkpt lat="45.3495" lon="5.8808">
        <ele>1702.1513671875</ele>
        <time>2013-01-12T12:29:43Z</time>
      </trkpt>
      <trkpt lat="45.3495" lon="5.8808">
        <ele>1701.6708984375</ele>
        <time>2013-01-12T12:29:45Z</time>
      </trkpt>
      <trkpt lat="45.3495" lon="5.8808">
        <ele>1693.4997558594</ele>
        <time>2013-01-12T12:32:09Z</time>
      </trkpt>
      <trkpt lat="45.3495" lon="5.8808">
        <ele>1699.267578125</ele>
        <time>2013-01-12T12:32:10Z</time>
      </trkpt>
      <trkpt lat="45.3495" lon="5.88079">
        <ele>1700.7094726562</ele>
        <time>2013-01-12T12:33:32Z</time>
      </trkpt>
      <trkpt lat="45.3495" lon="5.88079">
        <ele>1699.7482910156</ele>
        <time>2013-01-12T12:33:54Z</time>
      </trkpt>
      <trkpt lat="45.3495" lon="5.88079">
        <ele>1701.1901855469</ele>
        <time>2013-01-12T12:33:56Z</time>
      </trkpt>
      <trkpt lat="45.3495" lon="5.88079">
        <ele>1696.3837890625</ele>
        <time>2013-01-12T12:34:42Z</time>
      </trkpt>
      <trkpt lat="45.3495" lon="5.88079">
        <ele>1701.6708984375</ele>
        <time>2013-01-12T12:34:43Z</time>
      </trkpt>
      <trkpt lat="45.3495" lon="5.88079">
        <ele>1701.6708984375</ele>
        <time>2013-01-12T12:34:44Z</time>
      </trkpt>
      <trkpt lat="45.3495" lon="5.88079">
        <ele>1694.9416503906</ele>
        <time>2013-01-12T12:35:01Z</time>
      </trkpt>
      <trkpt lat="45.3495" lon="5.88079">
        <ele>1699.7482910156</ele>
        <time>2013-01-12T12:35:02Z</time>
      </trkpt>
      <trkpt lat="45.3495" lon="5.88079">
        <ele>1700.7094726562</ele>
        <time>2013-01-12T12:35:04Z</time>
      </trkpt>
      <trkpt lat="45.3495" lon="5.88079">
        <ele>1700.7094726562</ele>
        <time>2013-01-12T12:35:53Z</time>
      </trkpt>
      <trkpt lat="45.3495" lon="5.88079">
        <ele>1704.07421875</ele>
        <time>2013-01-12T12:36:05Z</time>
      </trkpt>
      <trkpt lat="45.3495" lon="5.88079">
        <ele>1701.1901855469</ele>
        <time>2013-01-12T12:36:08Z</time>
      </trkpt>
      <trkpt lat="45.3495" lon="5.88079">
        <ele>1696.8642578125</ele>
        <time>2013-01-12T12:36:24Z</time>
      </trkpt>
      <trkpt lat="45.3495" lon="5.88079">
        <ele>1699.267578125</ele>
        <time>2013-01-12T12:36:25Z</time>
      </trkpt>
      <trkpt lat="45.3495" lon="5.88079">
        <ele>1700.7094726562</ele>
        <time>2013-01-12T12:36:28Z</time>
      </trkpt>
      <trkpt lat="45.3495" lon="5.8808">
        <ele>1704.07421875</ele>
        <time>2013-01-12T12:45:41Z</time>
      </trkpt>
      <trkpt lat="45.3495" lon="5.8808">
        <ele>1700.7094726562</ele>
        <time>2013-01-12T12:45:44Z</time>
      </trkpt>
      <trkpt lat="45.3495" lon="5.8808">
        <ele>1705.5161132812</ele>
        <time>2013-01-12T12:46:36Z</time>
      </trkpt>
      <trkpt lat="45.3495" lon="5.8808">
        <ele>1702.6320800781</ele>
        <time>2013-01-12T12:46:37Z</time>
      </trkpt>
      <trkpt lat="45.3495" lon="5.8808">
        <ele>1702.1513671875</ele>
        <time>2013-01-12T12:46:39Z</time>
      </trkpt>
      <trkpt lat="45.3495" lon="5.88079">
        <ele>1701.1901855469</ele>
        <time>2013-01-12T12:48:24Z</time>
      </trkpt>
      <trkpt lat="45.3495" lon="5.88079">
        <ele>1702.1513671875</ele>
        <time>2013-01-12T12:48:32Z</time>
      </trkpt>
      <trkpt lat="45.34949" lon="5.8808">
        <ele>1701.6708984375</ele>
        <time>2013-01-12T12:53:57Z</time>
      </trkpt>
      <trkpt lat="45.34964" lon="5.88084">
        <ele>1702.6320800781</ele>
        <time>2013-01-12T12:55:26Z</time>
      </trkpt>
      <trkpt lat="45.34971" lon="5.88094">
        <ele>1703.1127929688</ele>
        <time>2013-01-12T12:55:35Z</time>
      </trkpt>
      <trkpt lat="45.34978" lon="5.88101">
        <ele>1698.7868652344</ele>
        <time>2013-01-12T12:55:45Z</time>
      </trkpt>
      <trkpt lat="45.34985" lon="5.88108">
        <ele>1703.1127929688</ele>
        <time>2013-01-12T12:55:54Z</time>
      </trkpt>
      <trkpt lat="45.34986" lon="5.88107">
        <ele>1699.7482910156</ele>
        <time>2013-01-12T12:55:55Z</time>
      </trkpt>
      <trkpt lat="45.34987" lon="5.8811">
        <ele>1701.6708984375</ele>
        <time>2013-01-12T12:56:20Z</time>
      </trkpt>
      <trkpt lat="45.34987" lon="5.8811">
        <ele>1698.3061523438</ele>
        <time>2013-01-12T12:56:26Z</time>
      </trkpt>
      <trkpt lat="45.34987" lon="5.88109">
        <ele>1701.6708984375</ele>
        <time>2013-01-12T12:56:27Z</time>
      </trkpt>
      <trkpt lat="45.34996" lon="5.8811">
        <ele>1702.6320800781</ele>
        <time>2013-01-12T12:56:43Z</time>
      </trkpt>
      <trkpt lat="45.35001" lon="5.88108">
        <ele>1705.9965820312</ele>
        <time>2013-01-12T12:56:56Z</time>
      </trkpt>
      <trkpt lat="45.35002" lon="5.88108">
        <ele>1703.5935058594</ele>
        <time>2013-01-12T12:56:57Z</time>
      </trkpt>
      <trkpt lat="45.35006" lon="5.88109">
        <ele>1707.4387207031</ele>
        <time>2013-01-12T12:57:02Z</time>
      </trkpt>
      <trkpt lat="45.35007" lon="5.88108">
        <ele>1702.6320800781</ele>
        <time>2013-01-12T12:57:03Z</time>
      </trkpt>
      <trkpt lat="45.3501" lon="5.8811">
        <ele>1705.9965820312</ele>
        <time>2013-01-12T12:57:07Z</time>
      </trkpt>
      <trkpt lat="45.35016" lon="5.88113">
        <ele>1709.3615722656</ele>
        <time>2013-01-12T12:57:19Z</time>
      </trkpt>
      <trkpt lat="45.35017" lon="5.88116">
        <ele>1703.5935058594</ele>
        <time>2013-01-12T12:57:22Z</time>
      </trkpt>
      <trkpt lat="45.35018" lon="5.88118">
        <ele>1708.880859375</ele>
        <time>2013-01-12T12:57:26Z</time>
      </trkpt>
      <trkpt lat="45.35023" lon="5.88126">
        <ele>1705.0354003906</ele>
        <time>2013-01-12T12:57:33Z</time>
      </trkpt>
      <trkpt lat="45.35026" lon="5.88126">
        <ele>1709.8420410156</ele>
        <time>2013-01-12T12:57:37Z</time>
      </trkpt>
      <trkpt lat="45.35027" lon="5.88127">
        <ele>1708.4001464844</ele>
        <time>2013-01-12T12:57:38Z</time>
      </trkpt>
      <trkpt lat="45.35035" lon="5.88131">
        <ele>1710.3227539062</ele>
        <time>2013-01-12T12:57:51Z</time>
      </trkpt>
      <trkpt lat="45.3504" lon="5.8813">
        <ele>1708.4001464844</ele>
        <time>2013-01-12T12:57:56Z</time>
      </trkpt>
      <trkpt lat="45.35047" lon="5.88131">
        <ele>1712.2453613281</ele>
        <time>2013-01-12T12:58:10Z</time>
      </trkpt>
      <trkpt lat="45.35048" lon="5.88131">
        <ele>1709.3615722656</ele>
        <time>2013-01-12T12:58:11Z</time>
      </trkpt>
      <trkpt lat="45.35052" lon="5.88137">
        <ele>1709.3615722656</ele>
        <time>2013-01-12T12:58:29Z</time>
      </trkpt>
      <trkpt lat="45.3506" lon="5.88151">
        <ele>1710.3227539062</ele>
        <time>2013-01-12T12:58:39Z</time>
      </trkpt>
      <trkpt lat="45.35067" lon="5.88158">
        <ele>1714.16796875</ele>
        <time>2013-01-12T12:58:50Z</time>
      </trkpt>
      <trkpt lat="45.35068" lon="5.88159">
        <ele>1712.2453613281</ele>
        <time>2013-01-12T12:58:51Z</time>
      </trkpt>
      <trkpt lat="45.35069" lon="5.88159">
        <ele>1711.2841796875</ele>
        <time>2013-01-12T12:58:53Z</time>
      </trkpt>
      <trkpt lat="45.3507" lon="5.88177">
        <ele>1710.3227539062</ele>
        <time>2013-01-12T12:59:10Z</time>
      </trkpt>
      <trkpt lat="45.35073" lon="5.88178">
        <ele>1706.4772949219</ele>
        <time>2013-01-12T12:59:15Z</time>
      </trkpt>
      <trkpt lat="45.35074" lon="5.88179">
        <ele>1709.3615722656</ele>
        <time>2013-01-12T12:59:16Z</time>
      </trkpt>
      <trkpt lat="45.35075" lon="5.88181">
        <ele>1705.5161132812</ele>
        <time>2013-01-12T12:59:18Z</time>
      </trkpt>
      <trkpt lat="45.35076" lon="5.88182">
        <ele>1712.2453613281</ele>
        <time>2013-01-12T12:59:19Z</time>
      </trkpt>
      <trkpt lat="45.35076" lon="5.88183">
        <ele>1706.9580078125</ele>
        <time>2013-01-12T12:59:22Z</time>
      </trkpt>
      <trkpt lat="45.35077" lon="5.88184">
        <ele>1711.7648925781</ele>
        <time>2013-01-12T12:59:23Z</time>
      </trkpt>
      <trkpt lat="45.35077" lon="5.88185">
        <ele>1714.6486816406</ele>
        <time>2013-01-12T12:59:25Z</time>
      </trkpt>
      <trkpt lat="45.35078" lon="5.88185">
        <ele>1711.7648925781</ele>
        <time>2013-01-12T12:59:27Z</time>
      </trkpt>
      <trkpt lat="45.35079" lon="5.88188">
        <ele>1710.3227539062</ele>
        <time>2013-01-12T12:59:30Z</time>
      </trkpt>
      <trkpt lat="45.35079" lon="5.8819">
        <ele>1714.16796875</ele>
        <time>2013-01-12T12:59:32Z</time>
      </trkpt>
      <trkpt lat="45.3508" lon="5.88191">
        <ele>1709.8420410156</ele>
        <time>2013-01-12T12:59:35Z</time>
      </trkpt>
      <trkpt lat="45.35082" lon="5.88195">
        <ele>1713.6872558594</ele>
        <time>2013-01-12T12:59:41Z</time>
      </trkpt>
      <trkpt lat="45.35081" lon="5.88202">
        <ele>1718.0131835938</ele>
        <time>2013-01-12T12:59:51Z</time>
      </trkpt>
      <trkpt lat="45.3508" lon="5.88202">
        <ele>1712.2453613281</ele>
        <time>2013-01-12T12:59:52Z</time>
      </trkpt>
      <trkpt lat="45.3508" lon="5.88203">
        <ele>1712.2453613281</ele>
        <time>2013-01-12T12:59:53Z</time>
      </trkpt>
      <trkpt lat="45.35079" lon="5.88205">
        <ele>1717.5324707031</ele>
        <time>2013-01-12T12:59:58Z</time>
      </trkpt>
      <trkpt lat="45.3508" lon="5.88206">
        <ele>1711.2841796875</ele>
        <time>2013-01-12T12:59:59Z</time>
      </trkpt>
      <trkpt lat="45.3508" lon="5.88206">
        <ele>1715.1293945312</ele>
        <time>2013-01-12T13:00:00Z</time>
      </trkpt>
      <trkpt lat="45.35084" lon="5.88209">
        <ele>1714.6486816406</ele>
        <time>2013-01-12T13:00:05Z</time>
      </trkpt>
      <trkpt lat="45.35086" lon="5.8821">
        <ele>1716.0905761719</ele>
        <time>2013-01-12T13:00:07Z</time>
      </trkpt>
      <trkpt lat="45.35091" lon="5.88226">
        <ele>1717.5324707031</ele>
        <time>2013-01-12T13:00:16Z</time>
      </trkpt>
      <trkpt lat="45.35091" lon="5.88226">
        <ele>1714.16796875</ele>
        <time>2013-01-12T13:00:17Z</time>
      </trkpt>
      <trkpt lat="45.35091" lon="5.88227">
        <ele>1718.4938964844</ele>
        <time>2013-01-12T13:00:18Z</time>
      </trkpt>
      <trkpt lat="45.35092" lon="5.88227">
        <ele>1715.1293945312</ele>
        <time>2013-01-12T13:00:19Z</time>
      </trkpt>
      <trkpt lat="45.35095" lon="5.88238">
        <ele>1718.4938964844</ele>
        <time>2013-01-12T13:00:35Z</time>
      </trkpt>
      <trkpt lat="45.35098" lon="5.88241">
        <ele>1713.6872558594</ele>
        <time>2013-01-12T13:00:41Z</time>
      </trkpt>
      <trkpt lat="45.35099" lon="5.88243">
        <ele>1718.0131835938</ele>
        <time>2013-01-12T13:00:42Z</time>
      </trkpt>
      <trkpt lat="45.35099" lon="5.88242">
        <ele>1713.6872558594</ele>
        <time>2013-01-12T13:00:43Z</time>
      </trkpt>
      <trkpt lat="45.35099" lon="5.88243">
        <ele>1716.5712890625</ele>
        <time>2013-01-12T13:00:44Z</time>
      </trkpt>
      <trkpt lat="45.35099" lon="5.88245">
        <ele>1719.9357910156</ele>
        <time>2013-01-12T13:00:49Z</time>
      </trkpt>
      <trkpt lat="45.35098" lon="5.88249">
        <ele>1716.0905761719</ele>
        <time>2013-01-12T13:00:51Z</time>
      </trkpt>
      <trkpt lat="45.35097" lon="5.88254">
        <ele>1720.4165039062</ele>
        <time>2013-01-12T13:00:57Z</time>
      </trkpt>
      <trkpt lat="45.35096" lon="5.88253">
        <ele>1716.5712890625</ele>
        <time>2013-01-12T13:01:21Z</time>
      </trkpt>
      <trkpt lat="45.35096" lon="5.88255">
        <ele>1720.8972167969</ele>
        <time>2013-01-12T13:01:24Z</time>
      </trkpt>
      <trkpt lat="45.35098" lon="5.8826">
        <ele>1724.2619628906</ele>
        <time>2013-01-12T13:01:29Z</time>
      </trkpt>
      <trkpt lat="45.35098" lon="5.8826">
        <ele>1718.4938964844</ele>
        <time>2013-01-12T13:01:30Z</time>
      </trkpt>
      <trkpt lat="45.35099" lon="5.88262">
        <ele>1722.3391113281</ele>
        <time>2013-01-12T13:01:32Z</time>
      </trkpt>
      <trkpt lat="45.35099" lon="5.88262">
        <ele>1721.8583984375</ele>
        <time>2013-01-12T13:01:33Z</time>
      </trkpt>
      <trkpt lat="45.35097" lon="5.88273">
        <ele>1721.3776855469</ele>
        <time>2013-01-12T13:02:20Z</time>
      </trkpt>
      <trkpt lat="45.35096" lon="5.88276">
        <ele>1725.7038574219</ele>
        <time>2013-01-12T13:02:41Z</time>
      </trkpt>
      <trkpt lat="45.35096" lon="5.88277">
        <ele>1721.8583984375</ele>
        <time>2013-01-12T13:02:42Z</time>
      </trkpt>
      <trkpt lat="45.35095" lon="5.88279">
        <ele>1724.7426757812</ele>
        <time>2013-01-12T13:02:44Z</time>
      </trkpt>
      <trkpt lat="45.35094" lon="5.88282">
        <ele>1726.1845703125</ele>
        <time>2013-01-12T13:02:46Z</time>
      </trkpt>
      <trkpt lat="45.3509" lon="5.88288">
        <ele>1730.9912109375</ele>
        <time>2013-01-12T13:02:51Z</time>
      </trkpt>
      <trkpt lat="45.3509" lon="5.88288">
        <ele>1724.7426757812</ele>
        <time>2013-01-12T13:02:52Z</time>
      </trkpt>
      <trkpt lat="45.35089" lon="5.88294">
        <ele>1726.6652832031</ele>
        <time>2013-01-12T13:03:00Z</time>
      </trkpt>
      <trkpt lat="45.35091" lon="5.88297">
        <ele>1726.6652832031</ele>
        <time>2013-01-12T13:03:02Z</time>
      </trkpt>
      <trkpt lat="45.35093" lon="5.88298">
        <ele>1724.2619628906</ele>
        <time>2013-01-12T13:03:04Z</time>
      </trkpt>
      <trkpt lat="45.35094" lon="5.883">
        <ele>1725.7038574219</ele>
        <time>2013-01-12T13:03:06Z</time>
      </trkpt>
      <trkpt lat="45.35096" lon="5.88303">
        <ele>1731.9523925781</ele>
        <time>2013-01-12T13:03:08Z</time>
      </trkpt>
      <trkpt lat="45.35097" lon="5.88305">
        <ele>1732.4331054688</ele>
        <time>2013-01-12T13:03:10Z</time>
      </trkpt>
      <trkpt lat="45.35099" lon="5.88308">
        <ele>1729.068359375</ele>
        <time>2013-01-12T13:03:13Z</time>
      </trkpt>
      <trkpt lat="45.35099" lon="5.88315">
        <ele>1725.7038574219</ele>
        <time>2013-01-12T13:03:29Z</time>
      </trkpt>
      <trkpt lat="45.35098" lon="5.88317">
        <ele>1729.5490722656</ele>
        <time>2013-01-12T13:03:31Z</time>
      </trkpt>
      <trkpt lat="45.35099" lon="5.88324">
        <ele>1729.068359375</ele>
        <time>2013-01-12T13:03:37Z</time>
      </trkpt>
      <trkpt lat="45.35102" lon="5.88329">
        <ele>1730.5104980469</ele>
        <time>2013-01-12T13:03:43Z</time>
      </trkpt>
      <trkpt lat="45.35107" lon="5.8833">
        <ele>1732.9135742188</ele>
        <time>2013-01-12T13:03:59Z</time>
      </trkpt>
      <trkpt lat="45.35113" lon="5.88338">
        <ele>1731.4716796875</ele>
        <time>2013-01-12T13:04:13Z</time>
      </trkpt>
      <trkpt lat="45.35117" lon="5.88341">
        <ele>1731.4716796875</ele>
        <time>2013-01-12T13:04:18Z</time>
      </trkpt>
      <trkpt lat="45.35121" lon="5.88345">
        <ele>1730.9912109375</ele>
        <time>2013-01-12T13:04:25Z</time>
      </trkpt>
      <trkpt lat="45.35124" lon="5.88364">
        <ele>1732.4331054688</ele>
        <time>2013-01-12T13:04:44Z</time>
      </trkpt>
      <trkpt lat="45.35127" lon="5.88367">
        <ele>1730.0297851562</ele>
        <time>2013-01-12T13:05:04Z</time>
      </trkpt>
      <trkpt lat="45.35127" lon="5.88368">
        <ele>1734.3557128906</ele>
        <time>2013-01-12T13:05:06Z</time>
      </trkpt>
      <trkpt lat="45.35126" lon="5.88369">
        <ele>1733.875</ele>
        <time>2013-01-12T13:05:07Z</time>
      </trkpt>
      <trkpt lat="45.35127" lon="5.88371">
        <ele>1732.4331054688</ele>
        <time>2013-01-12T13:05:09Z</time>
      </trkpt>
      <trkpt lat="45.3513" lon="5.88383">
        <ele>1731.9523925781</ele>
        <time>2013-01-12T13:05:19Z</time>
      </trkpt>
      <trkpt lat="45.3513" lon="5.88384">
        <ele>1731.4716796875</ele>
        <time>2013-01-12T13:05:21Z</time>
      </trkpt>
      <trkpt lat="45.35136" lon="5.88392">
        <ele>1731.9523925781</ele>
        <time>2013-01-12T13:05:35Z</time>
      </trkpt>
      <trkpt lat="45.35138" lon="5.88394">
        <ele>1731.4716796875</ele>
        <time>2013-01-12T13:05:37Z</time>
      </trkpt>
      <trkpt lat="45.35141" lon="5.88399">
        <ele>1730.0297851562</ele>
        <time>2013-01-12T13:05:39Z</time>
      </trkpt>
      <trkpt lat="45.35148" lon="5.88403">
        <ele>1728.587890625</ele>
        <time>2013-01-12T13:05:43Z</time>
      </trkpt>
      <trkpt lat="45.35151" lon="5.88404">
        <ele>1732.4331054688</ele>
        <time>2013-01-12T13:05:45Z</time>
      </trkpt>
      <trkpt lat="45.35151" lon="5.88405">
        <ele>1728.1071777344</ele>
        <time>2013-01-12T13:05:46Z</time>
      </trkpt>
      <trkpt lat="45.35151" lon="5.88405">
        <ele>1724.7426757812</ele>
        <time>2013-01-12T13:05:47Z</time>
      </trkpt>
      <trkpt lat="45.35151" lon="5.88405">
        <ele>1728.587890625</ele>
        <time>2013-01-12T13:05:49Z</time>
      </trkpt>
      <trkpt lat="45.35157" lon="5.88405">
        <ele>1732.4331054688</ele>
        <time>2013-01-12T13:05:56Z</time>
      </trkpt>
      <trkpt lat="45.35158" lon="5.88405">
        <ele>1728.587890625</ele>
        <time>2013-01-12T13:05:58Z</time>
      </trkpt>
      <trkpt lat="45.35164" lon="5.88404">
        <ele>1732.4331054688</ele>
        <time>2013-01-12T13:06:10Z</time>
      </trkpt>
      <trkpt lat="45.35165" lon="5.88403">
        <ele>1726.1845703125</ele>
        <time>2013-01-12T13:06:11Z</time>
      </trkpt>
      <trkpt lat="45.35167" lon="5.88403">
        <ele>1732.9135742188</ele>
        <time>2013-01-12T13:06:14Z</time>
      </trkpt>
      <trkpt lat="45.35166" lon="5.88403">
        <ele>1727.1459960938</ele>
        <time>2013-01-12T13:06:15Z</time>
      </trkpt>
      <trkpt lat="45.35168" lon="5.88405">
        <ele>1733.875</ele>
        <time>2013-01-12T13:06:18Z</time>
      </trkpt>
      <trkpt lat="45.35171" lon="5.88408">
        <ele>1726.6652832031</ele>
        <time>2013-01-12T13:06:24Z</time>
      </trkpt>
      <trkpt lat="45.35172" lon="5.88409">
        <ele>1730.0297851562</ele>
        <time>2013-01-12T13:06:25Z</time>
      </trkpt>
      <trkpt lat="45.3518" lon="5.8841">
        <ele>1726.1845703125</ele>
        <time>2013-01-12T13:06:33Z</time>
      </trkpt>
      <trkpt lat="45.35185" lon="5.88409">
        <ele>1730.0297851562</ele>
        <time>2013-01-12T13:06:37Z</time>
      </trkpt>
      <trkpt lat="45.3519" lon="5.88407">
        <ele>1728.1071777344</ele>
        <time>2013-01-12T13:06:44Z</time>
      </trkpt>
      <trkpt lat="45.35192" lon="5.88405">
        <ele>1732.4331054688</ele>
        <time>2013-01-12T13:06:48Z</time>
      </trkpt>
      <trkpt lat="45.35192" lon="5.88404">
        <ele>1725.2231445312</ele>
        <time>2013-01-12T13:06:49Z</time>
      </trkpt>
      <trkpt lat="45.35194" lon="5.88403">
        <ele>1728.1071777344</ele>
        <time>2013-01-12T13:06:50Z</time>
      </trkpt>
      <trkpt lat="45.35204" lon="5.88403">
        <ele>1731.4716796875</ele>
        <time>2013-01-12T13:07:01Z</time>
      </trkpt>
      <trkpt lat="45.35205" lon="5.88403">
        <ele>1725.2231445312</ele>
        <time>2013-01-12T13:07:02Z</time>
      </trkpt>
      <trkpt lat="45.35207" lon="5.88404">
        <ele>1728.587890625</ele>
        <time>2013-01-12T13:07:05Z</time>
      </trkpt>
      <trkpt lat="45.3521" lon="5.88402">
        <ele>1728.587890625</ele>
        <time>2013-01-12T13:07:23Z</time>
      </trkpt>
      <trkpt lat="45.35214" lon="5.88401">
        <ele>1727.1459960938</ele>
        <time>2013-01-12T13:08:45Z</time>
      </trkpt>
      <trkpt lat="45.35223" lon="5.88409">
        <ele>1725.7038574219</ele>
        <time>2013-01-12T13:08:54Z</time>
      </trkpt>
      <trkpt lat="45.35224" lon="5.88411">
        <ele>1726.6652832031</ele>
        <time>2013-01-12T13:08:56Z</time>
      </trkpt>
      <trkpt lat="45.35226" lon="5.8842">
        <ele>1727.1459960938</ele>
        <time>2013-01-12T13:09:07Z</time>
      </trkpt>
      <trkpt lat="45.35227" lon="5.88423">
        <ele>1724.2619628906</ele>
        <time>2013-01-12T13:09:08Z</time>
      </trkpt>
      <trkpt lat="45.3523" lon="5.88427">
        <ele>1727.1459960938</ele>
        <time>2013-01-12T13:09:11Z</time>
      </trkpt>
      <trkpt lat="45.35237" lon="5.88441">
        <ele>1723.7810058594</ele>
        <time>2013-01-12T13:09:18Z</time>
      </trkpt>
      <trkpt lat="45.35239" lon="5.88444">
        <ele>1722.3391113281</ele>
        <time>2013-01-12T13:09:19Z</time>
      </trkpt>
      <trkpt lat="45.35241" lon="5.88448">
        <ele>1726.1845703125</ele>
        <time>2013-01-12T13:09:21Z</time>
      </trkpt>
      <trkpt lat="45.35242" lon="5.88449">
        <ele>1725.2231445312</ele>
        <time>2013-01-12T13:09:23Z</time>
      </trkpt>
      <trkpt lat="45.35246" lon="5.8845">
        <ele>1721.3776855469</ele>
        <time>2013-01-12T13:09:25Z</time>
      </trkpt>
      <trkpt lat="45.35249" lon="5.88451">
        <ele>1724.2619628906</ele>
        <time>2013-01-12T13:09:28Z</time>
      </trkpt>
      <trkpt lat="45.3525" lon="5.88455">
        <ele>1720.4165039062</ele>
        <time>2013-01-12T13:09:30Z</time>
      </trkpt>
      <trkpt lat="45.3525" lon="5.88456">
        <ele>1725.7038574219</ele>
        <time>2013-01-12T13:09:31Z</time>
      </trkpt>
      <trkpt lat="45.35251" lon="5.88457">
        <ele>1721.3776855469</ele>
        <time>2013-01-12T13:09:32Z</time>
      </trkpt>
      <trkpt lat="45.35253" lon="5.8846">
        <ele>1727.6264648438</ele>
        <time>2013-01-12T13:09:34Z</time>
      </trkpt>
      <trkpt lat="45.35253" lon="5.88465">
        <ele>1723.3005371094</ele>
        <time>2013-01-12T13:09:35Z</time>
      </trkpt>
      <trkpt lat="45.35256" lon="5.88466">
        <ele>1718.974609375</ele>
        <time>2013-01-12T13:09:38Z</time>
      </trkpt>
      <trkpt lat="45.35257" lon="5.88467">
        <ele>1720.4165039062</ele>
        <time>2013-01-12T13:09:39Z</time>
      </trkpt>
      <trkpt lat="45.35258" lon="5.88469">
        <ele>1725.2231445312</ele>
        <time>2013-01-12T13:09:40Z</time>
      </trkpt>
      <trkpt lat="45.35259" lon="5.8847">
        <ele>1721.8583984375</ele>
        <time>2013-01-12T13:09:41Z</time>
      </trkpt>
      <trkpt lat="45.3526" lon="5.88471">
        <ele>1724.7426757812</ele>
        <time>2013-01-12T13:09:42Z</time>
      </trkpt>
      <trkpt lat="45.35261" lon="5.88473">
        <ele>1720.8972167969</ele>
        <time>2013-01-12T13:09:44Z</time>
      </trkpt>
      <trkpt lat="45.35262" lon="5.88474">
        <ele>1722.8198242188</ele>
        <time>2013-01-12T13:09:45Z</time>
      </trkpt>
      <trkpt lat="45.35263" lon="5.88478">
        <ele>1726.1845703125</ele>
        <time>2013-01-12T13:09:48Z</time>
      </trkpt>
      <trkpt lat="45.35263" lon="5.8848">
        <ele>1724.2619628906</ele>
        <time>2013-01-12T13:09:49Z</time>
      </trkpt>
      <trkpt lat="45.35263" lon="5.88484">
        <ele>1719.9357910156</ele>
        <time>2013-01-12T13:09:52Z</time>
      </trkpt>
      <trkpt lat="45.35264" lon="5.88493">
        <ele>1720.8972167969</ele>
        <time>2013-01-12T13:09:56Z</time>
      </trkpt>
      <trkpt lat="45.35265" lon="5.88496">
        <ele>1725.2231445312</ele>
        <time>2013-01-12T13:09:58Z</time>
      </trkpt>
      <trkpt lat="45.35264" lon="5.88498">
        <ele>1719.9357910156</ele>
        <time>2013-01-12T13:09:59Z</time>
      </trkpt>
      <trkpt lat="45.35265" lon="5.88499">
        <ele>1720.8972167969</ele>
        <time>2013-01-12T13:10:00Z</time>
      </trkpt>
      <trkpt lat="45.35265" lon="5.88506">
        <ele>1721.3776855469</ele>
        <time>2013-01-12T13:10:04Z</time>
      </trkpt>
      <trkpt lat="45.35259" lon="5.88513">
        <ele>1717.5324707031</ele>
        <time>2013-01-12T13:10:10Z</time>
      </trkpt>
      <trkpt lat="45.35258" lon="5.88516">
        <ele>1718.974609375</ele>
        <time>2013-01-12T13:10:11Z</time>
      </trkpt>
      <trkpt lat="45.35258" lon="5.88517">
        <ele>1720.4165039062</ele>
        <time>2013-01-12T13:10:12Z</time>
      </trkpt>
      <trkpt lat="45.35256" lon="5.8852">
        <ele>1725.2231445312</ele>
        <time>2013-01-12T13:10:15Z</time>
      </trkpt>
      <trkpt lat="45.35255" lon="5.88521">
        <ele>1718.974609375</ele>
        <time>2013-01-12T13:10:16Z</time>
      </trkpt>
      <trkpt lat="45.35256" lon="5.88527">
        <ele>1724.7426757812</ele>
        <time>2013-01-12T13:10:20Z</time>
      </trkpt>
      <trkpt lat="45.35256" lon="5.88528">
        <ele>1721.3776855469</ele>
        <time>2013-01-12T13:10:21Z</time>
      </trkpt>
      <trkpt lat="45.35256" lon="5.88529">
        <ele>1727.1459960938</ele>
        <time>2013-01-12T13:10:22Z</time>
      </trkpt>
      <trkpt lat="45.35256" lon="5.8853">
        <ele>1723.7810058594</ele>
        <time>2013-01-12T13:10:23Z</time>
      </trkpt>
      <trkpt lat="45.35257" lon="5.88532">
        <ele>1722.3391113281</ele>
        <time>2013-01-12T13:10:25Z</time>
      </trkpt>
      <trkpt lat="45.35257" lon="5.88538">
        <ele>1718.4938964844</ele>
        <time>2013-01-12T13:10:29Z</time>
      </trkpt>
      <trkpt lat="45.35257" lon="5.8854">
        <ele>1722.3391113281</ele>
        <time>2013-01-12T13:10:30Z</time>
      </trkpt>
      <trkpt lat="45.35257" lon="5.88542">
        <ele>1718.974609375</ele>
        <time>2013-01-12T13:10:31Z</time>
      </trkpt>
      <trkpt lat="45.35257" lon="5.88548">
        <ele>1725.2231445312</ele>
        <time>2013-01-12T13:10:34Z</time>
      </trkpt>
      <trkpt lat="45.35257" lon="5.88549">
        <ele>1720.8972167969</ele>
        <time>2013-01-12T13:10:35Z</time>
      </trkpt>
      <trkpt lat="45.35259" lon="5.88553">
        <ele>1720.8972167969</ele>
        <time>2013-01-12T13:10:54Z</time>
      </trkpt>
      <trkpt lat="45.35259" lon="5.8856">
        <ele>1717.5324707031</ele>
        <time>2013-01-12T13:12:21Z</time>
      </trkpt>
      <trkpt lat="45.35259" lon="5.88563">
        <ele>1725.7038574219</ele>
        <time>2013-01-12T13:12:22Z</time>
      </trkpt>
      <trkpt lat="45.35259" lon="5.88565">
        <ele>1721.8583984375</ele>
        <time>2013-01-12T13:12:23Z</time>
      </trkpt>
      <trkpt lat="45.35259" lon="5.88568">
        <ele>1718.0131835938</ele>
        <time>2013-01-12T13:12:24Z</time>
      </trkpt>
      <trkpt lat="45.35259" lon="5.8857">
        <ele>1719.9357910156</ele>
        <time>2013-01-12T13:12:25Z</time>
      </trkpt>
      <trkpt lat="45.35259" lon="5.88573">
        <ele>1725.2231445312</ele>
        <time>2013-01-12T13:12:26Z</time>
      </trkpt>
      <trkpt lat="45.35261" lon="5.88582">
        <ele>1721.8583984375</ele>
        <time>2013-01-12T13:12:30Z</time>
      </trkpt>
      <trkpt lat="45.35261" lon="5.88584">
        <ele>1719.4553222656</ele>
        <time>2013-01-12T13:12:31Z</time>
      </trkpt>
      <trkpt lat="45.35262" lon="5.88588">
        <ele>1717.5324707031</ele>
        <time>2013-01-12T13:12:33Z</time>
      </trkpt>
      <trkpt lat="45.35263" lon="5.88591">
        <ele>1723.3005371094</ele>
        <time>2013-01-12T13:12:35Z</time>
      </trkpt>
      <trkpt lat="45.35263" lon="5.88592">
        <ele>1721.3776855469</ele>
        <time>2013-01-12T13:12:36Z</time>
      </trkpt>
      <trkpt lat="45.35262" lon="5.88593">
        <ele>1724.7426757812</ele>
        <time>2013-01-12T13:12:39Z</time>
      </trkpt>
      <trkpt lat="45.35263" lon="5.88595">
        <ele>1721.3776855469</ele>
        <time>2013-01-12T13:12:40Z</time>
      </trkpt>
      <trkpt lat="45.35264" lon="5.886">
        <ele>1718.0131835938</ele>
        <time>2013-01-12T13:12:43Z</time>
      </trkpt>
      <trkpt lat="45.35266" lon="5.88604">
        <ele>1720.8972167969</ele>
        <time>2013-01-12T13:12:45Z</time>
      </trkpt>
      <trkpt lat="45.35268" lon="5.88613">
        <ele>1725.7038574219</ele>
        <time>2013-01-12T13:12:50Z</time>
      </trkpt>
      <trkpt lat="45.35268" lon="5.88615">
        <ele>1721.8583984375</ele>
        <time>2013-01-12T13:12:51Z</time>
      </trkpt>
      <trkpt lat="45.35268" lon="5.88617">
        <ele>1717.0520019531</ele>
        <time>2013-01-12T13:12:52Z</time>
      </trkpt>
      <trkpt lat="45.35268" lon="5.88619">
        <ele>1718.4938964844</ele>
        <time>2013-01-12T13:12:53Z</time>
      </trkpt>
      <trkpt lat="45.35268" lon="5.88625">
        <ele>1720.8972167969</ele>
        <time>2013-01-12T13:12:57Z</time>
      </trkpt>
      <trkpt lat="45.35268" lon="5.88628">
        <ele>1725.7038574219</ele>
        <time>2013-01-12T13:12:59Z</time>
      </trkpt>
      <trkpt lat="45.35268" lon="5.88629">
        <ele>1721.8583984375</ele>
        <time>2013-01-12T13:13:00Z</time>
      </trkpt>
      <trkpt lat="45.35269" lon="5.88631">
        <ele>1720.4165039062</ele>
        <time>2013-01-12T13:13:02Z</time>
      </trkpt>
      <trkpt lat="45.35269" lon="5.88632">
        <ele>1724.7426757812</ele>
        <time>2013-01-12T13:13:03Z</time>
      </trkpt>
      <trkpt lat="45.35269" lon="5.88634">
        <ele>1720.8972167969</ele>
        <time>2013-01-12T13:13:04Z</time>
      </trkpt>
      <trkpt lat="45.35273" lon="5.88641">
        <ele>1720.4165039062</ele>
        <time>2013-01-12T13:13:08Z</time>
      </trkpt>
      <trkpt lat="45.35273" lon="5.88647">
        <ele>1726.1845703125</ele>
        <time>2013-01-12T13:13:11Z</time>
      </trkpt>
      <trkpt lat="45.35273" lon="5.88647">
        <ele>1721.8583984375</ele>
        <time>2013-01-12T13:13:12Z</time>
      </trkpt>
      <trkpt lat="45.35273" lon="5.8865">
        <ele>1721.3776855469</ele>
        <time>2013-01-12T13:13:14Z</time>
      </trkpt>
      <trkpt lat="45.35273" lon="5.88654">
        <ele>1725.7038574219</ele>
        <time>2013-01-12T13:13:17Z</time>
      </trkpt>
      <trkpt lat="45.35273" lon="5.88656">
        <ele>1721.3776855469</ele>
        <time>2013-01-12T13:13:18Z</time>
      </trkpt>
      <trkpt lat="45.35275" lon="5.88664">
        <ele>1718.0131835938</ele>
        <time>2013-01-12T13:13:21Z</time>
      </trkpt>
      <trkpt lat="45.35275" lon="5.88667">
        <ele>1722.8198242188</ele>
        <time>2013-01-12T13:13:23Z</time>
      </trkpt>
      <trkpt lat="45.35276" lon="5.8867">
        <ele>1720.8972167969</ele>
        <time>2013-01-12T13:13:25Z</time>
      </trkpt>
      <trkpt lat="45.35276" lon="5.88674">
        <ele>1725.2231445312</ele>
        <time>2013-01-12T13:13:28Z</time>
      </trkpt>
      <trkpt lat="45.35277" lon="5.88677">
        <ele>1720.8972167969</ele>
        <time>2013-01-12T13:13:30Z</time>
      </trkpt>
      <trkpt lat="45.35278" lon="5.88678">
        <ele>1721.8583984375</ele>
        <time>2013-01-12T13:13:31Z</time>
      </trkpt>
      <trkpt lat="45.35279" lon="5.88681">
        <ele>1720.8972167969</ele>
        <time>2013-01-12T13:13:33Z</time>
      </trkpt>
      <trkpt lat="45.35279" lon="5.88682">
        <ele>1726.6652832031</ele>
        <time>2013-01-12T13:13:34Z</time>
      </trkpt>
      <trkpt lat="45.35279" lon="5.88685">
        <ele>1722.8198242188</ele>
        <time>2013-01-12T13:13:35Z</time>
      </trkpt>
      <trkpt lat="45.3528" lon="5.88689">
        <ele>1717.5324707031</ele>
        <time>2013-01-12T13:13:38Z</time>
      </trkpt>
      <trkpt lat="45.35281" lon="5.88701">
        <ele>1721.8583984375</ele>
        <time>2013-01-12T13:13:45Z</time>
      </trkpt>
      <trkpt lat="45.35284" lon="5.88707">
        <ele>1718.0131835938</ele>
        <time>2013-01-12T13:13:49Z</time>
      </trkpt>
      <trkpt lat="45.35284" lon="5.88708">
        <ele>1725.7038574219</ele>
        <time>2013-01-12T13:13:50Z</time>
      </trkpt>
      <trkpt lat="45.35284" lon="5.88708">
        <ele>1720.8972167969</ele>
        <time>2013-01-12T13:13:51Z</time>
      </trkpt>
      <trkpt lat="45.35285" lon="5.88711">
        <ele>1727.6264648438</ele>
        <time>2013-01-12T13:13:53Z</time>
      </trkpt>
      <trkpt lat="45.35285" lon="5.88712">
        <ele>1722.3391113281</ele>
        <time>2013-01-12T13:13:54Z</time>
      </trkpt>
      <trkpt lat="45.35286" lon="5.88714">
        <ele>1725.2231445312</ele>
        <time>2013-01-12T13:13:55Z</time>
      </trkpt>
      <trkpt lat="45.35286" lon="5.88715">
        <ele>1723.7810058594</ele>
        <time>2013-01-12T13:13:56Z</time>
      </trkpt>
      <trkpt lat="45.35287" lon="5.88716">
        <ele>1723.3005371094</ele>
        <time>2013-01-12T13:13:58Z</time>
      </trkpt>
      <trkpt lat="45.35289" lon="5.88718">
        <ele>1721.3776855469</ele>
        <time>2013-01-12T13:14:01Z</time>
      </trkpt>
      <trkpt lat="45.35291" lon="5.88724">
        <ele>1727.6264648438</ele>
        <time>2013-01-12T13:14:06Z</time>
      </trkpt>
      <trkpt lat="45.35291" lon="5.88725">
        <ele>1720.4165039062</ele>
        <time>2013-01-12T13:14:07Z</time>
      </trkpt>
      <trkpt lat="45.35291" lon="5.88729">
        <ele>1727.1459960938</ele>
        <time>2013-01-12T13:14:08Z</time>
      </trkpt>
      <trkpt lat="45.35292" lon="5.8873">
        <ele>1721.8583984375</ele>
        <time>2013-01-12T13:14:09Z</time>
      </trkpt>
      <trkpt lat="45.35292" lon="5.88732">
        <ele>1727.6264648438</ele>
        <time>2013-01-12T13:14:11Z</time>
      </trkpt>
      <trkpt lat="45.35293" lon="5.88733">
        <ele>1725.2231445312</ele>
        <time>2013-01-12T13:14:12Z</time>
      </trkpt>
      <trkpt lat="45.35293" lon="5.88737">
        <ele>1725.2231445312</ele>
        <time>2013-01-12T13:14:14Z</time>
      </trkpt>
      <trkpt lat="45.35294" lon="5.88746">
        <ele>1726.1845703125</ele>
        <time>2013-01-12T13:14:22Z</time>
      </trkpt>
      <trkpt lat="45.35296" lon="5.88749">
        <ele>1722.3391113281</ele>
        <time>2013-01-12T13:14:25Z</time>
      </trkpt>
      <trkpt lat="45.35298" lon="5.88753">
        <ele>1725.7038574219</ele>
        <time>2013-01-12T13:14:28Z</time>
      </trkpt>
      <trkpt lat="45.35298" lon="5.88754">
        <ele>1729.068359375</ele>
        <time>2013-01-12T13:14:29Z</time>
      </trkpt>
      <trkpt lat="45.35298" lon="5.88755">
        <ele>1721.8583984375</ele>
        <time>2013-01-12T13:14:30Z</time>
      </trkpt>
      <trkpt lat="45.35299" lon="5.88756">
        <ele>1725.7038574219</ele>
        <time>2013-01-12T13:14:31Z</time>
      </trkpt>
      <trkpt lat="45.35299" lon="5.88758">
        <ele>1721.8583984375</ele>
        <time>2013-01-12T13:14:32Z</time>
      </trkpt>
      <trkpt lat="45.35299" lon="5.88759">
        <ele>1726.1845703125</ele>
        <time>2013-01-12T13:14:33Z</time>
      </trkpt>
      <trkpt lat="45.35299" lon="5.8876">
        <ele>1729.5490722656</ele>
        <time>2013-01-12T13:14:34Z</time>
      </trkpt>
      <trkpt lat="45.35299" lon="5.88763">
        <ele>1727.6264648438</ele>
        <time>2013-01-12T13:14:35Z</time>
      </trkpt>
      <trkpt lat="45.353" lon="5.88767">
        <ele>1723.3005371094</ele>
        <time>2013-01-12T13:14:38Z</time>
      </trkpt>
      <trkpt lat="45.353" lon="5.88768">
        <ele>1724.7426757812</ele>
        <time>2013-01-12T13:14:39Z</time>
      </trkpt>
      <trkpt lat="45.35304" lon="5.88779">
        <ele>1728.1071777344</ele>
        <time>2013-01-12T13:14:47Z</time>
      </trkpt>
      <trkpt lat="45.35304" lon="5.88784">
        <ele>1724.2619628906</ele>
        <time>2013-01-12T13:14:49Z</time>
      </trkpt>
      <trkpt lat="45.35306" lon="5.8879">
        <ele>1732.4331054688</ele>
        <time>2013-01-12T13:14:53Z</time>
      </trkpt>
      <trkpt lat="45.35308" lon="5.88795">
        <ele>1726.1845703125</ele>
        <time>2013-01-12T13:14:58Z</time>
      </trkpt>
      <trkpt lat="45.3531" lon="5.888">
        <ele>1728.587890625</ele>
        <time>2013-01-12T13:15:01Z</time>
      </trkpt>
      <trkpt lat="45.3531" lon="5.88801">
        <ele>1724.7426757812</ele>
        <time>2013-01-12T13:15:02Z</time>
      </trkpt>
      <trkpt lat="45.35311" lon="5.88807">
        <ele>1728.587890625</ele>
        <time>2013-01-12T13:15:05Z</time>
      </trkpt>
      <trkpt lat="45.35312" lon="5.88808">
        <ele>1731.4716796875</ele>
        <time>2013-01-12T13:15:07Z</time>
      </trkpt>
      <trkpt lat="45.35313" lon="5.88811">
        <ele>1729.068359375</ele>
        <time>2013-01-12T13:15:09Z</time>
      </trkpt>
      <trkpt lat="45.35315" lon="5.88817">
        <ele>1733.875</ele>
        <time>2013-01-12T13:15:14Z</time>
      </trkpt>
      <trkpt lat="45.35318" lon="5.88825">
        <ele>1726.1845703125</ele>
        <time>2013-01-12T13:15:21Z</time>
      </trkpt>
      <trkpt lat="45.35319" lon="5.88826">
        <ele>1730.0297851562</ele>
        <time>2013-01-12T13:15:22Z</time>
      </trkpt>
      <trkpt lat="45.35319" lon="5.88828">
        <ele>1729.068359375</ele>
        <time>2013-01-12T13:15:24Z</time>
      </trkpt>
      <trkpt lat="45.3532" lon="5.8883">
        <ele>1731.4716796875</ele>
        <time>2013-01-12T13:15:26Z</time>
      </trkpt>
      <trkpt lat="45.35321" lon="5.88835">
        <ele>1728.1071777344</ele>
        <time>2013-01-12T13:15:29Z</time>
      </trkpt>
      <trkpt lat="45.35322" lon="5.88836">
        <ele>1729.5490722656</ele>
        <time>2013-01-12T13:15:30Z</time>
      </trkpt>
      <trkpt lat="45.35325" lon="5.88847">
        <ele>1737.7202148438</ele>
        <time>2013-01-12T13:15:38Z</time>
      </trkpt>
      <trkpt lat="45.35326" lon="5.88853">
        <ele>1731.9523925781</ele>
        <time>2013-01-12T13:15:43Z</time>
      </trkpt>
      <trkpt lat="45.35326" lon="5.88853">
        <ele>1728.587890625</ele>
        <time>2013-01-12T13:15:44Z</time>
      </trkpt>
      <trkpt lat="45.35326" lon="5.88854">
        <ele>1732.9135742188</ele>
        <time>2013-01-12T13:15:45Z</time>
      </trkpt>
      <trkpt lat="45.35326" lon="5.88855">
        <ele>1729.5490722656</ele>
        <time>2013-01-12T13:15:46Z</time>
      </trkpt>
      <trkpt lat="45.35326" lon="5.88858">
        <ele>1736.2783203125</ele>
        <time>2013-01-12T13:15:48Z</time>
      </trkpt>
      <trkpt lat="45.35326" lon="5.88859">
        <ele>1733.3942871094</ele>
        <time>2013-01-12T13:15:49Z</time>
      </trkpt>
      <trkpt lat="45.35328" lon="5.88865">
        <ele>1732.4331054688</ele>
        <time>2013-01-12T13:15:53Z</time>
      </trkpt>
      <trkpt lat="45.3533" lon="5.88874">
        <ele>1730.5104980469</ele>
        <time>2013-01-12T13:16:10Z</time>
      </trkpt>
      <trkpt lat="45.35331" lon="5.88876">
        <ele>1737.7202148438</ele>
        <time>2013-01-12T13:16:12Z</time>
      </trkpt>
      <trkpt lat="45.35334" lon="5.88884">
        <ele>1733.3942871094</ele>
        <time>2013-01-12T13:16:17Z</time>
      </trkpt>
      <trkpt lat="45.35341" lon="5.88891">
        <ele>1733.875</ele>
        <time>2013-01-12T13:16:24Z</time>
      </trkpt>
      <trkpt lat="45.35344" lon="5.88899">
        <ele>1734.8364257812</ele>
        <time>2013-01-12T13:16:29Z</time>
      </trkpt>
      <trkpt lat="45.35349" lon="5.88908">
        <ele>1730.0297851562</ele>
        <time>2013-01-12T13:16:35Z</time>
      </trkpt>
      <trkpt lat="45.3535" lon="5.88909">
        <ele>1734.3557128906</ele>
        <time>2013-01-12T13:16:36Z</time>
      </trkpt>
      <trkpt lat="45.3535" lon="5.88909">
        <ele>1730.9912109375</ele>
        <time>2013-01-12T13:16:37Z</time>
      </trkpt>
      <trkpt lat="45.35352" lon="5.8891">
        <ele>1737.7202148438</ele>
        <time>2013-01-12T13:16:39Z</time>
      </trkpt>
      <trkpt lat="45.35353" lon="5.88913">
        <ele>1735.7976074219</ele>
        <time>2013-01-12T13:16:40Z</time>
      </trkpt>
      <trkpt lat="45.35355" lon="5.88917">
        <ele>1730.0297851562</ele>
        <time>2013-01-12T13:16:43Z</time>
      </trkpt>
      <trkpt lat="45.35356" lon="5.88918">
        <ele>1732.9135742188</ele>
        <time>2013-01-12T13:16:44Z</time>
      </trkpt>
      <trkpt lat="45.35358" lon="5.88924">
        <ele>1730.9912109375</ele>
        <time>2013-01-12T13:16:49Z</time>
      </trkpt>
      <trkpt lat="45.35358" lon="5.88925">
        <ele>1733.875</ele>
        <time>2013-01-12T13:16:50Z</time>
      </trkpt>
      <trkpt lat="45.35359" lon="5.8893">
        <ele>1737.7202148438</ele>
        <time>2013-01-12T13:16:53Z</time>
      </trkpt>
      <trkpt lat="45.3536" lon="5.88931">
        <ele>1736.7587890625</ele>
        <time>2013-01-12T13:16:54Z</time>
      </trkpt>
      <trkpt lat="45.35362" lon="5.88934">
        <ele>1732.9135742188</ele>
        <time>2013-01-12T13:16:57Z</time>
      </trkpt>
      <trkpt lat="45.35363" lon="5.88934">
        <ele>1734.8364257812</ele>
        <time>2013-01-12T13:16:58Z</time>
      </trkpt>
      <trkpt lat="45.35365" lon="5.88939">
        <ele>1741.0849609375</ele>
        <time>2013-01-12T13:17:01Z</time>
      </trkpt>
      <trkpt lat="45.35366" lon="5.88937">
        <ele>1738.2009277344</ele>
        <time>2013-01-12T13:17:02Z</time>
      </trkpt>
      <trkpt lat="45.35367" lon="5.88938">
        <ele>1734.3557128906</ele>
        <time>2013-01-12T13:17:03Z</time>
      </trkpt>
      <trkpt lat="45.35368" lon="5.88939">
        <ele>1735.7976074219</ele>
        <time>2013-01-12T13:17:04Z</time>
      </trkpt>
      <trkpt lat="45.35373" lon="5.88945">
        <ele>1734.3557128906</ele>
        <time>2013-01-12T13:17:08Z</time>
      </trkpt>
      <trkpt lat="45.35375" lon="5.88949">
        <ele>1733.875</ele>
        <time>2013-01-12T13:17:10Z</time>
      </trkpt>
      <trkpt lat="45.35379" lon="5.88952">
        <ele>1735.3168945312</ele>
        <time>2013-01-12T13:17:13Z</time>
      </trkpt>
      <trkpt lat="45.35382" lon="5.88958">
        <ele>1737.2395019531</ele>
        <time>2013-01-12T13:17:16Z</time>
      </trkpt>
      <trkpt lat="45.35383" lon="5.8896">
        <ele>1732.4331054688</ele>
        <time>2013-01-12T13:17:17Z</time>
      </trkpt>
      <trkpt lat="45.35383" lon="5.88961">
        <ele>1740.6042480469</ele>
        <time>2013-01-12T13:17:18Z</time>
      </trkpt>
      <trkpt lat="45.35384" lon="5.88964">
        <ele>1740.1237792969</ele>
        <time>2013-01-12T13:17:21Z</time>
      </trkpt>
      <trkpt lat="45.35385" lon="5.88965">
        <ele>1731.4716796875</ele>
        <time>2013-01-12T13:17:22Z</time>
      </trkpt>
      <trkpt lat="45.35385" lon="5.88967">
        <ele>1740.1237792969</ele>
        <time>2013-01-12T13:17:23Z</time>
      </trkpt>
      <trkpt lat="45.35386" lon="5.88969">
        <ele>1732.4331054688</ele>
        <time>2013-01-12T13:17:24Z</time>
      </trkpt>
      <trkpt lat="45.35386" lon="5.88972">
        <ele>1734.3557128906</ele>
        <time>2013-01-12T13:17:27Z</time>
      </trkpt>
      <trkpt lat="45.35386" lon="5.88973">
        <ele>1738.681640625</ele>
        <time>2013-01-12T13:17:28Z</time>
      </trkpt>
      <trkpt lat="45.35387" lon="5.88973">
        <ele>1732.4331054688</ele>
        <time>2013-01-12T13:17:29Z</time>
      </trkpt>
      <trkpt lat="45.35387" lon="5.88974">
        <ele>1735.7976074219</ele>
        <time>2013-01-12T13:17:30Z</time>
      </trkpt>
      <trkpt lat="45.35388" lon="5.88978">
        <ele>1741.5656738281</ele>
        <time>2013-01-12T13:17:33Z</time>
      </trkpt>
      <trkpt lat="45.35389" lon="5.88979">
        <ele>1736.7587890625</ele>
        <time>2013-01-12T13:17:34Z</time>
      </trkpt>
      <trkpt lat="45.35393" lon="5.88985">
        <ele>1733.3942871094</ele>
        <time>2013-01-12T13:17:40Z</time>
      </trkpt>
      <trkpt lat="45.35396" lon="5.88988">
        <ele>1737.2395019531</ele>
        <time>2013-01-12T13:17:43Z</time>
      </trkpt>
      <trkpt lat="45.35396" lon="5.8899">
        <ele>1743.48828125</ele>
        <time>2013-01-12T13:17:44Z</time>
      </trkpt>
      <trkpt lat="45.35397" lon="5.88991">
        <ele>1739.162109375</ele>
        <time>2013-01-12T13:17:45Z</time>
      </trkpt>
      <trkpt lat="45.35397" lon="5.88991">
        <ele>1744.4494628906</ele>
        <time>2013-01-12T13:17:46Z</time>
      </trkpt>
      <trkpt lat="45.35398" lon="5.88993">
        <ele>1738.2009277344</ele>
        <time>2013-01-12T13:17:49Z</time>
      </trkpt>
      <trkpt lat="45.35399" lon="5.88998">
        <ele>1737.2395019531</ele>
        <time>2013-01-12T13:17:52Z</time>
      </trkpt>
      <trkpt lat="45.35402" lon="5.89003">
        <ele>1740.1237792969</ele>
        <time>2013-01-12T13:18:01Z</time>
      </trkpt>
      <trkpt lat="45.35402" lon="5.89003">
        <ele>1736.2783203125</ele>
        <time>2013-01-12T13:18:02Z</time>
      </trkpt>
      <trkpt lat="45.35406" lon="5.89008">
        <ele>1741.5656738281</ele>
        <time>2013-01-12T13:18:06Z</time>
      </trkpt>
      <trkpt lat="45.35406" lon="5.89009">
        <ele>1739.162109375</ele>
        <time>2013-01-12T13:18:07Z</time>
      </trkpt>
      <trkpt lat="45.35408" lon="5.89013">
        <ele>1737.2395019531</ele>
        <time>2013-01-12T13:18:10Z</time>
      </trkpt>
      <trkpt lat="45.35409" lon="5.89017">
        <ele>1737.7202148438</ele>
        <time>2013-01-12T13:18:12Z</time>
      </trkpt>
      <trkpt lat="45.35413" lon="5.89023">
        <ele>1741.0849609375</ele>
        <time>2013-01-12T13:18:17Z</time>
      </trkpt>
      <trkpt lat="45.35414" lon="5.89023">
        <ele>1738.2009277344</ele>
        <time>2013-01-12T13:18:18Z</time>
      </trkpt>
      <trkpt lat="45.35415" lon="5.89024">
        <ele>1743.48828125</ele>
        <time>2013-01-12T13:18:19Z</time>
      </trkpt>
      <trkpt lat="45.35415" lon="5.89025">
        <ele>1739.162109375</ele>
        <time>2013-01-12T13:18:20Z</time>
      </trkpt>
      <trkpt lat="45.35417" lon="5.89027">
        <ele>1737.7202148438</ele>
        <time>2013-01-12T13:18:22Z</time>
      </trkpt>
      <trkpt lat="45.3542" lon="5.89031">
        <ele>1740.6042480469</ele>
        <time>2013-01-12T13:18:25Z</time>
      </trkpt>
      <trkpt lat="45.35421" lon="5.89032">
        <ele>1736.7587890625</ele>
        <time>2013-01-12T13:18:26Z</time>
      </trkpt>
      <trkpt lat="45.35422" lon="5.89033">
        <ele>1740.1237792969</ele>
        <time>2013-01-12T13:18:27Z</time>
      </trkpt>
      <trkpt lat="45.35434" lon="5.89048">
        <ele>1742.5270996094</ele>
        <time>2013-01-12T13:18:41Z</time>
      </trkpt>
      <trkpt lat="45.35435" lon="5.89049">
        <ele>1736.7587890625</ele>
        <time>2013-01-12T13:18:43Z</time>
      </trkpt>
      <trkpt lat="45.35435" lon="5.89049">
        <ele>1738.2009277344</ele>
        <time>2013-01-12T13:18:44Z</time>
      </trkpt>
      <trkpt lat="45.35445" lon="5.89057">
        <ele>1738.2009277344</ele>
        <time>2013-01-12T13:18:58Z</time>
      </trkpt>
      <trkpt lat="45.35449" lon="5.8906">
        <ele>1738.681640625</ele>
        <time>2013-01-12T13:19:02Z</time>
      </trkpt>
      <trkpt lat="45.35454" lon="5.89061">
        <ele>1743.9689941406</ele>
        <time>2013-01-12T13:19:07Z</time>
      </trkpt>
      <trkpt lat="45.35455" lon="5.89062">
        <ele>1740.1237792969</ele>
        <time>2013-01-12T13:19:08Z</time>
      </trkpt>
      <trkpt lat="45.35456" lon="5.89062">
        <ele>1743.0075683594</ele>
        <time>2013-01-12T13:19:09Z</time>
      </trkpt>
      <trkpt lat="45.35459" lon="5.89063">
        <ele>1738.681640625</ele>
        <time>2013-01-12T13:19:11Z</time>
      </trkpt>
      <trkpt lat="45.3546" lon="5.89063">
        <ele>1738.681640625</ele>
        <time>2013-01-12T13:19:12Z</time>
      </trkpt>
      <trkpt lat="45.35469" lon="5.89067">
        <ele>1748.775390625</ele>
        <time>2013-01-12T13:19:25Z</time>
      </trkpt>
      <trkpt lat="45.35469" lon="5.89068">
        <ele>1743.0075683594</ele>
        <time>2013-01-12T13:19:26Z</time>
      </trkpt>
      <trkpt lat="45.3547" lon="5.89068">
        <ele>1746.3723144531</ele>
        <time>2013-01-12T13:19:27Z</time>
      </trkpt>
      <trkpt lat="45.35471" lon="5.8907">
        <ele>1741.5656738281</ele>
        <time>2013-01-12T13:19:29Z</time>
      </trkpt>
      <trkpt lat="45.35472" lon="5.8907">
        <ele>1745.8916015625</ele>
        <time>2013-01-12T13:19:30Z</time>
      </trkpt>
      <trkpt lat="45.35474" lon="5.89071">
        <ele>1743.48828125</ele>
        <time>2013-01-12T13:19:33Z</time>
      </trkpt>
      <trkpt lat="45.35487" lon="5.89076">
        <ele>1744.4494628906</ele>
        <time>2013-01-12T13:19:47Z</time>
      </trkpt>
      <trkpt lat="45.35491" lon="5.89078">
        <ele>1747.8142089844</ele>
        <time>2013-01-12T13:19:52Z</time>
      </trkpt>
      <trkpt lat="45.35492" lon="5.89079">
        <ele>1746.8527832031</ele>
        <time>2013-01-12T13:19:53Z</time>
      </trkpt>
      <trkpt lat="45.355" lon="5.8908">
        <ele>1749.7368164062</ele>
        <time>2013-01-12T13:20:04Z</time>
      </trkpt>
      <trkpt lat="45.35502" lon="5.8908">
        <ele>1746.3723144531</ele>
        <time>2013-01-12T13:20:06Z</time>
      </trkpt>
      <trkpt lat="45.35502" lon="5.8908">
        <ele>1750.6979980469</ele>
        <time>2013-01-12T13:20:07Z</time>
      </trkpt>
      <trkpt lat="45.35506" lon="5.89082">
        <ele>1745.8916015625</ele>
        <time>2013-01-12T13:20:11Z</time>
      </trkpt>
      <trkpt lat="45.35506" lon="5.89082">
        <ele>1751.1787109375</ele>
        <time>2013-01-12T13:20:12Z</time>
      </trkpt>
      <trkpt lat="45.35508" lon="5.89085">
        <ele>1751.6594238281</ele>
        <time>2013-01-12T13:20:14Z</time>
      </trkpt>
      <trkpt lat="45.35508" lon="5.89086">
        <ele>1746.3723144531</ele>
        <time>2013-01-12T13:20:15Z</time>
      </trkpt>
      <trkpt lat="45.35509" lon="5.89087">
        <ele>1750.6979980469</ele>
        <time>2013-01-12T13:20:17Z</time>
      </trkpt>
      <trkpt lat="45.3551" lon="5.89088">
        <ele>1748.2946777344</ele>
        <time>2013-01-12T13:20:18Z</time>
      </trkpt>
      <trkpt lat="45.35517" lon="5.89095">
        <ele>1752.1398925781</ele>
        <time>2013-01-12T13:20:28Z</time>
      </trkpt>
      <trkpt lat="45.35518" lon="5.89097">
        <ele>1748.775390625</ele>
        <time>2013-01-12T13:20:30Z</time>
      </trkpt>
      <trkpt lat="45.35526" lon="5.89099">
        <ele>1751.6594238281</ele>
        <time>2013-01-12T13:20:39Z</time>
      </trkpt>
      <trkpt lat="45.35532" lon="5.89104">
        <ele>1751.6594238281</ele>
        <time>2013-01-12T13:20:46Z</time>
      </trkpt>
      <trkpt lat="45.35534" lon="5.89105">
        <ele>1748.2946777344</ele>
        <time>2013-01-12T13:20:48Z</time>
      </trkpt>
      <trkpt lat="45.35539" lon="5.89109">
        <ele>1753.58203125</ele>
        <time>2013-01-12T13:20:52Z</time>
      </trkpt>
      <trkpt lat="45.35539" lon="5.8911">
        <ele>1752.1398925781</ele>
        <time>2013-01-12T13:20:53Z</time>
      </trkpt>
      <trkpt lat="45.35542" lon="5.89112">
        <ele>1748.775390625</ele>
        <time>2013-01-12T13:20:56Z</time>
      </trkpt>
      <trkpt lat="45.35544" lon="5.89112">
        <ele>1754.0627441406</ele>
        <time>2013-01-12T13:20:58Z</time>
      </trkpt>
      <trkpt lat="45.35547" lon="5.89113">
        <ele>1750.6979980469</ele>
        <time>2013-01-12T13:21:02Z</time>
      </trkpt>
      <trkpt lat="45.35548" lon="5.89116">
        <ele>1751.1787109375</ele>
        <time>2013-01-12T13:21:03Z</time>
      </trkpt>
      <trkpt lat="45.35556" lon="5.89118">
        <ele>1755.5046386719</ele>
        <time>2013-01-12T13:21:11Z</time>
      </trkpt>
      <trkpt lat="45.35556" lon="5.89119">
        <ele>1754.0627441406</ele>
        <time>2013-01-12T13:21:12Z</time>
      </trkpt>
      <trkpt lat="45.35559" lon="5.8912">
        <ele>1753.1013183594</ele>
        <time>2013-01-12T13:21:14Z</time>
      </trkpt>
      <trkpt lat="45.35567" lon="5.89124">
        <ele>1754.0627441406</ele>
        <time>2013-01-12T13:21:20Z</time>
      </trkpt>
      <trkpt lat="45.35571" lon="5.89125">
        <ele>1750.2175292969</ele>
        <time>2013-01-12T13:21:23Z</time>
      </trkpt>
      <trkpt lat="45.35572" lon="5.89125">
        <ele>1754.0627441406</ele>
        <time>2013-01-12T13:21:25Z</time>
      </trkpt>
      <trkpt lat="45.35576" lon="5.89125">
        <ele>1752.6206054688</ele>
        <time>2013-01-12T13:21:29Z</time>
      </trkpt>
      <trkpt lat="45.3558" lon="5.89128">
        <ele>1750.6979980469</ele>
        <time>2013-01-12T13:21:34Z</time>
      </trkpt>
      <trkpt lat="45.35582" lon="5.8913">
        <ele>1755.0239257812</ele>
        <time>2013-01-12T13:21:36Z</time>
      </trkpt>
      <trkpt lat="45.35584" lon="5.89131">
        <ele>1755.0239257812</ele>
        <time>2013-01-12T13:21:38Z</time>
      </trkpt>
      <trkpt lat="45.35591" lon="5.89133">
        <ele>1751.6594238281</ele>
        <time>2013-01-12T13:21:45Z</time>
      </trkpt>
      <trkpt lat="45.35593" lon="5.89133">
        <ele>1754.5432128906</ele>
        <time>2013-01-12T13:21:47Z</time>
      </trkpt>
      <trkpt lat="45.35595" lon="5.89135">
        <ele>1752.6206054688</ele>
        <time>2013-01-12T13:21:49Z</time>
      </trkpt>
      <trkpt lat="45.35602" lon="5.89142">
        <ele>1754.0627441406</ele>
        <time>2013-01-12T13:21:56Z</time>
      </trkpt>
      <trkpt lat="45.35613" lon="5.89151">
        <ele>1753.58203125</ele>
        <time>2013-01-12T13:22:08Z</time>
      </trkpt>
      <trkpt lat="45.35615" lon="5.89155">
        <ele>1754.5432128906</ele>
        <time>2013-01-12T13:22:11Z</time>
      </trkpt>
      <trkpt lat="45.35627" lon="5.89164">
        <ele>1753.1013183594</ele>
        <time>2013-01-12T13:22:22Z</time>
      </trkpt>
      <trkpt lat="45.35636" lon="5.89173">
        <ele>1755.0239257812</ele>
        <time>2013-01-12T13:22:31Z</time>
      </trkpt>
      <trkpt lat="45.3564" lon="5.89176">
        <ele>1751.1787109375</ele>
        <time>2013-01-12T13:22:34Z</time>
      </trkpt>
      <trkpt lat="45.35643" lon="5.89178">
        <ele>1755.5046386719</ele>
        <time>2013-01-12T13:22:38Z</time>
      </trkpt>
      <trkpt lat="45.35643" lon="5.89179">
        <ele>1755.5046386719</ele>
        <time>2013-01-12T13:22:39Z</time>
      </trkpt>
      <trkpt lat="45.35644" lon="5.8918">
        <ele>1752.6206054688</ele>
        <time>2013-01-12T13:22:40Z</time>
      </trkpt>
      <trkpt lat="45.35644" lon="5.89181">
        <ele>1755.9851074219</ele>
        <time>2013-01-12T13:22:41Z</time>
      </trkpt>
      <trkpt lat="45.35647" lon="5.89186">
        <ele>1751.6594238281</ele>
        <time>2013-01-12T13:22:45Z</time>
      </trkpt>
      <trkpt lat="45.3565" lon="5.8919">
        <ele>1756.9467773438</ele>
        <time>2013-01-12T13:22:49Z</time>
      </trkpt>
      <trkpt lat="45.3565" lon="5.89191">
        <ele>1755.0239257812</ele>
        <time>2013-01-12T13:22:50Z</time>
      </trkpt>
      <trkpt lat="45.35654" lon="5.89195">
        <ele>1754.5432128906</ele>
        <time>2013-01-12T13:22:54Z</time>
      </trkpt>
      <trkpt lat="45.35655" lon="5.89199">
        <ele>1755.0239257812</ele>
        <time>2013-01-12T13:22:56Z</time>
      </trkpt>
      <trkpt lat="45.35658" lon="5.89199">
        <ele>1756.9467773438</ele>
        <time>2013-01-12T13:22:58Z</time>
      </trkpt>
      <trkpt lat="45.35661" lon="5.89201">
        <ele>1752.6206054688</ele>
        <time>2013-01-12T13:23:01Z</time>
      </trkpt>
      <trkpt lat="45.35663" lon="5.89202">
        <ele>1755.9851074219</ele>
        <time>2013-01-12T13:23:03Z</time>
      </trkpt>
      <trkpt lat="45.35667" lon="5.89207">
        <ele>1755.5046386719</ele>
        <time>2013-01-12T13:23:08Z</time>
      </trkpt>
      <trkpt lat="45.35676" lon="5.89215">
        <ele>1757.4274902344</ele>
        <time>2013-01-12T13:23:17Z</time>
      </trkpt>
      <trkpt lat="45.35679" lon="5.89219">
        <ele>1754.0627441406</ele>
        <time>2013-01-12T13:23:20Z</time>
      </trkpt>
      <trkpt lat="45.3568" lon="5.8922">
        <ele>1755.5046386719</ele>
        <time>2013-01-12T13:23:21Z</time>
      </trkpt>
      <trkpt lat="45.35688" lon="5.89235">
        <ele>1756.4660644531</ele>
        <time>2013-01-12T13:23:34Z</time>
      </trkpt>
      <trkpt lat="45.35695" lon="5.89243">
        <ele>1758.8693847656</ele>
        <time>2013-01-12T13:23:43Z</time>
      </trkpt>
      <trkpt lat="45.35698" lon="5.89247">
        <ele>1755.9851074219</ele>
        <time>2013-01-12T13:23:47Z</time>
      </trkpt>
      <trkpt lat="45.357" lon="5.8925">
        <ele>1758.388671875</ele>
        <time>2013-01-12T13:23:50Z</time>
      </trkpt>
      <trkpt lat="45.35701" lon="5.89252">
        <ele>1757.4274902344</ele>
        <time>2013-01-12T13:23:52Z</time>
      </trkpt>
      <trkpt lat="45.35706" lon="5.89257">
        <ele>1758.8693847656</ele>
        <time>2013-01-12T13:24:08Z</time>
      </trkpt>
      <trkpt lat="45.3571" lon="5.89264">
        <ele>1762.7145996094</ele>
        <time>2013-01-12T13:25:25Z</time>
      </trkpt>
      <trkpt lat="45.3571" lon="5.89265">
        <ele>1761.2727050781</ele>
        <time>2013-01-12T13:25:26Z</time>
      </trkpt>
      <trkpt lat="45.35711" lon="5.89272">
        <ele>1762.7145996094</ele>
        <time>2013-01-12T13:25:32Z</time>
      </trkpt>
      <trkpt lat="45.35716" lon="5.89286">
        <ele>1765.5986328125</ele>
        <time>2013-01-12T13:25:47Z</time>
      </trkpt>
      <trkpt lat="45.3572" lon="5.89301">
        <ele>1768.9631347656</ele>
        <time>2013-01-12T13:26:03Z</time>
      </trkpt>
      <trkpt lat="45.3572" lon="5.89302">
        <ele>1765.5986328125</ele>
        <time>2013-01-12T13:26:05Z</time>
      </trkpt>
      <trkpt lat="45.35721" lon="5.89305">
        <ele>1769.4438476562</ele>
        <time>2013-01-12T13:26:10Z</time>
      </trkpt>
      <trkpt lat="45.35721" lon="5.89314">
        <ele>1772.3278808594</ele>
        <time>2013-01-12T13:26:32Z</time>
      </trkpt>
      <trkpt lat="45.35722" lon="5.89315">
        <ele>1768.0017089844</ele>
        <time>2013-01-12T13:26:33Z</time>
      </trkpt>
      <trkpt lat="45.35722" lon="5.89317">
        <ele>1771.8469238281</ele>
        <time>2013-01-12T13:26:35Z</time>
      </trkpt>
      <trkpt lat="45.35725" lon="5.89334">
        <ele>1772.80859375</ele>
        <time>2013-01-12T13:26:50Z</time>
      </trkpt>
      <trkpt lat="45.35726" lon="5.89338">
        <ele>1775.6923828125</ele>
        <time>2013-01-12T13:26:57Z</time>
      </trkpt>
      <trkpt lat="45.35726" lon="5.89338">
        <ele>1772.80859375</ele>
        <time>2013-01-12T13:26:58Z</time>
      </trkpt>
      <trkpt lat="45.35726" lon="5.89341">
        <ele>1777.1345214844</ele>
        <time>2013-01-12T13:27:01Z</time>
      </trkpt>
      <trkpt lat="45.35727" lon="5.89342">
        <ele>1773.2893066406</ele>
        <time>2013-01-12T13:27:02Z</time>
      </trkpt>
      <trkpt lat="45.35727" lon="5.89344">
        <ele>1777.1345214844</ele>
        <time>2013-01-12T13:27:04Z</time>
      </trkpt>
      <trkpt lat="45.35728" lon="5.89345">
        <ele>1777.1345214844</ele>
        <time>2013-01-12T13:27:05Z</time>
      </trkpt>
      <trkpt lat="45.35728" lon="5.89346">
        <ele>1774.2504882812</ele>
        <time>2013-01-12T13:27:06Z</time>
      </trkpt>
      <trkpt lat="45.35728" lon="5.89348">
        <ele>1777.6149902344</ele>
        <time>2013-01-12T13:27:08Z</time>
      </trkpt>
      <trkpt lat="45.35728" lon="5.89348">
        <ele>1777.1345214844</ele>
        <time>2013-01-12T13:27:09Z</time>
      </trkpt>
      <trkpt lat="45.35729" lon="5.8935">
        <ele>1776.1730957031</ele>
        <time>2013-01-12T13:27:11Z</time>
      </trkpt>
      <trkpt lat="45.3573" lon="5.89356">
        <ele>1780.0183105469</ele>
        <time>2013-01-12T13:27:22Z</time>
      </trkpt>
      <trkpt lat="45.3573" lon="5.89357">
        <ele>1780.0183105469</ele>
        <time>2013-01-12T13:27:23Z</time>
      </trkpt>
      <trkpt lat="45.35732" lon="5.89368">
        <ele>1779.0568847656</ele>
        <time>2013-01-12T13:27:39Z</time>
      </trkpt>
      <trkpt lat="45.35732" lon="5.89369">
        <ele>1782.4216308594</ele>
        <time>2013-01-12T13:27:41Z</time>
      </trkpt>
      <trkpt lat="45.35733" lon="5.89369">
        <ele>1779.5375976562</ele>
        <time>2013-01-12T13:27:43Z</time>
      </trkpt>
      <trkpt lat="45.35733" lon="5.89369">
        <ele>1782.9020996094</ele>
        <time>2013-01-12T13:27:45Z</time>
      </trkpt>
      <trkpt lat="45.35733" lon="5.89388">
        <ele>1785.7861328125</ele>
        <time>2013-01-12T13:28:01Z</time>
      </trkpt>
      <trkpt lat="45.35733" lon="5.8939">
        <ele>1782.9020996094</ele>
        <time>2013-01-12T13:28:02Z</time>
      </trkpt>
      <trkpt lat="45.35733" lon="5.89392">
        <ele>1786.2668457031</ele>
        <time>2013-01-12T13:28:04Z</time>
      </trkpt>
      <trkpt lat="45.35733" lon="5.89392">
        <ele>1786.2668457031</ele>
        <time>2013-01-12T13:28:05Z</time>
      </trkpt>
      <trkpt lat="45.35733" lon="5.89393">
        <ele>1782.9020996094</ele>
        <time>2013-01-12T13:28:06Z</time>
      </trkpt>
      <trkpt lat="45.35734" lon="5.89394">
        <ele>1786.2668457031</ele>
        <time>2013-01-12T13:28:08Z</time>
      </trkpt>
      <trkpt lat="45.35735" lon="5.89404">
        <ele>1788.6704101562</ele>
        <time>2013-01-12T13:28:22Z</time>
      </trkpt>
      <trkpt lat="45.35735" lon="5.89419">
        <ele>1790.5927734375</ele>
        <time>2013-01-12T13:28:38Z</time>
      </trkpt>
      <trkpt lat="45.35737" lon="5.89428">
        <ele>1793.9575195312</ele>
        <time>2013-01-12T13:28:49Z</time>
      </trkpt>
      <trkpt lat="45.35735" lon="5.89435">
        <ele>1796.3608398438</ele>
        <time>2013-01-12T13:29:03Z</time>
      </trkpt>
      <trkpt lat="45.35736" lon="5.89449">
        <ele>1795.8801269531</ele>
        <time>2013-01-12T13:29:19Z</time>
      </trkpt>
      <trkpt lat="45.35737" lon="5.89452">
        <ele>1799.7253417969</ele>
        <time>2013-01-12T13:29:24Z</time>
      </trkpt>
      <trkpt lat="45.35737" lon="5.89453">
        <ele>1796.3608398438</ele>
        <time>2013-01-12T13:29:25Z</time>
      </trkpt>
      <trkpt lat="45.35737" lon="5.89455">
        <ele>1799.7253417969</ele>
        <time>2013-01-12T13:29:28Z</time>
      </trkpt>
      <trkpt lat="45.35737" lon="5.89465">
        <ele>1801.6479492188</ele>
        <time>2013-01-12T13:29:42Z</time>
      </trkpt>
      <trkpt lat="45.35736" lon="5.89471">
        <ele>1802.1284179688</ele>
        <time>2013-01-12T13:30:04Z</time>
      </trkpt>
      <trkpt lat="45.35735" lon="5.89475">
        <ele>1803.5705566406</ele>
        <time>2013-01-12T13:30:49Z</time>
      </trkpt>
      <trkpt lat="45.35738" lon="5.89487">
        <ele>1806.9353027344</ele>
        <time>2013-01-12T13:31:05Z</time>
      </trkpt>
      <trkpt lat="45.35742" lon="5.89495">
        <ele>1809.8190917969</ele>
        <time>2013-01-12T13:31:27Z</time>
      </trkpt>
      <trkpt lat="45.35741" lon="5.89505">
        <ele>1811.7419433594</ele>
        <time>2013-01-12T13:31:42Z</time>
      </trkpt>
      <trkpt lat="45.35743" lon="5.89515">
        <ele>1812.2224121094</ele>
        <time>2013-01-12T13:31:55Z</time>
      </trkpt>
      <trkpt lat="45.35744" lon="5.89527">
        <ele>1816.0676269531</ele>
        <time>2013-01-12T13:32:07Z</time>
      </trkpt>
      <trkpt lat="45.35749" lon="5.8954">
        <ele>1815.5871582031</ele>
        <time>2013-01-12T13:32:24Z</time>
      </trkpt>
      <trkpt lat="45.35751" lon="5.89547">
        <ele>1818.9516601562</ele>
        <time>2013-01-12T13:32:34Z</time>
      </trkpt>
      <trkpt lat="45.35756" lon="5.89554">
        <ele>1818.9516601562</ele>
        <time>2013-01-12T13:32:45Z</time>
      </trkpt>
      <trkpt lat="45.35757" lon="5.89557">
        <ele>1820.8745117188</ele>
        <time>2013-01-12T13:32:51Z</time>
      </trkpt>
      <trkpt lat="45.35759" lon="5.89559">
        <ele>1821.3549804688</ele>
        <time>2013-01-12T13:32:55Z</time>
      </trkpt>
      <trkpt lat="45.3576" lon="5.89559">
        <ele>1821.3549804688</ele>
        <time>2013-01-12T13:32:59Z</time>
      </trkpt>
      <trkpt lat="45.35766" lon="5.89568">
        <ele>1825.2001953125</ele>
        <time>2013-01-12T13:33:27Z</time>
      </trkpt>
      <trkpt lat="45.35767" lon="5.8958">
        <ele>1824.7197265625</ele>
        <time>2013-01-12T13:33:41Z</time>
      </trkpt>
      <trkpt lat="45.3577" lon="5.89586">
        <ele>1828.0842285156</ele>
        <time>2013-01-12T13:33:52Z</time>
      </trkpt>
      <trkpt lat="45.35773" lon="5.89595">
        <ele>1828.5649414062</ele>
        <time>2013-01-12T13:34:07Z</time>
      </trkpt>
      <trkpt lat="45.35775" lon="5.89602">
        <ele>1832.41015625</ele>
        <time>2013-01-12T13:34:14Z</time>
      </trkpt>
      <trkpt lat="45.35776" lon="5.89604">
        <ele>1829.5261230469</ele>
        <time>2013-01-12T13:34:17Z</time>
      </trkpt>
      <trkpt lat="45.35776" lon="5.89605">
        <ele>1832.41015625</ele>
        <time>2013-01-12T13:34:18Z</time>
      </trkpt>
      <trkpt lat="45.35778" lon="5.8961">
        <ele>1832.41015625</ele>
        <time>2013-01-12T13:34:37Z</time>
      </trkpt>
      <trkpt lat="45.35778" lon="5.89613">
        <ele>1832.890625</ele>
        <time>2013-01-12T13:35:05Z</time>
      </trkpt>
      <trkpt lat="45.35778" lon="5.89614">
        <ele>1831.4487304688</ele>
        <time>2013-01-12T13:35:15Z</time>
      </trkpt>
      <trkpt lat="45.35779" lon="5.89615">
        <ele>1834.8134765625</ele>
        <time>2013-01-12T13:35:16Z</time>
      </trkpt>
      <trkpt lat="45.35779" lon="5.89615">
        <ele>1834.8134765625</ele>
        <time>2013-01-12T13:35:17Z</time>
      </trkpt>
      <trkpt lat="45.35785" lon="5.89623">
        <ele>1833.8520507812</ele>
        <time>2013-01-12T13:35:41Z</time>
      </trkpt>
      <trkpt lat="45.35792" lon="5.89633">
        <ele>1832.41015625</ele>
        <time>2013-01-12T13:35:48Z</time>
      </trkpt>
      <trkpt lat="45.358" lon="5.89643">
        <ele>1830.0068359375</ele>
        <time>2013-01-12T13:35:57Z</time>
      </trkpt>
      <trkpt lat="45.358" lon="5.89645">
        <ele>1832.41015625</ele>
        <time>2013-01-12T13:35:58Z</time>
      </trkpt>
      <trkpt lat="45.35807" lon="5.89655">
        <ele>1831.4487304688</ele>
        <time>2013-01-12T13:36:04Z</time>
      </trkpt>
      <trkpt lat="45.35812" lon="5.89669">
        <ele>1832.41015625</ele>
        <time>2013-01-12T13:36:16Z</time>
      </trkpt>
      <trkpt lat="45.35812" lon="5.89676">
        <ele>1833.8520507812</ele>
        <time>2013-01-12T13:36:22Z</time>
      </trkpt>
      <trkpt lat="45.35815" lon="5.89685">
        <ele>1833.8520507812</ele>
        <time>2013-01-12T13:36:37Z</time>
      </trkpt>
      <trkpt lat="45.35814" lon="5.89687">
        <ele>1833.3713378906</ele>
        <time>2013-01-12T13:37:03Z</time>
      </trkpt>
      <trkpt lat="45.3582" lon="5.89688">
        <ele>1833.3713378906</ele>
        <time>2013-01-12T13:37:17Z</time>
      </trkpt>
      <trkpt lat="45.3582" lon="5.89688">
        <ele>1830.4875488281</ele>
        <time>2013-01-12T13:40:09Z</time>
      </trkpt>
      <trkpt lat="45.3582" lon="5.89688">
        <ele>1834.8134765625</ele>
        <time>2013-01-12T13:40:10Z</time>
      </trkpt>
      <trkpt lat="45.3582" lon="5.89688">
        <ele>1835.2939453125</ele>
        <time>2013-01-12T13:42:36Z</time>
      </trkpt>
      <trkpt lat="45.3582" lon="5.89688">
        <ele>1834.3327636719</ele>
        <time>2013-01-12T13:42:38Z</time>
      </trkpt>
      <trkpt lat="45.3582" lon="5.89688">
        <ele>1830.0068359375</ele>
        <time>2013-01-12T13:43:43Z</time>
      </trkpt>
      <trkpt lat="45.3582" lon="5.89688">
        <ele>1833.3713378906</ele>
        <time>2013-01-12T13:43:44Z</time>
      </trkpt>
      <trkpt lat="45.3582" lon="5.89688">
        <ele>1837.6975097656</ele>
        <time>2013-01-12T13:43:46Z</time>
      </trkpt>
      <trkpt lat="45.3582" lon="5.89688">
        <ele>1835.2939453125</ele>
        <time>2013-01-12T13:43:47Z</time>
      </trkpt>
      <trkpt lat="45.35819" lon="5.89688">
        <ele>1831.9294433594</ele>
        <time>2013-01-12T13:44:25Z</time>
      </trkpt>
      <trkpt lat="45.35818" lon="5.8969">
        <ele>1831.9294433594</ele>
        <time>2013-01-12T13:44:34Z</time>
      </trkpt>
      <trkpt lat="45.35819" lon="5.89706">
        <ele>1829.0454101562</ele>
        <time>2013-01-12T13:44:39Z</time>
      </trkpt>
      <trkpt lat="45.35817" lon="5.89715">
        <ele>1827.603515625</ele>
        <time>2013-01-12T13:44:51Z</time>
      </trkpt>
      <trkpt lat="45.35815" lon="5.89718">
        <ele>1827.603515625</ele>
        <time>2013-01-12T13:45:08Z</time>
      </trkpt>
      <trkpt lat="45.3583" lon="5.89725">
        <ele>1826.1616210938</ele>
        <time>2013-01-12T13:45:43Z</time>
      </trkpt>
      <trkpt lat="45.35834" lon="5.89729">
        <ele>1824.2390136719</ele>
        <time>2013-01-12T13:45:50Z</time>
      </trkpt>
      <trkpt lat="45.35838" lon="5.89734">
        <ele>1822.31640625</ele>
        <time>2013-01-12T13:45:52Z</time>
      </trkpt>
      <trkpt lat="45.35839" lon="5.89734">
        <ele>1818.9516601562</ele>
        <time>2013-01-12T13:45:54Z</time>
      </trkpt>
      <trkpt lat="45.35834" lon="5.89727">
        <ele>1817.990234375</ele>
        <time>2013-01-12T13:46:07Z</time>
      </trkpt>
      <trkpt lat="45.35836" lon="5.89733">
        <ele>1815.1064453125</ele>
        <time>2013-01-12T13:46:09Z</time>
      </trkpt>
      <trkpt lat="45.3583" lon="5.89741">
        <ele>1811.2612304688</ele>
        <time>2013-01-12T13:46:13Z</time>
      </trkpt>
      <trkpt lat="45.3583" lon="5.89741">
        <ele>1811.7419433594</ele>
        <time>2013-01-12T13:46:14Z</time>
      </trkpt>
      <trkpt lat="45.35832" lon="5.89742">
        <ele>1810.2998046875</ele>
        <time>2013-01-12T13:46:19Z</time>
      </trkpt>
      <trkpt lat="45.35822" lon="5.89748">
        <ele>1807.8967285156</ele>
        <time>2013-01-12T13:46:36Z</time>
      </trkpt>
      <trkpt lat="45.3582" lon="5.89753">
        <ele>1805.0126953125</ele>
        <time>2013-01-12T13:46:38Z</time>
      </trkpt>
      <trkpt lat="45.3582" lon="5.89755">
        <ele>1805.0126953125</ele>
        <time>2013-01-12T13:46:45Z</time>
      </trkpt>
      <trkpt lat="45.35824" lon="5.89763">
        <ele>1800.6865234375</ele>
        <time>2013-01-12T13:46:49Z</time>
      </trkpt>
      <trkpt lat="45.35828" lon="5.89766">
        <ele>1796.8413085938</ele>
        <time>2013-01-12T13:46:52Z</time>
      </trkpt>
      <trkpt lat="45.35828" lon="5.89767">
        <ele>1796.8413085938</ele>
        <time>2013-01-12T13:46:53Z</time>
      </trkpt>
      <trkpt lat="45.3583" lon="5.89769">
        <ele>1794.9187011719</ele>
        <time>2013-01-12T13:46:57Z</time>
      </trkpt>
      <trkpt lat="45.35846" lon="5.89779">
        <ele>1790.5927734375</ele>
        <time>2013-01-12T13:47:01Z</time>
      </trkpt>
      <trkpt lat="45.35845" lon="5.89785">
        <ele>1786.7473144531</ele>
        <time>2013-01-12T13:47:04Z</time>
      </trkpt>
      <trkpt lat="45.35839" lon="5.89787">
        <ele>1784.8249511719</ele>
        <time>2013-01-12T13:47:21Z</time>
      </trkpt>
      <trkpt lat="45.35837" lon="5.89788">
        <ele>1783.8635253906</ele>
        <time>2013-01-12T13:47:23Z</time>
      </trkpt>
      <trkpt lat="45.35837" lon="5.8979">
        <ele>1784.8249511719</ele>
        <time>2013-01-12T13:47:36Z</time>
      </trkpt>
      <trkpt lat="45.35839" lon="5.89793">
        <ele>1780.4990234375</ele>
        <time>2013-01-12T13:47:39Z</time>
      </trkpt>
      <trkpt lat="45.35839" lon="5.89802">
        <ele>1777.6149902344</ele>
        <time>2013-01-12T13:47:44Z</time>
      </trkpt>
      <trkpt lat="45.35839" lon="5.89802">
        <ele>1777.1345214844</ele>
        <time>2013-01-12T13:47:45Z</time>
      </trkpt>
      <trkpt lat="45.35837" lon="5.89804">
        <ele>1777.1345214844</ele>
        <time>2013-01-12T13:47:50Z</time>
      </trkpt>
      <trkpt lat="45.35845" lon="5.8983">
        <ele>1772.80859375</ele>
        <time>2013-01-12T13:48:25Z</time>
      </trkpt>
      <trkpt lat="45.3584" lon="5.89823">
        <ele>1770.4050292969</ele>
        <time>2013-01-12T13:48:29Z</time>
      </trkpt>
      <trkpt lat="45.35842" lon="5.89825">
        <ele>1769.4438476562</ele>
        <time>2013-01-12T13:48:31Z</time>
      </trkpt>
      <trkpt lat="45.35844" lon="5.89827">
        <ele>1767.0405273438</ele>
        <time>2013-01-12T13:48:33Z</time>
      </trkpt>
      <trkpt lat="45.35844" lon="5.89834">
        <ele>1762.7145996094</ele>
        <time>2013-01-12T13:48:37Z</time>
      </trkpt>
      <trkpt lat="45.35842" lon="5.89837">
        <ele>1761.2727050781</ele>
        <time>2013-01-12T13:48:38Z</time>
      </trkpt>
      <trkpt lat="45.35832" lon="5.89851">
        <ele>1757.4274902344</ele>
        <time>2013-01-12T13:48:42Z</time>
      </trkpt>
      <trkpt lat="45.35824" lon="5.8985">
        <ele>1755.5046386719</ele>
        <time>2013-01-12T13:48:45Z</time>
      </trkpt>
      <trkpt lat="45.35822" lon="5.8985">
        <ele>1753.1013183594</ele>
        <time>2013-01-12T13:49:02Z</time>
      </trkpt>
      <trkpt lat="45.35825" lon="5.89853">
        <ele>1750.6979980469</ele>
        <time>2013-01-12T13:49:04Z</time>
      </trkpt>
      <trkpt lat="45.35828" lon="5.8986">
        <ele>1746.3723144531</ele>
        <time>2013-01-12T13:49:05Z</time>
      </trkpt>
      <trkpt lat="45.35832" lon="5.89864">
        <ele>1743.48828125</ele>
        <time>2013-01-12T13:49:06Z</time>
      </trkpt>
      <trkpt lat="45.35843" lon="5.8988">
        <ele>1736.7587890625</ele>
        <time>2013-01-12T13:49:09Z</time>
      </trkpt>
      <trkpt lat="45.35851" lon="5.89884">
        <ele>1733.3942871094</ele>
        <time>2013-01-12T13:49:11Z</time>
      </trkpt>
      <trkpt lat="45.35859" lon="5.89885">
        <ele>1732.4331054688</ele>
        <time>2013-01-12T13:49:13Z</time>
      </trkpt>
      <trkpt lat="45.35858" lon="5.89883">
        <ele>1731.4716796875</ele>
        <time>2013-01-12T13:49:25Z</time>
      </trkpt>
      <trkpt lat="45.35858" lon="5.89885">
        <ele>1731.4716796875</ele>
        <time>2013-01-12T13:49:39Z</time>
      </trkpt>
      <trkpt lat="45.35865" lon="5.89894">
        <ele>1727.1459960938</ele>
        <time>2013-01-12T13:49:42Z</time>
      </trkpt>
      <trkpt lat="45.35866" lon="5.89901">
        <ele>1724.2619628906</ele>
        <time>2013-01-12T13:49:44Z</time>
      </trkpt>
      <trkpt lat="45.3587" lon="5.89907">
        <ele>1721.3776855469</ele>
        <time>2013-01-12T13:49:45Z</time>
      </trkpt>
      <trkpt lat="45.35871" lon="5.89916">
        <ele>1717.5324707031</ele>
        <time>2013-01-12T13:49:47Z</time>
      </trkpt>
      <trkpt lat="45.35872" lon="5.89923">
        <ele>1713.6872558594</ele>
        <time>2013-01-12T13:49:48Z</time>
      </trkpt>
      <trkpt lat="45.3588" lon="5.8994">
        <ele>1711.2841796875</ele>
        <time>2013-01-12T13:49:50Z</time>
      </trkpt>
      <trkpt lat="45.35874" lon="5.89936">
        <ele>1702.1513671875</ele>
        <time>2013-01-12T13:49:53Z</time>
      </trkpt>
      <trkpt lat="45.3587" lon="5.89945">
        <ele>1699.7482910156</ele>
        <time>2013-01-12T13:50:01Z</time>
      </trkpt>
      <trkpt lat="45.35871" lon="5.89951">
        <ele>1699.7482910156</ele>
        <time>2013-01-12T13:50:57Z</time>
      </trkpt>
      <trkpt lat="45.35871" lon="5.89966">
        <ele>1693.98046875</ele>
        <time>2013-01-12T13:51:00Z</time>
      </trkpt>
      <trkpt lat="45.35871" lon="5.8997">
        <ele>1692.5385742188</ele>
        <time>2013-01-12T13:51:01Z</time>
      </trkpt>
      <trkpt lat="45.35868" lon="5.89973">
        <ele>1693.4997558594</ele>
        <time>2013-01-12T13:51:14Z</time>
      </trkpt>
      <trkpt lat="45.35855" lon="5.89969">
        <ele>1692.5385742188</ele>
        <time>2013-01-12T13:51:17Z</time>
      </trkpt>
      <trkpt lat="45.35845" lon="5.89965">
        <ele>1691.0961914062</ele>
        <time>2013-01-12T13:51:20Z</time>
      </trkpt>
      <trkpt lat="45.35843" lon="5.89962">
        <ele>1689.654296875</ele>
        <time>2013-01-12T13:51:22Z</time>
      </trkpt>
      <trkpt lat="45.35844" lon="5.89963">
        <ele>1691.0961914062</ele>
        <time>2013-01-12T13:51:24Z</time>
      </trkpt>
      <trkpt lat="45.35846" lon="5.89966">
        <ele>1687.2509765625</ele>
        <time>2013-01-12T13:51:30Z</time>
      </trkpt>
      <trkpt lat="45.35848" lon="5.89967">
        <ele>1684.8479003906</ele>
        <time>2013-01-12T13:51:32Z</time>
      </trkpt>
      <trkpt lat="45.35848" lon="5.89977">
        <ele>1680.5219726562</ele>
        <time>2013-01-12T13:51:35Z</time>
      </trkpt>
      <trkpt lat="45.35838" lon="5.89983">
        <ele>1679.0798339844</ele>
        <time>2013-01-12T13:51:37Z</time>
      </trkpt>
      <trkpt lat="45.35832" lon="5.89988">
        <ele>1676.1960449219</ele>
        <time>2013-01-12T13:51:39Z</time>
      </trkpt>
      <trkpt lat="45.35831" lon="5.89998">
        <ele>1670.9086914062</ele>
        <time>2013-01-12T13:51:42Z</time>
      </trkpt>
      <trkpt lat="45.35828" lon="5.90003">
        <ele>1667.0634765625</ele>
        <time>2013-01-12T13:51:44Z</time>
      </trkpt>
      <trkpt lat="45.3583" lon="5.90014">
        <ele>1664.1794433594</ele>
        <time>2013-01-12T13:51:46Z</time>
      </trkpt>
      <trkpt lat="45.35829" lon="5.90013">
        <ele>1660.3342285156</ele>
        <time>2013-01-12T13:51:52Z</time>
      </trkpt>
      <trkpt lat="45.3583" lon="5.90011">
        <ele>1659.8532714844</ele>
        <time>2013-01-12T13:52:33Z</time>
      </trkpt>
      <trkpt lat="45.35833" lon="5.90014">
        <ele>1653.1242675781</ele>
        <time>2013-01-12T13:52:36Z</time>
      </trkpt>
      <trkpt lat="45.35833" lon="5.90018">
        <ele>1649.2790527344</ele>
        <time>2013-01-12T13:52:38Z</time>
      </trkpt>
      <trkpt lat="45.35834" lon="5.90021">
        <ele>1644.4724121094</ele>
        <time>2013-01-12T13:52:39Z</time>
      </trkpt>
      <trkpt lat="45.35837" lon="5.90024">
        <ele>1641.1076660156</ele>
        <time>2013-01-12T13:52:40Z</time>
      </trkpt>
      <trkpt lat="45.35831" lon="5.90038">
        <ele>1638.2238769531</ele>
        <time>2013-01-12T13:52:42Z</time>
      </trkpt>
      <trkpt lat="45.35828" lon="5.90042">
        <ele>1633.8979492188</ele>
        <time>2013-01-12T13:52:44Z</time>
      </trkpt>
      <trkpt lat="45.3583" lon="5.90051">
        <ele>1629.5720214844</ele>
        <time>2013-01-12T13:52:46Z</time>
      </trkpt>
      <trkpt lat="45.35825" lon="5.90055">
        <ele>1627.1687011719</ele>
        <time>2013-01-12T13:52:50Z</time>
      </trkpt>
      <trkpt lat="45.35827" lon="5.90055">
        <ele>1623.8039550781</ele>
        <time>2013-01-12T13:53:21Z</time>
      </trkpt>
      <trkpt lat="45.35825" lon="5.90065">
        <ele>1617.0749511719</ele>
        <time>2013-01-12T13:53:25Z</time>
      </trkpt>
      <trkpt lat="45.3583" lon="5.9007">
        <ele>1616.5942382812</ele>
        <time>2013-01-12T13:53:27Z</time>
      </trkpt>
      <trkpt lat="45.35829" lon="5.90073">
        <ele>1612.7490234375</ele>
        <time>2013-01-12T13:53:28Z</time>
      </trkpt>
      <trkpt lat="45.35824" lon="5.90078">
        <ele>1612.7490234375</ele>
        <time>2013-01-12T13:53:29Z</time>
      </trkpt>
      <trkpt lat="45.35823" lon="5.90079">
        <ele>1609.3842773438</ele>
        <time>2013-01-12T13:53:30Z</time>
      </trkpt>
      <trkpt lat="45.35823" lon="5.90083">
        <ele>1606.01953125</ele>
        <time>2013-01-12T13:53:31Z</time>
      </trkpt>
      <trkpt lat="45.35824" lon="5.90085">
        <ele>1606.01953125</ele>
        <time>2013-01-12T13:53:32Z</time>
      </trkpt>
      <trkpt lat="45.3582" lon="5.90091">
        <ele>1601.6938476562</ele>
        <time>2013-01-12T13:53:34Z</time>
      </trkpt>
      <trkpt lat="45.3582" lon="5.90099">
        <ele>1598.3291015625</ele>
        <time>2013-01-12T13:53:36Z</time>
      </trkpt>
      <trkpt lat="45.35815" lon="5.90105">
        <ele>1596.8872070312</ele>
        <time>2013-01-12T13:53:38Z</time>
      </trkpt>
      <trkpt lat="45.35813" lon="5.90106">
        <ele>1593.5224609375</ele>
        <time>2013-01-12T13:54:17Z</time>
      </trkpt>
      <trkpt lat="45.3581" lon="5.90116">
        <ele>1589.1965332031</ele>
        <time>2013-01-12T13:54:23Z</time>
      </trkpt>
      <trkpt lat="45.35808" lon="5.90124">
        <ele>1584.8708496094</ele>
        <time>2013-01-12T13:54:27Z</time>
      </trkpt>
      <trkpt lat="45.35807" lon="5.90127">
        <ele>1581.0256347656</ele>
        <time>2013-01-12T13:54:30Z</time>
      </trkpt>
      <trkpt lat="45.358" lon="5.90136">
        <ele>1578.1413574219</ele>
        <time>2013-01-12T13:54:33Z</time>
      </trkpt>
      <trkpt lat="45.358" lon="5.90142">
        <ele>1574.7768554688</ele>
        <time>2013-01-12T13:54:34Z</time>
      </trkpt>
      <trkpt lat="45.35798" lon="5.90154">
        <ele>1569.9702148438</ele>
        <time>2013-01-12T13:54:37Z</time>
      </trkpt>
      <trkpt lat="45.35797" lon="5.90156">
        <ele>1568.5283203125</ele>
        <time>2013-01-12T13:54:38Z</time>
      </trkpt>
      <trkpt lat="45.35792" lon="5.90163">
        <ele>1562.7602539062</ele>
        <time>2013-01-12T13:54:41Z</time>
      </trkpt>
      <trkpt lat="45.35795" lon="5.90165">
        <ele>1562.7602539062</ele>
        <time>2013-01-12T13:55:00Z</time>
      </trkpt>
      <trkpt lat="45.35795" lon="5.90165">
        <ele>1561.7990722656</ele>
        <time>2013-01-12T13:55:33Z</time>
      </trkpt>
      <trkpt lat="45.35781" lon="5.90169">
        <ele>1557.9538574219</ele>
        <time>2013-01-12T13:55:39Z</time>
      </trkpt>
      <trkpt lat="45.35778" lon="5.90168">
        <ele>1557.9538574219</ele>
        <time>2013-01-12T13:55:40Z</time>
      </trkpt>
      <trkpt lat="45.35772" lon="5.90165">
        <ele>1555.5505371094</ele>
        <time>2013-01-12T13:55:44Z</time>
      </trkpt>
      <trkpt lat="45.35772" lon="5.90165">
        <ele>1552.6665039062</ele>
        <time>2013-01-12T13:55:51Z</time>
      </trkpt>
      <trkpt lat="45.35771" lon="5.9017">
        <ele>1549.3020019531</ele>
        <time>2013-01-12T13:55:54Z</time>
      </trkpt>
      <trkpt lat="45.3577" lon="5.90178">
        <ele>1544.4951171875</ele>
        <time>2013-01-12T13:55:57Z</time>
      </trkpt>
      <trkpt lat="45.35767" lon="5.90182">
        <ele>1541.1306152344</ele>
        <time>2013-01-12T13:55:59Z</time>
      </trkpt>
      <trkpt lat="45.35765" lon="5.9019">
        <ele>1538.2468261719</ele>
        <time>2013-01-12T13:56:02Z</time>
      </trkpt>
      <trkpt lat="45.35766" lon="5.90203">
        <ele>1534.4016113281</ele>
        <time>2013-01-12T13:56:21Z</time>
      </trkpt>
      <trkpt lat="45.35766" lon="5.90206">
        <ele>1534.4016113281</ele>
        <time>2013-01-12T13:56:22Z</time>
      </trkpt>
      <trkpt lat="45.35761" lon="5.90218">
        <ele>1528.6335449219</ele>
        <time>2013-01-12T13:56:25Z</time>
      </trkpt>
      <trkpt lat="45.3576" lon="5.90221">
        <ele>1525.2687988281</ele>
        <time>2013-01-12T13:56:26Z</time>
      </trkpt>
      <trkpt lat="45.35759" lon="5.90233">
        <ele>1519.0205078125</ele>
        <time>2013-01-12T13:56:29Z</time>
      </trkpt>
      <trkpt lat="45.3576" lon="5.90235">
        <ele>1519.5012207031</ele>
        <time>2013-01-12T13:56:30Z</time>
      </trkpt>
      <trkpt lat="45.3576" lon="5.90239">
        <ele>1516.1364746094</ele>
        <time>2013-01-12T13:56:31Z</time>
      </trkpt>
      <trkpt lat="45.35754" lon="5.9025">
        <ele>1512.7717285156</ele>
        <time>2013-01-12T13:56:33Z</time>
      </trkpt>
      <trkpt lat="45.35754" lon="5.9025">
        <ele>1512.291015625</ele>
        <time>2013-01-12T13:56:34Z</time>
      </trkpt>
      <trkpt lat="45.35749" lon="5.90238">
        <ele>1511.810546875</ele>
        <time>2013-01-12T13:56:52Z</time>
      </trkpt>
      <trkpt lat="45.35748" lon="5.9025">
        <ele>1508.4458007812</ele>
        <time>2013-01-12T13:57:58Z</time>
      </trkpt>
      <trkpt lat="45.35747" lon="5.90255">
        <ele>1504.1201171875</ele>
        <time>2013-01-12T13:58:03Z</time>
      </trkpt>
      <trkpt lat="45.35747" lon="5.90262">
        <ele>1502.197265625</ele>
        <time>2013-01-12T13:58:12Z</time>
      </trkpt>
      <trkpt lat="45.35745" lon="5.90271">
        <ele>1495.4680175781</ele>
        <time>2013-01-12T13:58:15Z</time>
      </trkpt>
      <trkpt lat="45.35744" lon="5.90278">
        <ele>1494.0261230469</ele>
        <time>2013-01-12T13:58:17Z</time>
      </trkpt>
      <trkpt lat="45.35744" lon="5.90279">
        <ele>1493.5454101562</ele>
        <time>2013-01-12T13:58:18Z</time>
      </trkpt>
      <trkpt lat="45.35742" lon="5.90285">
        <ele>1489.7001953125</ele>
        <time>2013-01-12T13:58:20Z</time>
      </trkpt>
      <trkpt lat="45.35737" lon="5.90289">
        <ele>1488.2583007812</ele>
        <time>2013-01-12T13:58:23Z</time>
      </trkpt>
      <trkpt lat="45.35729" lon="5.90292">
        <ele>1483.9321289062</ele>
        <time>2013-01-12T13:58:26Z</time>
      </trkpt>
      <trkpt lat="45.35727" lon="5.90291">
        <ele>1484.4130859375</ele>
        <time>2013-01-12T13:58:27Z</time>
      </trkpt>
      <trkpt lat="45.35723" lon="5.90288">
        <ele>1483.9321289062</ele>
        <time>2013-01-12T13:58:40Z</time>
      </trkpt>
      <trkpt lat="45.35722" lon="5.9029">
        <ele>1482.0095214844</ele>
        <time>2013-01-12T13:58:43Z</time>
      </trkpt>
      <trkpt lat="45.35715" lon="5.90299">
        <ele>1478.6450195312</ele>
        <time>2013-01-12T13:58:47Z</time>
      </trkpt>
      <trkpt lat="45.35712" lon="5.903">
        <ele>1475.7609863281</ele>
        <time>2013-01-12T13:58:59Z</time>
      </trkpt>
      <trkpt lat="45.35708" lon="5.90302">
        <ele>1475.7609863281</ele>
        <time>2013-01-12T13:59:01Z</time>
      </trkpt>
      <trkpt lat="45.35705" lon="5.90313">
        <ele>1469.9931640625</ele>
        <time>2013-01-12T13:59:04Z</time>
      </trkpt>
      <trkpt lat="45.35705" lon="5.90319">
        <ele>1466.6284179688</ele>
        <time>2013-01-12T13:59:07Z</time>
      </trkpt>
      <trkpt lat="45.35709" lon="5.90327">
        <ele>1461.8220214844</ele>
        <time>2013-01-12T13:59:21Z</time>
      </trkpt>
      <trkpt lat="45.35706" lon="5.90332">
        <ele>1455.5734863281</ele>
        <time>2013-01-12T13:59:23Z</time>
      </trkpt>
      <trkpt lat="45.35701" lon="5.90337">
        <ele>1456.5346679688</ele>
        <time>2013-01-12T13:59:24Z</time>
      </trkpt>
      <trkpt lat="45.35701" lon="5.9034">
        <ele>1454.6120605469</ele>
        <time>2013-01-12T13:59:25Z</time>
      </trkpt>
      <trkpt lat="45.35708" lon="5.9033">
        <ele>1454.1315917969</ele>
        <time>2013-01-12T13:59:45Z</time>
      </trkpt>
      <trkpt lat="45.35716" lon="5.90327">
        <ele>1455.5734863281</ele>
        <time>2013-01-12T14:00:06Z</time>
      </trkpt>
      <trkpt lat="45.35714" lon="5.90326">
        <ele>1453.1701660156</ele>
        <time>2013-01-12T14:00:15Z</time>
      </trkpt>
      <trkpt lat="45.35713" lon="5.90329">
        <ele>1449.8054199219</ele>
        <time>2013-01-12T14:00:17Z</time>
      </trkpt>
      <trkpt lat="45.35707" lon="5.90337">
        <ele>1447.4020996094</ele>
        <time>2013-01-12T14:00:20Z</time>
      </trkpt>
      <trkpt lat="45.35702" lon="5.90335">
        <ele>1446.9213867188</ele>
        <time>2013-01-12T14:00:25Z</time>
      </trkpt>
      <trkpt lat="45.35701" lon="5.90341">
        <ele>1443.076171875</ele>
        <time>2013-01-12T14:00:27Z</time>
      </trkpt>
      <trkpt lat="45.357" lon="5.90344">
        <ele>1443.5568847656</ele>
        <time>2013-01-12T14:00:28Z</time>
      </trkpt>
      <trkpt lat="45.35697" lon="5.90347">
        <ele>1443.5568847656</ele>
        <time>2013-01-12T14:00:29Z</time>
      </trkpt>
      <trkpt lat="45.35693" lon="5.90355">
        <ele>1437.7890625</ele>
        <time>2013-01-12T14:00:33Z</time>
      </trkpt>
      <trkpt lat="45.35691" lon="5.90364">
        <ele>1433.462890625</ele>
        <time>2013-01-12T14:00:35Z</time>
      </trkpt>
      <trkpt lat="45.35686" lon="5.90372">
        <ele>1430.0983886719</ele>
        <time>2013-01-12T14:00:40Z</time>
      </trkpt>
      <trkpt lat="45.35683" lon="5.9037">
        <ele>1429.1369628906</ele>
        <time>2013-01-12T14:00:42Z</time>
      </trkpt>
      <trkpt lat="45.35673" lon="5.90369">
        <ele>1427.2145996094</ele>
        <time>2013-01-12T14:00:53Z</time>
      </trkpt>
      <trkpt lat="45.35671" lon="5.90374">
        <ele>1420.9660644531</ele>
        <time>2013-01-12T14:00:55Z</time>
      </trkpt>
      <trkpt lat="45.35671" lon="5.90383">
        <ele>1419.5239257812</ele>
        <time>2013-01-12T14:00:57Z</time>
      </trkpt>
      <trkpt lat="45.35664" lon="5.90389">
        <ele>1416.1591796875</ele>
        <time>2013-01-12T14:01:00Z</time>
      </trkpt>
      <trkpt lat="45.35661" lon="5.90392">
        <ele>1414.2365722656</ele>
        <time>2013-01-12T14:01:11Z</time>
      </trkpt>
      <trkpt lat="45.3565" lon="5.90404">
        <ele>1410.3913574219</ele>
        <time>2013-01-12T14:01:27Z</time>
      </trkpt>
      <trkpt lat="45.3565" lon="5.90407">
        <ele>1408.9494628906</ele>
        <time>2013-01-12T14:01:29Z</time>
      </trkpt>
      <trkpt lat="45.3565" lon="5.9041">
        <ele>1407.5075683594</ele>
        <time>2013-01-12T14:01:33Z</time>
      </trkpt>
      <trkpt lat="45.35648" lon="5.90415">
        <ele>1404.1430664062</ele>
        <time>2013-01-12T14:01:40Z</time>
      </trkpt>
      <trkpt lat="45.3565" lon="5.90417">
        <ele>1405.5849609375</ele>
        <time>2013-01-12T14:01:41Z</time>
      </trkpt>
      <trkpt lat="45.3565" lon="5.90428">
        <ele>1401.7395019531</ele>
        <time>2013-01-12T14:01:53Z</time>
      </trkpt>
      <trkpt lat="45.35646" lon="5.90434">
        <ele>1400.7780761719</ele>
        <time>2013-01-12T14:02:19Z</time>
      </trkpt>
      <trkpt lat="45.35642" lon="5.90439">
        <ele>1396.9328613281</ele>
        <time>2013-01-12T14:02:23Z</time>
      </trkpt>
      <trkpt lat="45.3564" lon="5.90439">
        <ele>1395.4909667969</ele>
        <time>2013-01-12T14:03:00Z</time>
      </trkpt>
      <trkpt lat="45.35645" lon="5.90456">
        <ele>1393.568359375</ele>
        <time>2013-01-12T14:03:03Z</time>
      </trkpt>
      <trkpt lat="45.35649" lon="5.90482">
        <ele>1389.2424316406</ele>
        <time>2013-01-12T14:03:06Z</time>
      </trkpt>
      <trkpt lat="45.35651" lon="5.90491">
        <ele>1387.3195800781</ele>
        <time>2013-01-12T14:03:07Z</time>
      </trkpt>
      <trkpt lat="45.35662" lon="5.90534">
        <ele>1379.1484375</ele>
        <time>2013-01-12T14:03:12Z</time>
      </trkpt>
      <trkpt lat="45.35666" lon="5.90553">
        <ele>1376.2646484375</ele>
        <time>2013-01-12T14:03:16Z</time>
      </trkpt>
      <trkpt lat="45.35667" lon="5.90555">
        <ele>1375.7839355469</ele>
        <time>2013-01-12T14:03:18Z</time>
      </trkpt>
      <trkpt lat="45.35669" lon="5.90559">
        <ele>1374.8227539062</ele>
        <time>2013-01-12T14:03:20Z</time>
      </trkpt>
      <trkpt lat="45.35679" lon="5.90572">
        <ele>1370.0158691406</ele>
        <time>2013-01-12T14:03:23Z</time>
      </trkpt>
      <trkpt lat="45.35683" lon="5.90576">
        <ele>1370.4965820312</ele>
        <time>2013-01-12T14:03:24Z</time>
      </trkpt>
      <trkpt lat="45.35694" lon="5.90582">
        <ele>1368.5739746094</ele>
        <time>2013-01-12T14:03:27Z</time>
      </trkpt>
      <trkpt lat="45.35695" lon="5.90583">
        <ele>1369.0546875</ele>
        <time>2013-01-12T14:03:28Z</time>
      </trkpt>
      <trkpt lat="45.35697" lon="5.90588">
        <ele>1365.6901855469</ele>
        <time>2013-01-12T14:03:46Z</time>
      </trkpt>
      <trkpt lat="45.35707" lon="5.90601">
        <ele>1361.8449707031</ele>
        <time>2013-01-12T14:03:50Z</time>
      </trkpt>
      <trkpt lat="45.35713" lon="5.90628">
        <ele>1357.0383300781</ele>
        <time>2013-01-12T14:03:54Z</time>
      </trkpt>
      <trkpt lat="45.35722" lon="5.90647">
        <ele>1354.154296875</ele>
        <time>2013-01-12T14:03:57Z</time>
      </trkpt>
      <trkpt lat="45.35727" lon="5.90661">
        <ele>1350.7895507812</ele>
        <time>2013-01-12T14:03:59Z</time>
      </trkpt>
      <trkpt lat="45.35738" lon="5.90689">
        <ele>1343.5798339844</ele>
        <time>2013-01-12T14:04:03Z</time>
      </trkpt>
      <trkpt lat="45.35739" lon="5.907">
        <ele>1344.541015625</ele>
        <time>2013-01-12T14:04:14Z</time>
      </trkpt>
      <trkpt lat="45.3574" lon="5.90703">
        <ele>1343.5798339844</ele>
        <time>2013-01-12T14:04:33Z</time>
      </trkpt>
      <trkpt lat="45.35747" lon="5.90719">
        <ele>1338.7731933594</ele>
        <time>2013-01-12T14:04:38Z</time>
      </trkpt>
      <trkpt lat="45.3575" lon="5.90725">
        <ele>1338.2924804688</ele>
        <time>2013-01-12T14:04:39Z</time>
      </trkpt>
      <trkpt lat="45.35763" lon="5.90745">
        <ele>1333.0051269531</ele>
        <time>2013-01-12T14:04:42Z</time>
      </trkpt>
      <trkpt lat="45.35768" lon="5.90751">
        <ele>1331.5632324219</ele>
        <time>2013-01-12T14:04:43Z</time>
      </trkpt>
      <trkpt lat="45.35781" lon="5.90766">
        <ele>1329.1599121094</ele>
        <time>2013-01-12T14:04:45Z</time>
      </trkpt>
      <trkpt lat="45.35797" lon="5.90777">
        <ele>1327.2375488281</ele>
        <time>2013-01-12T14:04:48Z</time>
      </trkpt>
      <trkpt lat="45.35811" lon="5.90776">
        <ele>1326.2761230469</ele>
        <time>2013-01-12T14:04:54Z</time>
      </trkpt>
      <trkpt lat="45.35815" lon="5.90776">
        <ele>1325.7954101562</ele>
        <time>2013-01-12T14:05:09Z</time>
      </trkpt>
      <trkpt lat="45.35816" lon="5.90783">
        <ele>1324.353515625</ele>
        <time>2013-01-12T14:05:11Z</time>
      </trkpt>
      <trkpt lat="45.35814" lon="5.90789">
        <ele>1320.9887695312</ele>
        <time>2013-01-12T14:05:12Z</time>
      </trkpt>
      <trkpt lat="45.35813" lon="5.90802">
        <ele>1317.1435546875</ele>
        <time>2013-01-12T14:05:14Z</time>
      </trkpt>
      <trkpt lat="45.35816" lon="5.90805">
        <ele>1316.1821289062</ele>
        <time>2013-01-12T14:05:26Z</time>
      </trkpt>
      <trkpt lat="45.35813" lon="5.90812">
        <ele>1313.2983398438</ele>
        <time>2013-01-12T14:07:25Z</time>
      </trkpt>
      <trkpt lat="45.35812" lon="5.90814">
        <ele>1312.3369140625</ele>
        <time>2013-01-12T14:07:27Z</time>
      </trkpt>
      <trkpt lat="45.35807" lon="5.90823">
        <ele>1307.5302734375</ele>
        <time>2013-01-12T14:07:29Z</time>
      </trkpt>
      <trkpt lat="45.35803" lon="5.90839">
        <ele>1304.1657714844</ele>
        <time>2013-01-12T14:07:31Z</time>
      </trkpt>
      <trkpt lat="45.35804" lon="5.90842">
        <ele>1303.6850585938</ele>
        <time>2013-01-12T14:07:32Z</time>
      </trkpt>
      <trkpt lat="45.358" lon="5.90854">
        <ele>1300.3205566406</ele>
        <time>2013-01-12T14:07:34Z</time>
      </trkpt>
      <trkpt lat="45.35801" lon="5.90857">
        <ele>1300.3205566406</ele>
        <time>2013-01-12T14:07:35Z</time>
      </trkpt>
      <trkpt lat="45.35803" lon="5.90867">
        <ele>1295.9946289062</ele>
        <time>2013-01-12T14:07:37Z</time>
      </trkpt>
      <trkpt lat="45.35804" lon="5.90877">
        <ele>1295.5139160156</ele>
        <time>2013-01-12T14:07:38Z</time>
      </trkpt>
      <trkpt lat="45.35794" lon="5.90898">
        <ele>1289.7458496094</ele>
        <time>2013-01-12T14:07:42Z</time>
      </trkpt>
      <trkpt lat="45.35788" lon="5.90893">
        <ele>1288.3039550781</ele>
        <time>2013-01-12T14:07:44Z</time>
      </trkpt>
      <trkpt lat="45.35775" lon="5.90891">
        <ele>1287.3425292969</ele>
        <time>2013-01-12T14:07:48Z</time>
      </trkpt>
      <trkpt lat="45.35758" lon="5.90887">
        <ele>1282.0554199219</ele>
        <time>2013-01-12T14:07:55Z</time>
      </trkpt>
      <trkpt lat="45.35757" lon="5.90884">
        <ele>1282.5361328125</ele>
        <time>2013-01-12T14:07:57Z</time>
      </trkpt>
      <trkpt lat="45.35752" lon="5.90879">
        <ele>1282.0554199219</ele>
        <time>2013-01-12T14:08:01Z</time>
      </trkpt>
      <trkpt lat="45.35741" lon="5.90878">
        <ele>1278.6909179688</ele>
        <time>2013-01-12T14:08:05Z</time>
      </trkpt>
      <trkpt lat="45.35713" lon="5.90882">
        <ele>1271.4807128906</ele>
        <time>2013-01-12T14:08:09Z</time>
      </trkpt>
      <trkpt lat="45.35704" lon="5.90884">
        <ele>1267.6354980469</ele>
        <time>2013-01-12T14:08:10Z</time>
      </trkpt>
      <trkpt lat="45.35686" lon="5.90882">
        <ele>1264.7517089844</ele>
        <time>2013-01-12T14:08:15Z</time>
      </trkpt>
      <trkpt lat="45.35694" lon="5.90876">
        <ele>1264.2709960938</ele>
        <time>2013-01-12T14:08:53Z</time>
      </trkpt>
      <trkpt lat="45.35697" lon="5.90894">
        <ele>1260.42578125</ele>
        <time>2013-01-12T14:08:57Z</time>
      </trkpt>
      <trkpt lat="45.35694" lon="5.90903">
        <ele>1260.42578125</ele>
        <time>2013-01-12T14:08:58Z</time>
      </trkpt>
      <trkpt lat="45.35691" lon="5.90914">
        <ele>1256.5803222656</ele>
        <time>2013-01-12T14:08:59Z</time>
      </trkpt>
      <trkpt lat="45.35689" lon="5.90944">
        <ele>1251.2932128906</ele>
        <time>2013-01-12T14:09:01Z</time>
      </trkpt>
      <trkpt lat="45.35685" lon="5.90959">
        <ele>1246.9672851562</ele>
        <time>2013-01-12T14:09:02Z</time>
      </trkpt>
      <trkpt lat="45.35686" lon="5.90985">
        <ele>1242.6413574219</ele>
        <time>2013-01-12T14:09:04Z</time>
      </trkpt>
      <trkpt lat="45.35687" lon="5.90999">
        <ele>1238.7961425781</ele>
        <time>2013-01-12T14:09:05Z</time>
      </trkpt>
      <trkpt lat="45.35698" lon="5.91057">
        <ele>1227.2602539062</ele>
        <time>2013-01-12T14:09:09Z</time>
      </trkpt>
      <trkpt lat="45.35697" lon="5.91073">
        <ele>1222.4536132812</ele>
        <time>2013-01-12T14:09:10Z</time>
      </trkpt>
      <trkpt lat="45.35698" lon="5.91085">
        <ele>1218.1276855469</ele>
        <time>2013-01-12T14:09:11Z</time>
      </trkpt>
      <trkpt lat="45.35703" lon="5.91095">
        <ele>1217.6469726562</ele>
        <time>2013-01-12T14:09:12Z</time>
      </trkpt>
      <trkpt lat="45.35704" lon="5.91119">
        <ele>1211.3984375</ele>
        <time>2013-01-12T14:09:14Z</time>
      </trkpt>
      <trkpt lat="45.35705" lon="5.91133">
        <ele>1207.5532226562</ele>
        <time>2013-01-12T14:09:15Z</time>
      </trkpt>
      <trkpt lat="45.3571" lon="5.91143">
        <ele>1207.5532226562</ele>
        <time>2013-01-12T14:09:16Z</time>
      </trkpt>
      <trkpt lat="45.35716" lon="5.91153">
        <ele>1206.1110839844</ele>
        <time>2013-01-12T14:09:17Z</time>
      </trkpt>
      <trkpt lat="45.35732" lon="5.91199">
        <ele>1195.5366210938</ele>
        <time>2013-01-12T14:09:21Z</time>
      </trkpt>
      <trkpt lat="45.3573" lon="5.91224">
        <ele>1188.8076171875</ele>
        <time>2013-01-12T14:09:23Z</time>
      </trkpt>
      <trkpt lat="45.35736" lon="5.91246">
        <ele>1184.9624023438</ele>
        <time>2013-01-12T14:09:25Z</time>
      </trkpt>
      <trkpt lat="45.35728" lon="5.91269">
        <ele>1178.2329101562</ele>
        <time>2013-01-12T14:09:27Z</time>
      </trkpt>
      <trkpt lat="45.35722" lon="5.91284">
        <ele>1172.4650878906</ele>
        <time>2013-01-12T14:09:28Z</time>
      </trkpt>
      <trkpt lat="45.35721" lon="5.91301">
        <ele>1167.6584472656</ele>
        <time>2013-01-12T14:09:29Z</time>
      </trkpt>
      <trkpt lat="45.35729" lon="5.91333">
        <ele>1163.3325195312</ele>
        <time>2013-01-12T14:09:31Z</time>
      </trkpt>
      <trkpt lat="45.35728" lon="5.91349">
        <ele>1160.4484863281</ele>
        <time>2013-01-12T14:09:32Z</time>
      </trkpt>
      <trkpt lat="45.35723" lon="5.91361">
        <ele>1156.6032714844</ele>
        <time>2013-01-12T14:09:33Z</time>
      </trkpt>
      <trkpt lat="45.3572" lon="5.91376">
        <ele>1152.7580566406</ele>
        <time>2013-01-12T14:09:34Z</time>
      </trkpt>
      <trkpt lat="45.35721" lon="5.91406">
        <ele>1150.8354492188</ele>
        <time>2013-01-12T14:09:36Z</time>
      </trkpt>
      <trkpt lat="45.3572" lon="5.91418">
        <ele>1147.470703125</ele>
        <time>2013-01-12T14:09:37Z</time>
      </trkpt>
      <trkpt lat="45.35709" lon="5.91439">
        <ele>1140.2609863281</ele>
        <time>2013-01-12T14:09:39Z</time>
      </trkpt>
      <trkpt lat="45.35706" lon="5.91465">
        <ele>1136.4157714844</ele>
        <time>2013-01-12T14:09:41Z</time>
      </trkpt>
      <trkpt lat="45.35701" lon="5.91487">
        <ele>1129.6862792969</ele>
        <time>2013-01-12T14:09:43Z</time>
      </trkpt>
      <trkpt lat="45.357" lon="5.91492">
        <ele>1128.2443847656</ele>
        <time>2013-01-12T14:09:45Z</time>
      </trkpt>
      <trkpt lat="45.35707" lon="5.91496">
        <ele>1128.2443847656</ele>
        <time>2013-01-12T14:09:49Z</time>
      </trkpt>
      <trkpt lat="45.35696" lon="5.91513">
        <ele>1123.9184570312</ele>
        <time>2013-01-12T14:09:55Z</time>
      </trkpt>
      <trkpt lat="45.35686" lon="5.91525">
        <ele>1120.5539550781</ele>
        <time>2013-01-12T14:09:57Z</time>
      </trkpt>
      <trkpt lat="45.35665" lon="5.91561">
        <ele>1112.86328125</ele>
        <time>2013-01-12T14:10:01Z</time>
      </trkpt>
      <trkpt lat="45.3566" lon="5.9157">
        <ele>1109.4987792969</ele>
        <time>2013-01-12T14:10:02Z</time>
      </trkpt>
      <trkpt lat="45.35654" lon="5.91594">
        <ele>1106.1340332031</ele>
        <time>2013-01-12T14:10:04Z</time>
      </trkpt>
      <trkpt lat="45.35643" lon="5.91611">
        <ele>1099.8854980469</ele>
        <time>2013-01-12T14:10:06Z</time>
      </trkpt>
      <trkpt lat="45.35645" lon="5.91634">
        <ele>1097.962890625</ele>
        <time>2013-01-12T14:10:08Z</time>
      </trkpt>
      <trkpt lat="45.3565" lon="5.91671">
        <ele>1088.3498535156</ele>
        <time>2013-01-12T14:10:11Z</time>
      </trkpt>
      <trkpt lat="45.35652" lon="5.91683">
        <ele>1082.1010742188</ele>
        <time>2013-01-12T14:10:12Z</time>
      </trkpt>
      <trkpt lat="45.35665" lon="5.91709">
        <ele>1075.8525390625</ele>
        <time>2013-01-12T14:10:15Z</time>
      </trkpt>
      <trkpt lat="45.35669" lon="5.91721">
        <ele>1072.4880371094</ele>
        <time>2013-01-12T14:10:16Z</time>
      </trkpt>
      <trkpt lat="45.35711" lon="5.91789">
        <ele>1066.2392578125</ele>
        <time>2013-01-12T14:10:23Z</time>
      </trkpt>
      <trkpt lat="45.35702" lon="5.91817">
        <ele>1051.8195800781</ele>
        <time>2013-01-12T14:10:26Z</time>
      </trkpt>
      <trkpt lat="45.35682" lon="5.91833">
        <ele>1052.3002929688</ele>
        <time>2013-01-12T14:10:33Z</time>
      </trkpt>
      <trkpt lat="45.35681" lon="5.91833">
        <ele>1051.3388671875</ele>
        <time>2013-01-12T14:10:55Z</time>
      </trkpt>
      <trkpt lat="45.35681" lon="5.91832">
        <ele>1052.7810058594</ele>
        <time>2013-01-12T14:10:57Z</time>
      </trkpt>
      <trkpt lat="45.35681" lon="5.91832">
        <ele>1053.7424316406</ele>
        <time>2013-01-12T14:11:22Z</time>
      </trkpt>
      <trkpt lat="45.35674" lon="5.91838">
        <ele>1054.7036132812</ele>
        <time>2013-01-12T14:11:36Z</time>
      </trkpt>
      <trkpt lat="45.35662" lon="5.91847">
        <ele>1056.6262207031</ele>
        <time>2013-01-12T14:11:49Z</time>
      </trkpt>
      <trkpt lat="45.35657" lon="5.91849">
        <ele>1056.1455078125</ele>
        <time>2013-01-12T14:11:54Z</time>
      </trkpt>
      <trkpt lat="45.35655" lon="5.91852">
        <ele>1057.1069335938</ele>
        <time>2013-01-12T14:11:57Z</time>
      </trkpt>
      <trkpt lat="45.35652" lon="5.91854">
        <ele>1057.5876464844</ele>
        <time>2013-01-12T14:12:00Z</time>
      </trkpt>
      <trkpt lat="45.35651" lon="5.91854">
        <ele>1053.7424316406</ele>
        <time>2013-01-12T14:12:01Z</time>
      </trkpt>
      <trkpt lat="45.35636" lon="5.91856">
        <ele>1058.068359375</ele>
        <time>2013-01-12T14:12:12Z</time>
      </trkpt>
      <trkpt lat="45.35627" lon="5.9186">
        <ele>1056.6262207031</ele>
        <time>2013-01-12T14:12:20Z</time>
      </trkpt>
      <trkpt lat="45.35624" lon="5.91863">
        <ele>1055.6650390625</ele>
        <time>2013-01-12T14:12:24Z</time>
      </trkpt>
      <trkpt lat="45.35618" lon="5.91864">
        <ele>1056.6262207031</ele>
        <time>2013-01-12T14:12:28Z</time>
      </trkpt>
      <trkpt lat="45.35616" lon="5.91866">
        <ele>1057.5876464844</ele>
        <time>2013-01-12T14:12:30Z</time>
      </trkpt>
      <trkpt lat="45.35606" lon="5.91872">
        <ele>1058.068359375</ele>
        <time>2013-01-12T14:12:40Z</time>
      </trkpt>
      <trkpt lat="45.356" lon="5.91874">
        <ele>1059.5102539062</ele>
        <time>2013-01-12T14:12:44Z</time>
      </trkpt>
      <trkpt lat="45.35592" lon="5.91878">
        <ele>1059.5102539062</ele>
        <time>2013-01-12T14:12:52Z</time>
      </trkpt>
      <trkpt lat="45.35585" lon="5.91881">
        <ele>1057.1069335938</ele>
        <time>2013-01-12T14:12:58Z</time>
      </trkpt>
      <trkpt lat="45.35578" lon="5.91885">
        <ele>1060.4714355469</ele>
        <time>2013-01-12T14:13:06Z</time>
      </trkpt>
      <trkpt lat="45.35578" lon="5.91886">
        <ele>1057.1069335938</ele>
        <time>2013-01-12T14:13:07Z</time>
      </trkpt>
      <trkpt lat="45.35578" lon="5.91888">
        <ele>1057.1069335938</ele>
        <time>2013-01-12T14:13:08Z</time>
      </trkpt>
      <trkpt lat="45.35579" lon="5.91889">
        <ele>1059.9907226562</ele>
        <time>2013-01-12T14:13:09Z</time>
      </trkpt>
      <trkpt lat="45.3558" lon="5.9189">
        <ele>1056.6262207031</ele>
        <time>2013-01-12T14:13:11Z</time>
      </trkpt>
      <trkpt lat="45.3558" lon="5.91895">
        <ele>1059.9907226562</ele>
        <time>2013-01-12T14:13:13Z</time>
      </trkpt>
      <trkpt lat="45.35593" lon="5.91905">
        <ele>1059.9907226562</ele>
        <time>2013-01-12T14:13:29Z</time>
      </trkpt>
      <trkpt lat="45.35592" lon="5.91906">
        <ele>1059.0295410156</ele>
        <time>2013-01-12T14:13:56Z</time>
      </trkpt>
      <trkpt lat="45.35592" lon="5.91906">
        <ele>1060.4714355469</ele>
        <time>2013-01-12T14:13:58Z</time>
      </trkpt>
      <trkpt lat="45.35593" lon="5.91906">
        <ele>1061.9135742188</ele>
        <time>2013-01-12T14:14:27Z</time>
      </trkpt>
      <trkpt lat="45.35592" lon="5.91906">
        <ele>1061.4328613281</ele>
        <time>2013-01-12T14:14:32Z</time>
      </trkpt>
      <trkpt lat="45.35592" lon="5.91908">
        <ele>1064.7973632812</ele>
        <time>2013-01-12T14:17:17Z</time>
      </trkpt>
      <trkpt lat="45.35593" lon="5.91909">
        <ele>1066.7199707031</ele>
        <time>2013-01-12T14:20:17Z</time>
      </trkpt>
      <trkpt lat="45.35593" lon="5.91909">
        <ele>1068.6428222656</ele>
        <time>2013-01-12T14:23:46Z</time>
      </trkpt>
      <trkpt lat="45.35594" lon="5.9191">
        <ele>1071.5266113281</ele>
        <time>2013-01-12T14:26:27Z</time>
      </trkpt>
      <trkpt lat="45.35594" lon="5.9191">
        <ele>1066.2392578125</ele>
        <time>2013-01-12T14:26:29Z</time>
      </trkpt>
      <trkpt lat="45.35594" lon="5.9191">
        <ele>1070.5654296875</ele>
        <time>2013-01-12T14:26:30Z</time>
      </trkpt>
      <trkpt lat="45.35594" lon="5.9191">
        <ele>1074.4106445312</ele>
        <time>2013-01-12T14:26:56Z</time>
      </trkpt>
      <trkpt lat="45.35594" lon="5.9191">
        <ele>1071.0461425781</ele>
        <time>2013-01-12T14:26:57Z</time>
      </trkpt>
      <trkpt lat="45.35594" lon="5.9191">
        <ele>1070.0847167969</ele>
        <time>2013-01-12T14:26:59Z</time>
      </trkpt>
      <trkpt lat="45.35593" lon="5.91909">
        <ele>1070.0847167969</ele>
        <time>2013-01-12T14:27:10Z</time>
      </trkpt>
      <trkpt lat="45.35574" lon="5.91905">
        <ele>1069.1235351562</ele>
        <time>2013-01-12T14:27:24Z</time>
      </trkpt>
      <trkpt lat="45.35578" lon="5.91898">
        <ele>1069.1235351562</ele>
        <time>2013-01-12T14:27:30Z</time>
      </trkpt>
    </trkseg>
  </trk>
</gpx>